<?xml version="1.0" encoding="UTF-8" standalone="no" ?>
<gpx xmlns="http://www.topografix.com/GPX/1/1" xmlns:xsi="http://www.w3.org/2001/XMLSchema-instance" xsi:schemaLocation="http://www.topografix.com/GPX/1/1 http://www.topografix.com/GPX/1/1/gpx.xsd" version="1.1" creator="VisuGPX - https://www.visugpx.com">
  <metadata>
    <name>St-Guilhem-le-Désert</name>
    <desc><![CDATA[Notre belle balade du 3 juin 2013

http://vttolonzac.blogspot.fr/2013/06/vtt-olonzac-visite-saint-guilhem-le.html]]></desc>
  </metadata>
  <trk>
    <name><![CDATA[03-JUIN-13 15:16:13]]></name>
    <trkseg>
      <trkpt lat="43.73424" lon="3.54745">
        <ele>67.43</ele>
        <time>2013-06-03T07:09:34Z</time>
      </trkpt>
      <trkpt lat="43.73425" lon="3.54746">
        <ele>66.95</ele>
        <time>2013-06-03T07:09:35Z</time>
      </trkpt>
      <trkpt lat="43.73433" lon="3.54748">
        <ele>67.43</ele>
        <time>2013-06-03T07:10:01Z</time>
      </trkpt>
      <trkpt lat="43.73433" lon="3.54748">
        <ele>67.43</ele>
        <time>2013-06-03T07:10:02Z</time>
      </trkpt>
      <trkpt lat="43.73434" lon="3.54749">
        <ele>67.43</ele>
        <time>2013-06-03T07:10:13Z</time>
      </trkpt>
      <trkpt lat="43.73437" lon="3.54753">
        <ele>67.43</ele>
        <time>2013-06-03T07:10:27Z</time>
      </trkpt>
      <trkpt lat="43.73442" lon="3.54757">
        <ele>70.31</ele>
        <time>2013-06-03T07:10:35Z</time>
      </trkpt>
      <trkpt lat="43.73442" lon="3.54756">
        <ele>73.68</ele>
        <time>2013-06-03T07:10:38Z</time>
      </trkpt>
      <trkpt lat="43.73442" lon="3.54755">
        <ele>77.04</ele>
        <time>2013-06-03T07:10:41Z</time>
      </trkpt>
      <trkpt lat="43.73441" lon="3.54754">
        <ele>80.41</ele>
        <time>2013-06-03T07:10:45Z</time>
      </trkpt>
      <trkpt lat="43.73442" lon="3.54753">
        <ele>83.77</ele>
        <time>2013-06-03T07:10:49Z</time>
      </trkpt>
      <trkpt lat="43.73441" lon="3.54753">
        <ele>85.69</ele>
        <time>2013-06-03T07:10:52Z</time>
      </trkpt>
      <trkpt lat="43.73442" lon="3.54753">
        <ele>88.1</ele>
        <time>2013-06-03T07:10:55Z</time>
      </trkpt>
      <trkpt lat="43.73444" lon="3.5475">
        <ele>90.02</ele>
        <time>2013-06-03T07:10:59Z</time>
      </trkpt>
      <trkpt lat="43.73444" lon="3.5475">
        <ele>93.87</ele>
        <time>2013-06-03T07:11:05Z</time>
      </trkpt>
      <trkpt lat="43.73443" lon="3.54752">
        <ele>94.35</ele>
        <time>2013-06-03T07:11:07Z</time>
      </trkpt>
      <trkpt lat="43.73443" lon="3.54759">
        <ele>97.71</ele>
        <time>2013-06-03T07:11:15Z</time>
      </trkpt>
      <trkpt lat="43.73444" lon="3.54766">
        <ele>100.6</ele>
        <time>2013-06-03T07:11:29Z</time>
      </trkpt>
      <trkpt lat="43.73444" lon="3.5477">
        <ele>102.04</ele>
        <time>2013-06-03T07:11:51Z</time>
      </trkpt>
      <trkpt lat="43.73448" lon="3.54773">
        <ele>103</ele>
        <time>2013-06-03T07:12:03Z</time>
      </trkpt>
      <trkpt lat="43.73448" lon="3.54771">
        <ele>103</ele>
        <time>2013-06-03T07:12:08Z</time>
      </trkpt>
      <trkpt lat="43.73448" lon="3.54761">
        <ele>103.48</ele>
        <time>2013-06-03T07:12:19Z</time>
      </trkpt>
      <trkpt lat="43.73448" lon="3.54759">
        <ele>103</ele>
        <time>2013-06-03T07:12:21Z</time>
      </trkpt>
      <trkpt lat="43.73444" lon="3.54757">
        <ele>103.48</ele>
        <time>2013-06-03T07:12:27Z</time>
      </trkpt>
      <trkpt lat="43.73436" lon="3.54761">
        <ele>102.52</ele>
        <time>2013-06-03T07:12:38Z</time>
      </trkpt>
      <trkpt lat="43.73432" lon="3.54762">
        <ele>102.52</ele>
        <time>2013-06-03T07:12:43Z</time>
      </trkpt>
      <trkpt lat="43.73428" lon="3.54763">
        <ele>102.52</ele>
        <time>2013-06-03T07:12:47Z</time>
      </trkpt>
      <trkpt lat="43.73425" lon="3.54766">
        <ele>102.04</ele>
        <time>2013-06-03T07:12:50Z</time>
      </trkpt>
      <trkpt lat="43.73423" lon="3.54766">
        <ele>102.52</ele>
        <time>2013-06-03T07:12:53Z</time>
      </trkpt>
      <trkpt lat="43.73416" lon="3.54774">
        <ele>102.04</ele>
        <time>2013-06-03T07:13:06Z</time>
      </trkpt>
      <trkpt lat="43.73412" lon="3.54777">
        <ele>102.04</ele>
        <time>2013-06-03T07:13:09Z</time>
      </trkpt>
      <trkpt lat="43.73409" lon="3.54784">
        <ele>102.04</ele>
        <time>2013-06-03T07:13:13Z</time>
      </trkpt>
      <trkpt lat="43.73408" lon="3.54789">
        <ele>102.04</ele>
        <time>2013-06-03T07:13:17Z</time>
      </trkpt>
      <trkpt lat="43.73401" lon="3.54794">
        <ele>102.04</ele>
        <time>2013-06-03T07:13:24Z</time>
      </trkpt>
      <trkpt lat="43.73394" lon="3.54799">
        <ele>102.04</ele>
        <time>2013-06-03T07:13:32Z</time>
      </trkpt>
      <trkpt lat="43.73392" lon="3.54805">
        <ele>101.56</ele>
        <time>2013-06-03T07:13:38Z</time>
      </trkpt>
      <trkpt lat="43.7339" lon="3.54815">
        <ele>102.52</ele>
        <time>2013-06-03T07:13:49Z</time>
      </trkpt>
      <trkpt lat="43.73388" lon="3.54815">
        <ele>102.52</ele>
        <time>2013-06-03T07:14:01Z</time>
      </trkpt>
      <trkpt lat="43.73386" lon="3.54812">
        <ele>102.52</ele>
        <time>2013-06-03T07:14:11Z</time>
      </trkpt>
      <trkpt lat="43.73386" lon="3.54813">
        <ele>102.52</ele>
        <time>2013-06-03T07:14:15Z</time>
      </trkpt>
      <trkpt lat="43.73382" lon="3.5482">
        <ele>102.52</ele>
        <time>2013-06-03T07:14:22Z</time>
      </trkpt>
      <trkpt lat="43.73377" lon="3.54827">
        <ele>102.52</ele>
        <time>2013-06-03T07:14:28Z</time>
      </trkpt>
      <trkpt lat="43.73374" lon="3.54831">
        <ele>102.52</ele>
        <time>2013-06-03T07:14:32Z</time>
      </trkpt>
      <trkpt lat="43.73371" lon="3.54835">
        <ele>102.52</ele>
        <time>2013-06-03T07:14:45Z</time>
      </trkpt>
      <trkpt lat="43.73373" lon="3.54837">
        <ele>102.04</ele>
        <time>2013-06-03T07:14:53Z</time>
      </trkpt>
      <trkpt lat="43.73381" lon="3.54853">
        <ele>101.56</ele>
        <time>2013-06-03T07:15:03Z</time>
      </trkpt>
      <trkpt lat="43.73382" lon="3.54854">
        <ele>101.56</ele>
        <time>2013-06-03T07:15:04Z</time>
      </trkpt>
      <trkpt lat="43.7339" lon="3.54862">
        <ele>101.08</ele>
        <time>2013-06-03T07:15:18Z</time>
      </trkpt>
      <trkpt lat="43.73391" lon="3.54865">
        <ele>100.6</ele>
        <time>2013-06-03T07:15:22Z</time>
      </trkpt>
      <trkpt lat="43.73389" lon="3.54869">
        <ele>100.6</ele>
        <time>2013-06-03T07:15:25Z</time>
      </trkpt>
      <trkpt lat="43.73391" lon="3.54874">
        <ele>100.6</ele>
        <time>2013-06-03T07:15:28Z</time>
      </trkpt>
      <trkpt lat="43.73389" lon="3.54889">
        <ele>100.6</ele>
        <time>2013-06-03T07:15:40Z</time>
      </trkpt>
      <trkpt lat="43.73391" lon="3.54893">
        <ele>100.6</ele>
        <time>2013-06-03T07:15:51Z</time>
      </trkpt>
      <trkpt lat="43.73393" lon="3.54891">
        <ele>100.6</ele>
        <time>2013-06-03T07:15:58Z</time>
      </trkpt>
      <trkpt lat="43.73395" lon="3.54893">
        <ele>101.08</ele>
        <time>2013-06-03T07:16:01Z</time>
      </trkpt>
      <trkpt lat="43.73399" lon="3.54899">
        <ele>101.56</ele>
        <time>2013-06-03T07:16:13Z</time>
      </trkpt>
      <trkpt lat="43.73404" lon="3.54899">
        <ele>101.08</ele>
        <time>2013-06-03T07:16:24Z</time>
      </trkpt>
      <trkpt lat="43.73411" lon="3.54893">
        <ele>100.6</ele>
        <time>2013-06-03T07:16:34Z</time>
      </trkpt>
      <trkpt lat="43.73413" lon="3.54888">
        <ele>101.08</ele>
        <time>2013-06-03T07:16:36Z</time>
      </trkpt>
      <trkpt lat="43.73411" lon="3.54876">
        <ele>101.08</ele>
        <time>2013-06-03T07:16:43Z</time>
      </trkpt>
      <trkpt lat="43.7341" lon="3.54877">
        <ele>101.08</ele>
        <time>2013-06-03T07:16:45Z</time>
      </trkpt>
      <trkpt lat="43.73409" lon="3.54878">
        <ele>101.08</ele>
        <time>2013-06-03T07:16:50Z</time>
      </trkpt>
      <trkpt lat="43.73414" lon="3.54886">
        <ele>102.04</ele>
        <time>2013-06-03T07:17:03Z</time>
      </trkpt>
      <trkpt lat="43.73417" lon="3.54893">
        <ele>104.44</ele>
        <time>2013-06-03T07:17:20Z</time>
      </trkpt>
      <trkpt lat="43.73426" lon="3.54909">
        <ele>104.92</ele>
        <time>2013-06-03T07:17:36Z</time>
      </trkpt>
      <trkpt lat="43.73421" lon="3.54925">
        <ele>105.4</ele>
        <time>2013-06-03T07:17:46Z</time>
      </trkpt>
      <trkpt lat="43.73418" lon="3.54945">
        <ele>105.4</ele>
        <time>2013-06-03T07:17:58Z</time>
      </trkpt>
      <trkpt lat="43.73412" lon="3.54953">
        <ele>103.96</ele>
        <time>2013-06-03T07:18:04Z</time>
      </trkpt>
      <trkpt lat="43.73408" lon="3.54971">
        <ele>101.56</ele>
        <time>2013-06-03T07:18:17Z</time>
      </trkpt>
      <trkpt lat="43.73407" lon="3.54973">
        <ele>102.04</ele>
        <time>2013-06-03T07:18:19Z</time>
      </trkpt>
      <trkpt lat="43.73403" lon="3.54977">
        <ele>101.56</ele>
        <time>2013-06-03T07:18:25Z</time>
      </trkpt>
      <trkpt lat="43.73402" lon="3.54979">
        <ele>101.08</ele>
        <time>2013-06-03T07:18:28Z</time>
      </trkpt>
      <trkpt lat="43.734" lon="3.54981">
        <ele>101.08</ele>
        <time>2013-06-03T07:18:30Z</time>
      </trkpt>
      <trkpt lat="43.73395" lon="3.54984">
        <ele>100.6</ele>
        <time>2013-06-03T07:18:37Z</time>
      </trkpt>
      <trkpt lat="43.73389" lon="3.5499">
        <ele>100.6</ele>
        <time>2013-06-03T07:18:50Z</time>
      </trkpt>
      <trkpt lat="43.73388" lon="3.54993">
        <ele>100.11</ele>
        <time>2013-06-03T07:18:53Z</time>
      </trkpt>
      <trkpt lat="43.73383" lon="3.5501">
        <ele>98.19</ele>
        <time>2013-06-03T07:19:05Z</time>
      </trkpt>
      <trkpt lat="43.73384" lon="3.5501">
        <ele>98.19</ele>
        <time>2013-06-03T07:19:15Z</time>
      </trkpt>
      <trkpt lat="43.73384" lon="3.55014">
        <ele>97.71</ele>
        <time>2013-06-03T07:19:17Z</time>
      </trkpt>
      <trkpt lat="43.73385" lon="3.55023">
        <ele>97.23</ele>
        <time>2013-06-03T07:19:22Z</time>
      </trkpt>
      <trkpt lat="43.73386" lon="3.55035">
        <ele>96.27</ele>
        <time>2013-06-03T07:19:30Z</time>
      </trkpt>
      <trkpt lat="43.73386" lon="3.5504">
        <ele>95.79</ele>
        <time>2013-06-03T07:19:33Z</time>
      </trkpt>
      <trkpt lat="43.73387" lon="3.55043">
        <ele>96.27</ele>
        <time>2013-06-03T07:19:35Z</time>
      </trkpt>
      <trkpt lat="43.7339" lon="3.55055">
        <ele>95.79</ele>
        <time>2013-06-03T07:19:42Z</time>
      </trkpt>
      <trkpt lat="43.73389" lon="3.55077">
        <ele>93.87</ele>
        <time>2013-06-03T07:19:56Z</time>
      </trkpt>
      <trkpt lat="43.73385" lon="3.55097">
        <ele>92.9</ele>
        <time>2013-06-03T07:20:11Z</time>
      </trkpt>
      <trkpt lat="43.73386" lon="3.55114">
        <ele>90.98</ele>
        <time>2013-06-03T07:20:26Z</time>
      </trkpt>
      <trkpt lat="43.73385" lon="3.55117">
        <ele>90.02</ele>
        <time>2013-06-03T07:20:30Z</time>
      </trkpt>
      <trkpt lat="43.73386" lon="3.55122">
        <ele>90.02</ele>
        <time>2013-06-03T07:20:32Z</time>
      </trkpt>
      <trkpt lat="43.73386" lon="3.55132">
        <ele>89.06</ele>
        <time>2013-06-03T07:20:39Z</time>
      </trkpt>
      <trkpt lat="43.73385" lon="3.55155">
        <ele>86.66</ele>
        <time>2013-06-03T07:20:57Z</time>
      </trkpt>
      <trkpt lat="43.73386" lon="3.55157">
        <ele>87.14</ele>
        <time>2013-06-03T07:20:59Z</time>
      </trkpt>
      <trkpt lat="43.73387" lon="3.5517">
        <ele>86.18</ele>
        <time>2013-06-03T07:21:05Z</time>
      </trkpt>
      <trkpt lat="43.73384" lon="3.55191">
        <ele>84.25</ele>
        <time>2013-06-03T07:21:15Z</time>
      </trkpt>
      <trkpt lat="43.73379" lon="3.55196">
        <ele>84.25</ele>
        <time>2013-06-03T07:21:19Z</time>
      </trkpt>
      <trkpt lat="43.73379" lon="3.55224">
        <ele>82.33</ele>
        <time>2013-06-03T07:21:32Z</time>
      </trkpt>
      <trkpt lat="43.73378" lon="3.55231">
        <ele>82.81</ele>
        <time>2013-06-03T07:21:40Z</time>
      </trkpt>
      <trkpt lat="43.73378" lon="3.55233">
        <ele>82.81</ele>
        <time>2013-06-03T07:21:43Z</time>
      </trkpt>
      <trkpt lat="43.73376" lon="3.55246">
        <ele>82.81</ele>
        <time>2013-06-03T07:21:49Z</time>
      </trkpt>
      <trkpt lat="43.73367" lon="3.55266">
        <ele>81.37</ele>
        <time>2013-06-03T07:21:58Z</time>
      </trkpt>
      <trkpt lat="43.73365" lon="3.55273">
        <ele>81.85</ele>
        <time>2013-06-03T07:22:04Z</time>
      </trkpt>
      <trkpt lat="43.73362" lon="3.55275">
        <ele>81.37</ele>
        <time>2013-06-03T07:22:06Z</time>
      </trkpt>
      <trkpt lat="43.7336" lon="3.55285">
        <ele>81.37</ele>
        <time>2013-06-03T07:22:16Z</time>
      </trkpt>
      <trkpt lat="43.7336" lon="3.55285">
        <ele>81.85</ele>
        <time>2013-06-03T07:22:18Z</time>
      </trkpt>
      <trkpt lat="43.73354" lon="3.55305">
        <ele>82.33</ele>
        <time>2013-06-03T07:22:32Z</time>
      </trkpt>
      <trkpt lat="43.73349" lon="3.55324">
        <ele>81.37</ele>
        <time>2013-06-03T07:22:46Z</time>
      </trkpt>
      <trkpt lat="43.73345" lon="3.55335">
        <ele>81.37</ele>
        <time>2013-06-03T07:22:54Z</time>
      </trkpt>
      <trkpt lat="43.73341" lon="3.55349">
        <ele>80.41</ele>
        <time>2013-06-03T07:23:07Z</time>
      </trkpt>
      <trkpt lat="43.7334" lon="3.55354">
        <ele>79.45</ele>
        <time>2013-06-03T07:23:21Z</time>
      </trkpt>
      <trkpt lat="43.73339" lon="3.55353">
        <ele>79.45</ele>
        <time>2013-06-03T07:23:29Z</time>
      </trkpt>
      <trkpt lat="43.73333" lon="3.55358">
        <ele>78.97</ele>
        <time>2013-06-03T07:23:40Z</time>
      </trkpt>
      <trkpt lat="43.73333" lon="3.55357">
        <ele>78.97</ele>
        <time>2013-06-03T07:23:43Z</time>
      </trkpt>
      <trkpt lat="43.73329" lon="3.55363">
        <ele>78.97</ele>
        <time>2013-06-03T07:23:48Z</time>
      </trkpt>
      <trkpt lat="43.73324" lon="3.55369">
        <ele>78.48</ele>
        <time>2013-06-03T07:23:54Z</time>
      </trkpt>
      <trkpt lat="43.73322" lon="3.55371">
        <ele>78.97</ele>
        <time>2013-06-03T07:23:58Z</time>
      </trkpt>
      <trkpt lat="43.73316" lon="3.55373">
        <ele>78.48</ele>
        <time>2013-06-03T07:24:01Z</time>
      </trkpt>
      <trkpt lat="43.73313" lon="3.55373">
        <ele>79.45</ele>
        <time>2013-06-03T07:24:05Z</time>
      </trkpt>
      <trkpt lat="43.73308" lon="3.55374">
        <ele>79.45</ele>
        <time>2013-06-03T07:24:11Z</time>
      </trkpt>
      <trkpt lat="43.73302" lon="3.55373">
        <ele>79.93</ele>
        <time>2013-06-03T07:24:17Z</time>
      </trkpt>
      <trkpt lat="43.73296" lon="3.55368">
        <ele>81.37</ele>
        <time>2013-06-03T07:24:30Z</time>
      </trkpt>
      <trkpt lat="43.73289" lon="3.55367">
        <ele>80.89</ele>
        <time>2013-06-03T07:24:40Z</time>
      </trkpt>
      <trkpt lat="43.73278" lon="3.55368">
        <ele>79.45</ele>
        <time>2013-06-03T07:24:48Z</time>
      </trkpt>
      <trkpt lat="43.73275" lon="3.55366">
        <ele>78.97</ele>
        <time>2013-06-03T07:24:52Z</time>
      </trkpt>
      <trkpt lat="43.73273" lon="3.55366">
        <ele>78.97</ele>
        <time>2013-06-03T07:24:54Z</time>
      </trkpt>
      <trkpt lat="43.73259" lon="3.5537">
        <ele>78</ele>
        <time>2013-06-03T07:25:06Z</time>
      </trkpt>
      <trkpt lat="43.73256" lon="3.55369">
        <ele>77.52</ele>
        <time>2013-06-03T07:25:12Z</time>
      </trkpt>
      <trkpt lat="43.73254" lon="3.5537">
        <ele>77.52</ele>
        <time>2013-06-03T07:25:14Z</time>
      </trkpt>
      <trkpt lat="43.73251" lon="3.55371">
        <ele>77.52</ele>
        <time>2013-06-03T07:25:16Z</time>
      </trkpt>
      <trkpt lat="43.73242" lon="3.55372">
        <ele>77.04</ele>
        <time>2013-06-03T07:25:21Z</time>
      </trkpt>
      <trkpt lat="43.73238" lon="3.55372">
        <ele>77.52</ele>
        <time>2013-06-03T07:25:26Z</time>
      </trkpt>
      <trkpt lat="43.73229" lon="3.55369">
        <ele>77.52</ele>
        <time>2013-06-03T07:25:37Z</time>
      </trkpt>
      <trkpt lat="43.73228" lon="3.55369">
        <ele>77.52</ele>
        <time>2013-06-03T07:25:38Z</time>
      </trkpt>
      <trkpt lat="43.73227" lon="3.55364">
        <ele>77.04</ele>
        <time>2013-06-03T07:25:42Z</time>
      </trkpt>
      <trkpt lat="43.73224" lon="3.55364">
        <ele>77.52</ele>
        <time>2013-06-03T07:25:45Z</time>
      </trkpt>
      <trkpt lat="43.73222" lon="3.55359">
        <ele>77.52</ele>
        <time>2013-06-03T07:25:48Z</time>
      </trkpt>
      <trkpt lat="43.7322" lon="3.55356">
        <ele>77.52</ele>
        <time>2013-06-03T07:25:51Z</time>
      </trkpt>
      <trkpt lat="43.73213" lon="3.55348">
        <ele>76.56</ele>
        <time>2013-06-03T07:26:00Z</time>
      </trkpt>
      <trkpt lat="43.73209" lon="3.55343">
        <ele>77.04</ele>
        <time>2013-06-03T07:26:04Z</time>
      </trkpt>
      <trkpt lat="43.73204" lon="3.5534">
        <ele>76.08</ele>
        <time>2013-06-03T07:26:09Z</time>
      </trkpt>
      <trkpt lat="43.73201" lon="3.55338">
        <ele>76.08</ele>
        <time>2013-06-03T07:26:12Z</time>
      </trkpt>
      <trkpt lat="43.73199" lon="3.55336">
        <ele>76.08</ele>
        <time>2013-06-03T07:26:14Z</time>
      </trkpt>
      <trkpt lat="43.73188" lon="3.5533">
        <ele>75.12</ele>
        <time>2013-06-03T07:26:24Z</time>
      </trkpt>
      <trkpt lat="43.73179" lon="3.55325">
        <ele>75.12</ele>
        <time>2013-06-03T07:26:32Z</time>
      </trkpt>
      <trkpt lat="43.73173" lon="3.55323">
        <ele>75.12</ele>
        <time>2013-06-03T07:26:37Z</time>
      </trkpt>
      <trkpt lat="43.73159" lon="3.55321">
        <ele>75.6</ele>
        <time>2013-06-03T07:26:49Z</time>
      </trkpt>
      <trkpt lat="43.73152" lon="3.55322">
        <ele>75.6</ele>
        <time>2013-06-03T07:26:57Z</time>
      </trkpt>
      <trkpt lat="43.73145" lon="3.55321">
        <ele>75.12</ele>
        <time>2013-06-03T07:27:05Z</time>
      </trkpt>
      <trkpt lat="43.73142" lon="3.55319">
        <ele>75.6</ele>
        <time>2013-06-03T07:27:09Z</time>
      </trkpt>
      <trkpt lat="43.73137" lon="3.55316">
        <ele>75.12</ele>
        <time>2013-06-03T07:27:14Z</time>
      </trkpt>
      <trkpt lat="43.73124" lon="3.55311">
        <ele>75.12</ele>
        <time>2013-06-03T07:27:26Z</time>
      </trkpt>
      <trkpt lat="43.73119" lon="3.55309">
        <ele>75.12</ele>
        <time>2013-06-03T07:27:39Z</time>
      </trkpt>
      <trkpt lat="43.73111" lon="3.55311">
        <ele>75.6</ele>
        <time>2013-06-03T07:27:55Z</time>
      </trkpt>
      <trkpt lat="43.73105" lon="3.55311">
        <ele>76.08</ele>
        <time>2013-06-03T07:28:07Z</time>
      </trkpt>
      <trkpt lat="43.73099" lon="3.55309">
        <ele>75.6</ele>
        <time>2013-06-03T07:28:20Z</time>
      </trkpt>
      <trkpt lat="43.73096" lon="3.55309">
        <ele>75.6</ele>
        <time>2013-06-03T07:28:32Z</time>
      </trkpt>
      <trkpt lat="43.73091" lon="3.55304">
        <ele>75.12</ele>
        <time>2013-06-03T07:28:45Z</time>
      </trkpt>
      <trkpt lat="43.73085" lon="3.553">
        <ele>75.6</ele>
        <time>2013-06-03T07:28:54Z</time>
      </trkpt>
      <trkpt lat="43.73074" lon="3.55295">
        <ele>75.6</ele>
        <time>2013-06-03T07:29:05Z</time>
      </trkpt>
      <trkpt lat="43.73065" lon="3.5529">
        <ele>75.12</ele>
        <time>2013-06-03T07:29:16Z</time>
      </trkpt>
      <trkpt lat="43.73064" lon="3.5529">
        <ele>75.12</ele>
        <time>2013-06-03T07:29:18Z</time>
      </trkpt>
      <trkpt lat="43.73061" lon="3.55289">
        <ele>75.12</ele>
        <time>2013-06-03T07:29:21Z</time>
      </trkpt>
      <trkpt lat="43.73055" lon="3.55286">
        <ele>75.12</ele>
        <time>2013-06-03T07:29:28Z</time>
      </trkpt>
      <trkpt lat="43.73049" lon="3.55282">
        <ele>75.12</ele>
        <time>2013-06-03T07:29:34Z</time>
      </trkpt>
      <trkpt lat="43.73046" lon="3.5528">
        <ele>75.6</ele>
        <time>2013-06-03T07:29:37Z</time>
      </trkpt>
      <trkpt lat="43.73037" lon="3.55274">
        <ele>75.12</ele>
        <time>2013-06-03T07:29:45Z</time>
      </trkpt>
      <trkpt lat="43.73031" lon="3.55272">
        <ele>75.12</ele>
        <time>2013-06-03T07:29:51Z</time>
      </trkpt>
      <trkpt lat="43.73024" lon="3.55268">
        <ele>75.6</ele>
        <time>2013-06-03T07:30:03Z</time>
      </trkpt>
      <trkpt lat="43.73019" lon="3.55266">
        <ele>75.12</ele>
        <time>2013-06-03T07:30:16Z</time>
      </trkpt>
      <trkpt lat="43.73018" lon="3.55266">
        <ele>75.6</ele>
        <time>2013-06-03T07:30:19Z</time>
      </trkpt>
      <trkpt lat="43.73009" lon="3.55267">
        <ele>72.72</ele>
        <time>2013-06-03T07:30:31Z</time>
      </trkpt>
      <trkpt lat="43.73006" lon="3.55268">
        <ele>72.72</ele>
        <time>2013-06-03T07:30:34Z</time>
      </trkpt>
      <trkpt lat="43.72997" lon="3.55262">
        <ele>72.72</ele>
        <time>2013-06-03T07:30:44Z</time>
      </trkpt>
      <trkpt lat="43.72987" lon="3.55257">
        <ele>73.2</ele>
        <time>2013-06-03T07:30:57Z</time>
      </trkpt>
      <trkpt lat="43.72983" lon="3.55255">
        <ele>73.68</ele>
        <time>2013-06-03T07:31:08Z</time>
      </trkpt>
      <trkpt lat="43.72981" lon="3.55252">
        <ele>75.12</ele>
        <time>2013-06-03T07:31:20Z</time>
      </trkpt>
      <trkpt lat="43.72981" lon="3.55251">
        <ele>76.08</ele>
        <time>2013-06-03T07:31:23Z</time>
      </trkpt>
      <trkpt lat="43.72976" lon="3.55248">
        <ele>75.12</ele>
        <time>2013-06-03T07:31:27Z</time>
      </trkpt>
      <trkpt lat="43.72969" lon="3.55246">
        <ele>75.12</ele>
        <time>2013-06-03T07:31:33Z</time>
      </trkpt>
      <trkpt lat="43.72964" lon="3.55242">
        <ele>74.64</ele>
        <time>2013-06-03T07:31:38Z</time>
      </trkpt>
      <trkpt lat="43.72956" lon="3.55235">
        <ele>73.68</ele>
        <time>2013-06-03T07:31:50Z</time>
      </trkpt>
      <trkpt lat="43.72954" lon="3.55234">
        <ele>74.16</ele>
        <time>2013-06-03T07:31:52Z</time>
      </trkpt>
      <trkpt lat="43.7295" lon="3.55231">
        <ele>74.64</ele>
        <time>2013-06-03T07:31:56Z</time>
      </trkpt>
      <trkpt lat="43.7294" lon="3.55218">
        <ele>74.16</ele>
        <time>2013-06-03T07:32:09Z</time>
      </trkpt>
      <trkpt lat="43.72926" lon="3.55204">
        <ele>75.12</ele>
        <time>2013-06-03T07:32:22Z</time>
      </trkpt>
      <trkpt lat="43.72919" lon="3.55192">
        <ele>74.64</ele>
        <time>2013-06-03T07:32:30Z</time>
      </trkpt>
      <trkpt lat="43.72913" lon="3.55187">
        <ele>74.16</ele>
        <time>2013-06-03T07:32:35Z</time>
      </trkpt>
      <trkpt lat="43.72902" lon="3.5518">
        <ele>74.64</ele>
        <time>2013-06-03T07:32:49Z</time>
      </trkpt>
      <trkpt lat="43.72895" lon="3.55175">
        <ele>74.64</ele>
        <time>2013-06-03T07:33:00Z</time>
      </trkpt>
      <trkpt lat="43.7289" lon="3.55173">
        <ele>74.64</ele>
        <time>2013-06-03T07:33:09Z</time>
      </trkpt>
      <trkpt lat="43.72887" lon="3.55169">
        <ele>74.64</ele>
        <time>2013-06-03T07:33:13Z</time>
      </trkpt>
      <trkpt lat="43.72877" lon="3.55158">
        <ele>74.16</ele>
        <time>2013-06-03T07:33:24Z</time>
      </trkpt>
      <trkpt lat="43.72875" lon="3.55153">
        <ele>75.12</ele>
        <time>2013-06-03T07:33:29Z</time>
      </trkpt>
      <trkpt lat="43.72874" lon="3.55151">
        <ele>75.12</ele>
        <time>2013-06-03T07:33:31Z</time>
      </trkpt>
      <trkpt lat="43.72869" lon="3.55144">
        <ele>74.64</ele>
        <time>2013-06-03T07:33:37Z</time>
      </trkpt>
      <trkpt lat="43.72852" lon="3.55131">
        <ele>73.68</ele>
        <time>2013-06-03T07:33:51Z</time>
      </trkpt>
      <trkpt lat="43.72844" lon="3.5512">
        <ele>76.08</ele>
        <time>2013-06-03T07:34:05Z</time>
      </trkpt>
      <trkpt lat="43.72842" lon="3.55118">
        <ele>76.56</ele>
        <time>2013-06-03T07:34:07Z</time>
      </trkpt>
      <trkpt lat="43.72828" lon="3.55106">
        <ele>75.12</ele>
        <time>2013-06-03T07:34:21Z</time>
      </trkpt>
      <trkpt lat="43.72827" lon="3.55105">
        <ele>75.12</ele>
        <time>2013-06-03T07:34:22Z</time>
      </trkpt>
      <trkpt lat="43.72823" lon="3.55101">
        <ele>75.6</ele>
        <time>2013-06-03T07:34:27Z</time>
      </trkpt>
      <trkpt lat="43.72811" lon="3.55098">
        <ele>75.6</ele>
        <time>2013-06-03T07:34:37Z</time>
      </trkpt>
      <trkpt lat="43.72808" lon="3.55096">
        <ele>75.6</ele>
        <time>2013-06-03T07:34:40Z</time>
      </trkpt>
      <trkpt lat="43.72793" lon="3.55084">
        <ele>75.6</ele>
        <time>2013-06-03T07:34:55Z</time>
      </trkpt>
      <trkpt lat="43.72792" lon="3.55083">
        <ele>75.6</ele>
        <time>2013-06-03T07:34:56Z</time>
      </trkpt>
      <trkpt lat="43.72781" lon="3.55073">
        <ele>76.08</ele>
        <time>2013-06-03T07:35:07Z</time>
      </trkpt>
      <trkpt lat="43.72768" lon="3.55066">
        <ele>76.08</ele>
        <time>2013-06-03T07:35:18Z</time>
      </trkpt>
      <trkpt lat="43.72761" lon="3.55059">
        <ele>76.08</ele>
        <time>2013-06-03T07:35:30Z</time>
      </trkpt>
      <trkpt lat="43.72756" lon="3.55056">
        <ele>75.6</ele>
        <time>2013-06-03T07:35:42Z</time>
      </trkpt>
      <trkpt lat="43.72752" lon="3.55054">
        <ele>75.12</ele>
        <time>2013-06-03T07:35:54Z</time>
      </trkpt>
      <trkpt lat="43.72749" lon="3.55049">
        <ele>75.12</ele>
        <time>2013-06-03T07:36:00Z</time>
      </trkpt>
      <trkpt lat="43.72744" lon="3.55046">
        <ele>75.12</ele>
        <time>2013-06-03T07:36:04Z</time>
      </trkpt>
      <trkpt lat="43.72734" lon="3.55047">
        <ele>74.16</ele>
        <time>2013-06-03T07:36:13Z</time>
      </trkpt>
      <trkpt lat="43.72727" lon="3.55038">
        <ele>74.16</ele>
        <time>2013-06-03T07:36:20Z</time>
      </trkpt>
      <trkpt lat="43.7272" lon="3.55036">
        <ele>74.16</ele>
        <time>2013-06-03T07:36:26Z</time>
      </trkpt>
      <trkpt lat="43.72717" lon="3.55034">
        <ele>73.68</ele>
        <time>2013-06-03T07:36:29Z</time>
      </trkpt>
      <trkpt lat="43.72698" lon="3.55028">
        <ele>73.68</ele>
        <time>2013-06-03T07:36:43Z</time>
      </trkpt>
      <trkpt lat="43.72698" lon="3.55027">
        <ele>73.68</ele>
        <time>2013-06-03T07:36:44Z</time>
      </trkpt>
      <trkpt lat="43.72687" lon="3.55027">
        <ele>72.24</ele>
        <time>2013-06-03T07:36:56Z</time>
      </trkpt>
      <trkpt lat="43.72685" lon="3.55028">
        <ele>72.24</ele>
        <time>2013-06-03T07:37:07Z</time>
      </trkpt>
      <trkpt lat="43.72682" lon="3.55027">
        <ele>71.76</ele>
        <time>2013-06-03T07:37:20Z</time>
      </trkpt>
      <trkpt lat="43.7268" lon="3.55025">
        <ele>71.27</ele>
        <time>2013-06-03T07:37:23Z</time>
      </trkpt>
      <trkpt lat="43.72673" lon="3.55021">
        <ele>71.76</ele>
        <time>2013-06-03T07:37:36Z</time>
      </trkpt>
      <trkpt lat="43.72669" lon="3.55019">
        <ele>73.68</ele>
        <time>2013-06-03T07:37:45Z</time>
      </trkpt>
      <trkpt lat="43.72665" lon="3.55018">
        <ele>73.2</ele>
        <time>2013-06-03T07:37:49Z</time>
      </trkpt>
      <trkpt lat="43.72661" lon="3.55017">
        <ele>73.2</ele>
        <time>2013-06-03T07:37:52Z</time>
      </trkpt>
      <trkpt lat="43.72658" lon="3.55018">
        <ele>73.2</ele>
        <time>2013-06-03T07:37:55Z</time>
      </trkpt>
      <trkpt lat="43.72652" lon="3.55016">
        <ele>73.2</ele>
        <time>2013-06-03T07:38:12Z</time>
      </trkpt>
      <trkpt lat="43.7265" lon="3.55016">
        <ele>73.68</ele>
        <time>2013-06-03T07:38:27Z</time>
      </trkpt>
      <trkpt lat="43.72647" lon="3.55014">
        <ele>73.2</ele>
        <time>2013-06-03T07:38:41Z</time>
      </trkpt>
      <trkpt lat="43.72647" lon="3.55014">
        <ele>73.2</ele>
        <time>2013-06-03T07:38:59Z</time>
      </trkpt>
      <trkpt lat="43.72647" lon="3.55014">
        <ele>73.2</ele>
        <time>2013-06-03T07:39:17Z</time>
      </trkpt>
      <trkpt lat="43.72647" lon="3.55014">
        <ele>73.2</ele>
        <time>2013-06-03T07:39:20Z</time>
      </trkpt>
      <trkpt lat="43.72645" lon="3.55013">
        <ele>73.2</ele>
        <time>2013-06-03T07:39:22Z</time>
      </trkpt>
      <trkpt lat="43.72634" lon="3.55014">
        <ele>73.68</ele>
        <time>2013-06-03T07:39:32Z</time>
      </trkpt>
      <trkpt lat="43.72617" lon="3.55013">
        <ele>74.16</ele>
        <time>2013-06-03T07:39:48Z</time>
      </trkpt>
      <trkpt lat="43.72613" lon="3.55013">
        <ele>74.16</ele>
        <time>2013-06-03T07:39:51Z</time>
      </trkpt>
      <trkpt lat="43.72606" lon="3.55013">
        <ele>73.68</ele>
        <time>2013-06-03T07:39:59Z</time>
      </trkpt>
      <trkpt lat="43.72591" lon="3.55015">
        <ele>73.2</ele>
        <time>2013-06-03T07:40:11Z</time>
      </trkpt>
      <trkpt lat="43.72585" lon="3.55014">
        <ele>75.12</ele>
        <time>2013-06-03T07:40:24Z</time>
      </trkpt>
      <trkpt lat="43.72584" lon="3.55014">
        <ele>73.2</ele>
        <time>2013-06-03T07:40:40Z</time>
      </trkpt>
      <trkpt lat="43.72583" lon="3.55014">
        <ele>74.16</ele>
        <time>2013-06-03T07:40:54Z</time>
      </trkpt>
      <trkpt lat="43.7258" lon="3.55016">
        <ele>73.2</ele>
        <time>2013-06-03T07:40:59Z</time>
      </trkpt>
      <trkpt lat="43.72572" lon="3.5502">
        <ele>71.76</ele>
        <time>2013-06-03T07:41:09Z</time>
      </trkpt>
      <trkpt lat="43.72571" lon="3.5502">
        <ele>71.27</ele>
        <time>2013-06-03T07:41:10Z</time>
      </trkpt>
      <trkpt lat="43.72568" lon="3.55021">
        <ele>71.76</ele>
        <time>2013-06-03T07:41:13Z</time>
      </trkpt>
      <trkpt lat="43.72563" lon="3.55023">
        <ele>70.79</ele>
        <time>2013-06-03T07:41:19Z</time>
      </trkpt>
      <trkpt lat="43.72559" lon="3.55024">
        <ele>71.27</ele>
        <time>2013-06-03T07:41:22Z</time>
      </trkpt>
      <trkpt lat="43.72545" lon="3.55025">
        <ele>71.27</ele>
        <time>2013-06-03T07:41:35Z</time>
      </trkpt>
      <trkpt lat="43.72538" lon="3.55027">
        <ele>71.76</ele>
        <time>2013-06-03T07:41:42Z</time>
      </trkpt>
      <trkpt lat="43.72527" lon="3.55029">
        <ele>72.72</ele>
        <time>2013-06-03T07:41:55Z</time>
      </trkpt>
      <trkpt lat="43.72522" lon="3.55028">
        <ele>72.72</ele>
        <time>2013-06-03T07:42:02Z</time>
      </trkpt>
      <trkpt lat="43.7251" lon="3.55031">
        <ele>73.2</ele>
        <time>2013-06-03T07:42:12Z</time>
      </trkpt>
      <trkpt lat="43.72507" lon="3.55033">
        <ele>73.2</ele>
        <time>2013-06-03T07:42:16Z</time>
      </trkpt>
      <trkpt lat="43.72498" lon="3.55035">
        <ele>73.2</ele>
        <time>2013-06-03T07:42:24Z</time>
      </trkpt>
      <trkpt lat="43.72491" lon="3.55037">
        <ele>74.16</ele>
        <time>2013-06-03T07:42:32Z</time>
      </trkpt>
      <trkpt lat="43.72482" lon="3.55038">
        <ele>74.64</ele>
        <time>2013-06-03T07:42:43Z</time>
      </trkpt>
      <trkpt lat="43.72476" lon="3.55039">
        <ele>76.08</ele>
        <time>2013-06-03T07:42:55Z</time>
      </trkpt>
      <trkpt lat="43.72473" lon="3.5504">
        <ele>76.56</ele>
        <time>2013-06-03T07:43:06Z</time>
      </trkpt>
      <trkpt lat="43.72473" lon="3.55041">
        <ele>75.6</ele>
        <time>2013-06-03T07:43:11Z</time>
      </trkpt>
      <trkpt lat="43.72467" lon="3.5504">
        <ele>76.08</ele>
        <time>2013-06-03T07:43:22Z</time>
      </trkpt>
      <trkpt lat="43.72459" lon="3.55043">
        <ele>75.6</ele>
        <time>2013-06-03T07:43:28Z</time>
      </trkpt>
      <trkpt lat="43.72448" lon="3.55049">
        <ele>75.6</ele>
        <time>2013-06-03T07:43:38Z</time>
      </trkpt>
      <trkpt lat="43.72445" lon="3.55049">
        <ele>75.6</ele>
        <time>2013-06-03T07:43:41Z</time>
      </trkpt>
      <trkpt lat="43.72431" lon="3.5505">
        <ele>75.6</ele>
        <time>2013-06-03T07:43:55Z</time>
      </trkpt>
      <trkpt lat="43.72426" lon="3.55044">
        <ele>77.04</ele>
        <time>2013-06-03T07:44:06Z</time>
      </trkpt>
      <trkpt lat="43.72423" lon="3.55035">
        <ele>78</ele>
        <time>2013-06-03T07:44:17Z</time>
      </trkpt>
      <trkpt lat="43.72421" lon="3.55029">
        <ele>78.48</ele>
        <time>2013-06-03T07:44:22Z</time>
      </trkpt>
      <trkpt lat="43.72421" lon="3.55027">
        <ele>78.97</ele>
        <time>2013-06-03T07:44:24Z</time>
      </trkpt>
      <trkpt lat="43.7242" lon="3.55022">
        <ele>79.93</ele>
        <time>2013-06-03T07:44:28Z</time>
      </trkpt>
      <trkpt lat="43.7242" lon="3.55019">
        <ele>79.93</ele>
        <time>2013-06-03T07:44:30Z</time>
      </trkpt>
      <trkpt lat="43.72416" lon="3.55003">
        <ele>80.89</ele>
        <time>2013-06-03T07:44:42Z</time>
      </trkpt>
      <trkpt lat="43.72415" lon="3.54998">
        <ele>80.89</ele>
        <time>2013-06-03T07:44:46Z</time>
      </trkpt>
      <trkpt lat="43.72412" lon="3.54991">
        <ele>80.89</ele>
        <time>2013-06-03T07:44:52Z</time>
      </trkpt>
      <trkpt lat="43.72411" lon="3.54978">
        <ele>81.85</ele>
        <time>2013-06-03T07:45:04Z</time>
      </trkpt>
      <trkpt lat="43.72411" lon="3.54973">
        <ele>81.85</ele>
        <time>2013-06-03T07:45:16Z</time>
      </trkpt>
      <trkpt lat="43.72411" lon="3.54972">
        <ele>81.85</ele>
        <time>2013-06-03T07:45:29Z</time>
      </trkpt>
      <trkpt lat="43.72413" lon="3.54965">
        <ele>81.85</ele>
        <time>2013-06-03T07:45:41Z</time>
      </trkpt>
      <trkpt lat="43.72413" lon="3.54964">
        <ele>82.33</ele>
        <time>2013-06-03T07:45:42Z</time>
      </trkpt>
      <trkpt lat="43.72409" lon="3.54951">
        <ele>81.37</ele>
        <time>2013-06-03T07:45:54Z</time>
      </trkpt>
      <trkpt lat="43.72405" lon="3.54943">
        <ele>82.81</ele>
        <time>2013-06-03T07:46:07Z</time>
      </trkpt>
      <trkpt lat="43.72398" lon="3.54938">
        <ele>84.73</ele>
        <time>2013-06-03T07:46:20Z</time>
      </trkpt>
      <trkpt lat="43.72387" lon="3.54942">
        <ele>86.18</ele>
        <time>2013-06-03T07:46:32Z</time>
      </trkpt>
      <trkpt lat="43.7238" lon="3.54944">
        <ele>87.62</ele>
        <time>2013-06-03T07:46:44Z</time>
      </trkpt>
      <trkpt lat="43.72376" lon="3.54944">
        <ele>89.06</ele>
        <time>2013-06-03T07:46:56Z</time>
      </trkpt>
      <trkpt lat="43.72371" lon="3.54944">
        <ele>90.5</ele>
        <time>2013-06-03T07:47:09Z</time>
      </trkpt>
      <trkpt lat="43.72366" lon="3.54948">
        <ele>91.94</ele>
        <time>2013-06-03T07:47:23Z</time>
      </trkpt>
      <trkpt lat="43.72363" lon="3.54948">
        <ele>92.9</ele>
        <time>2013-06-03T07:47:37Z</time>
      </trkpt>
      <trkpt lat="43.72358" lon="3.54945">
        <ele>94.35</ele>
        <time>2013-06-03T07:47:47Z</time>
      </trkpt>
      <trkpt lat="43.72352" lon="3.54942">
        <ele>95.79</ele>
        <time>2013-06-03T07:47:59Z</time>
      </trkpt>
      <trkpt lat="43.7235" lon="3.54949">
        <ele>96.75</ele>
        <time>2013-06-03T07:48:11Z</time>
      </trkpt>
      <trkpt lat="43.72343" lon="3.54956">
        <ele>98.67</ele>
        <time>2013-06-03T07:48:24Z</time>
      </trkpt>
      <trkpt lat="43.72344" lon="3.54955">
        <ele>98.19</ele>
        <time>2013-06-03T07:48:35Z</time>
      </trkpt>
      <trkpt lat="43.7234" lon="3.54966">
        <ele>100.11</ele>
        <time>2013-06-03T07:48:49Z</time>
      </trkpt>
      <trkpt lat="43.72335" lon="3.54971">
        <ele>101.56</ele>
        <time>2013-06-03T07:49:00Z</time>
      </trkpt>
      <trkpt lat="43.72334" lon="3.54975">
        <ele>102.04</ele>
        <time>2013-06-03T07:49:03Z</time>
      </trkpt>
      <trkpt lat="43.72332" lon="3.54984">
        <ele>103.96</ele>
        <time>2013-06-03T07:49:14Z</time>
      </trkpt>
      <trkpt lat="43.72329" lon="3.54989">
        <ele>105.88</ele>
        <time>2013-06-03T07:49:26Z</time>
      </trkpt>
      <trkpt lat="43.72324" lon="3.54985">
        <ele>107.81</ele>
        <time>2013-06-03T07:49:42Z</time>
      </trkpt>
      <trkpt lat="43.72319" lon="3.54984">
        <ele>109.73</ele>
        <time>2013-06-03T07:49:56Z</time>
      </trkpt>
      <trkpt lat="43.72316" lon="3.54984">
        <ele>111.17</ele>
        <time>2013-06-03T07:50:09Z</time>
      </trkpt>
      <trkpt lat="43.72313" lon="3.54983">
        <ele>111.65</ele>
        <time>2013-06-03T07:50:21Z</time>
      </trkpt>
      <trkpt lat="43.7231" lon="3.54983">
        <ele>113.57</ele>
        <time>2013-06-03T07:50:36Z</time>
      </trkpt>
      <trkpt lat="43.72304" lon="3.54984">
        <ele>115.5</ele>
        <time>2013-06-03T07:50:49Z</time>
      </trkpt>
      <trkpt lat="43.72299" lon="3.54985">
        <ele>117.42</ele>
        <time>2013-06-03T07:51:01Z</time>
      </trkpt>
      <trkpt lat="43.72294" lon="3.54984">
        <ele>119.34</ele>
        <time>2013-06-03T07:51:14Z</time>
      </trkpt>
      <trkpt lat="43.72291" lon="3.54986">
        <ele>120.78</ele>
        <time>2013-06-03T07:51:27Z</time>
      </trkpt>
      <trkpt lat="43.7229" lon="3.54986">
        <ele>121.74</ele>
        <time>2013-06-03T07:51:35Z</time>
      </trkpt>
      <trkpt lat="43.72286" lon="3.54987">
        <ele>123.67</ele>
        <time>2013-06-03T07:51:46Z</time>
      </trkpt>
      <trkpt lat="43.72283" lon="3.54984">
        <ele>125.59</ele>
        <time>2013-06-03T07:51:58Z</time>
      </trkpt>
      <trkpt lat="43.72278" lon="3.5498">
        <ele>127.03</ele>
        <time>2013-06-03T07:52:11Z</time>
      </trkpt>
      <trkpt lat="43.72276" lon="3.54976">
        <ele>128.95</ele>
        <time>2013-06-03T07:52:23Z</time>
      </trkpt>
      <trkpt lat="43.72274" lon="3.54973">
        <ele>130.4</ele>
        <time>2013-06-03T07:52:34Z</time>
      </trkpt>
      <trkpt lat="43.7227" lon="3.54972">
        <ele>132.8</ele>
        <time>2013-06-03T07:52:49Z</time>
      </trkpt>
      <trkpt lat="43.7227" lon="3.54972">
        <ele>132.8</ele>
        <time>2013-06-03T07:52:51Z</time>
      </trkpt>
      <trkpt lat="43.72264" lon="3.54969">
        <ele>135.2</ele>
        <time>2013-06-03T07:53:03Z</time>
      </trkpt>
      <trkpt lat="43.72258" lon="3.54973">
        <ele>136.16</ele>
        <time>2013-06-03T07:53:16Z</time>
      </trkpt>
      <trkpt lat="43.72255" lon="3.54975">
        <ele>136.64</ele>
        <time>2013-06-03T07:53:31Z</time>
      </trkpt>
      <trkpt lat="43.72251" lon="3.54975">
        <ele>139.05</ele>
        <time>2013-06-03T07:53:42Z</time>
      </trkpt>
      <trkpt lat="43.7225" lon="3.54975">
        <ele>140.97</ele>
        <time>2013-06-03T07:53:54Z</time>
      </trkpt>
      <trkpt lat="43.7225" lon="3.54971">
        <ele>140.97</ele>
        <time>2013-06-03T07:54:10Z</time>
      </trkpt>
      <trkpt lat="43.7225" lon="3.54966">
        <ele>142.89</ele>
        <time>2013-06-03T07:54:19Z</time>
      </trkpt>
      <trkpt lat="43.72245" lon="3.54967">
        <ele>143.85</ele>
        <time>2013-06-03T07:54:29Z</time>
      </trkpt>
      <trkpt lat="43.72244" lon="3.54967">
        <ele>144.34</ele>
        <time>2013-06-03T07:54:32Z</time>
      </trkpt>
      <trkpt lat="43.72238" lon="3.54967">
        <ele>145.78</ele>
        <time>2013-06-03T07:54:43Z</time>
      </trkpt>
      <trkpt lat="43.72236" lon="3.54966">
        <ele>147.7</ele>
        <time>2013-06-03T07:54:55Z</time>
      </trkpt>
      <trkpt lat="43.72233" lon="3.54965">
        <ele>148.18</ele>
        <time>2013-06-03T07:55:07Z</time>
      </trkpt>
      <trkpt lat="43.7223" lon="3.54966">
        <ele>149.14</ele>
        <time>2013-06-03T07:55:18Z</time>
      </trkpt>
      <trkpt lat="43.72229" lon="3.54966">
        <ele>150.58</ele>
        <time>2013-06-03T07:55:33Z</time>
      </trkpt>
      <trkpt lat="43.72229" lon="3.54965">
        <ele>150.1</ele>
        <time>2013-06-03T07:55:59Z</time>
      </trkpt>
      <trkpt lat="43.72229" lon="3.54965">
        <ele>150.1</ele>
        <time>2013-06-03T07:56:18Z</time>
      </trkpt>
      <trkpt lat="43.72228" lon="3.54965">
        <ele>150.58</ele>
        <time>2013-06-03T07:56:36Z</time>
      </trkpt>
      <trkpt lat="43.72221" lon="3.54965">
        <ele>153.47</ele>
        <time>2013-06-03T07:56:48Z</time>
      </trkpt>
      <trkpt lat="43.72217" lon="3.54968">
        <ele>155.39</ele>
        <time>2013-06-03T07:56:54Z</time>
      </trkpt>
      <trkpt lat="43.72212" lon="3.54969">
        <ele>157.79</ele>
        <time>2013-06-03T07:57:06Z</time>
      </trkpt>
      <trkpt lat="43.7221" lon="3.54968">
        <ele>158.27</ele>
        <time>2013-06-03T07:57:17Z</time>
      </trkpt>
      <trkpt lat="43.72208" lon="3.54966">
        <ele>158.75</ele>
        <time>2013-06-03T07:57:27Z</time>
      </trkpt>
      <trkpt lat="43.72209" lon="3.54967">
        <ele>159.24</ele>
        <time>2013-06-03T07:57:44Z</time>
      </trkpt>
      <trkpt lat="43.72206" lon="3.54962">
        <ele>160.2</ele>
        <time>2013-06-03T07:58:00Z</time>
      </trkpt>
      <trkpt lat="43.72206" lon="3.5496">
        <ele>160.68</ele>
        <time>2013-06-03T07:58:17Z</time>
      </trkpt>
      <trkpt lat="43.72206" lon="3.54952">
        <ele>162.12</ele>
        <time>2013-06-03T07:58:28Z</time>
      </trkpt>
      <trkpt lat="43.72202" lon="3.54946">
        <ele>164.52</ele>
        <time>2013-06-03T07:58:40Z</time>
      </trkpt>
      <trkpt lat="43.72195" lon="3.54947">
        <ele>167.41</ele>
        <time>2013-06-03T07:58:52Z</time>
      </trkpt>
      <trkpt lat="43.72189" lon="3.54949">
        <ele>168.85</ele>
        <time>2013-06-03T07:59:05Z</time>
      </trkpt>
      <trkpt lat="43.72188" lon="3.54948">
        <ele>169.81</ele>
        <time>2013-06-03T07:59:12Z</time>
      </trkpt>
      <trkpt lat="43.72186" lon="3.5495">
        <ele>169.81</ele>
        <time>2013-06-03T07:59:22Z</time>
      </trkpt>
      <trkpt lat="43.72186" lon="3.54948">
        <ele>169.81</ele>
        <time>2013-06-03T07:59:44Z</time>
      </trkpt>
      <trkpt lat="43.72184" lon="3.54948">
        <ele>170.77</ele>
        <time>2013-06-03T07:59:58Z</time>
      </trkpt>
      <trkpt lat="43.72184" lon="3.54948">
        <ele>171.73</ele>
        <time>2013-06-03T08:00:02Z</time>
      </trkpt>
      <trkpt lat="43.72179" lon="3.54948">
        <ele>174.14</ele>
        <time>2013-06-03T08:00:13Z</time>
      </trkpt>
      <trkpt lat="43.72177" lon="3.54943">
        <ele>176.06</ele>
        <time>2013-06-03T08:00:23Z</time>
      </trkpt>
      <trkpt lat="43.72174" lon="3.5494">
        <ele>177.5</ele>
        <time>2013-06-03T08:00:33Z</time>
      </trkpt>
      <trkpt lat="43.72172" lon="3.54936">
        <ele>177.98</ele>
        <time>2013-06-03T08:00:46Z</time>
      </trkpt>
      <trkpt lat="43.72171" lon="3.54931">
        <ele>179.42</ele>
        <time>2013-06-03T08:00:57Z</time>
      </trkpt>
      <trkpt lat="43.72172" lon="3.54924">
        <ele>181.83</ele>
        <time>2013-06-03T08:01:10Z</time>
      </trkpt>
      <trkpt lat="43.72171" lon="3.54919">
        <ele>185.19</ele>
        <time>2013-06-03T08:01:23Z</time>
      </trkpt>
      <trkpt lat="43.72169" lon="3.54917">
        <ele>186.15</ele>
        <time>2013-06-03T08:01:37Z</time>
      </trkpt>
      <trkpt lat="43.72164" lon="3.54914">
        <ele>186.63</ele>
        <time>2013-06-03T08:01:48Z</time>
      </trkpt>
      <trkpt lat="43.7216" lon="3.54915">
        <ele>187.59</ele>
        <time>2013-06-03T08:02:00Z</time>
      </trkpt>
      <trkpt lat="43.72158" lon="3.54915">
        <ele>188.08</ele>
        <time>2013-06-03T08:02:08Z</time>
      </trkpt>
      <trkpt lat="43.72158" lon="3.54917">
        <ele>187.59</ele>
        <time>2013-06-03T08:02:17Z</time>
      </trkpt>
      <trkpt lat="43.72154" lon="3.54915">
        <ele>190</ele>
        <time>2013-06-03T08:02:29Z</time>
      </trkpt>
      <trkpt lat="43.72152" lon="3.54911">
        <ele>192.4</ele>
        <time>2013-06-03T08:02:41Z</time>
      </trkpt>
      <trkpt lat="43.72151" lon="3.54906">
        <ele>193.84</ele>
        <time>2013-06-03T08:02:51Z</time>
      </trkpt>
      <trkpt lat="43.7215" lon="3.54905">
        <ele>194.32</ele>
        <time>2013-06-03T08:03:02Z</time>
      </trkpt>
      <trkpt lat="43.72149" lon="3.54905">
        <ele>194.32</ele>
        <time>2013-06-03T08:03:17Z</time>
      </trkpt>
      <trkpt lat="43.72149" lon="3.54905">
        <ele>194.32</ele>
        <time>2013-06-03T08:03:47Z</time>
      </trkpt>
      <trkpt lat="43.72149" lon="3.54903">
        <ele>194.32</ele>
        <time>2013-06-03T08:04:05Z</time>
      </trkpt>
      <trkpt lat="43.72147" lon="3.549">
        <ele>196.25</ele>
        <time>2013-06-03T08:04:17Z</time>
      </trkpt>
      <trkpt lat="43.72148" lon="3.54896">
        <ele>196.73</ele>
        <time>2013-06-03T08:04:30Z</time>
      </trkpt>
      <trkpt lat="43.72149" lon="3.54887">
        <ele>200.09</ele>
        <time>2013-06-03T08:04:40Z</time>
      </trkpt>
      <trkpt lat="43.72147" lon="3.54884">
        <ele>202.01</ele>
        <time>2013-06-03T08:04:50Z</time>
      </trkpt>
      <trkpt lat="43.72142" lon="3.54884">
        <ele>204.42</ele>
        <time>2013-06-03T08:05:02Z</time>
      </trkpt>
      <trkpt lat="43.72141" lon="3.54884">
        <ele>204.42</ele>
        <time>2013-06-03T08:05:03Z</time>
      </trkpt>
      <trkpt lat="43.72133" lon="3.54888">
        <ele>206.34</ele>
        <time>2013-06-03T08:05:16Z</time>
      </trkpt>
      <trkpt lat="43.72133" lon="3.54879">
        <ele>209.22</ele>
        <time>2013-06-03T08:05:29Z</time>
      </trkpt>
      <trkpt lat="43.72132" lon="3.5487">
        <ele>210.67</ele>
        <time>2013-06-03T08:05:40Z</time>
      </trkpt>
      <trkpt lat="43.72131" lon="3.54866">
        <ele>212.11</ele>
        <time>2013-06-03T08:05:54Z</time>
      </trkpt>
      <trkpt lat="43.72127" lon="3.54862">
        <ele>214.03</ele>
        <time>2013-06-03T08:06:08Z</time>
      </trkpt>
      <trkpt lat="43.72123" lon="3.54859">
        <ele>217.4</ele>
        <time>2013-06-03T08:06:21Z</time>
      </trkpt>
      <trkpt lat="43.72121" lon="3.54859">
        <ele>218.36</ele>
        <time>2013-06-03T08:06:31Z</time>
      </trkpt>
      <trkpt lat="43.72118" lon="3.54859">
        <ele>217.88</ele>
        <time>2013-06-03T08:06:44Z</time>
      </trkpt>
      <trkpt lat="43.72115" lon="3.5486">
        <ele>219.8</ele>
        <time>2013-06-03T08:06:55Z</time>
      </trkpt>
      <trkpt lat="43.72113" lon="3.54857">
        <ele>222.68</ele>
        <time>2013-06-03T08:07:07Z</time>
      </trkpt>
      <trkpt lat="43.72111" lon="3.54854">
        <ele>225.09</ele>
        <time>2013-06-03T08:07:17Z</time>
      </trkpt>
      <trkpt lat="43.72107" lon="3.54851">
        <ele>227.01</ele>
        <time>2013-06-03T08:07:30Z</time>
      </trkpt>
      <trkpt lat="43.72103" lon="3.54853">
        <ele>227.97</ele>
        <time>2013-06-03T08:07:46Z</time>
      </trkpt>
      <trkpt lat="43.721" lon="3.54857">
        <ele>227.01</ele>
        <time>2013-06-03T08:08:02Z</time>
      </trkpt>
      <trkpt lat="43.72098" lon="3.54859">
        <ele>227.49</ele>
        <time>2013-06-03T08:08:22Z</time>
      </trkpt>
      <trkpt lat="43.72099" lon="3.54859">
        <ele>227.97</ele>
        <time>2013-06-03T08:08:41Z</time>
      </trkpt>
      <trkpt lat="43.721" lon="3.54859">
        <ele>228.45</ele>
        <time>2013-06-03T08:09:07Z</time>
      </trkpt>
      <trkpt lat="43.72098" lon="3.54859">
        <ele>227.97</ele>
        <time>2013-06-03T08:09:26Z</time>
      </trkpt>
      <trkpt lat="43.72099" lon="3.54858">
        <ele>228.45</ele>
        <time>2013-06-03T08:09:50Z</time>
      </trkpt>
      <trkpt lat="43.72099" lon="3.54858">
        <ele>228.45</ele>
        <time>2013-06-03T08:10:16Z</time>
      </trkpt>
      <trkpt lat="43.72099" lon="3.54858">
        <ele>228.93</ele>
        <time>2013-06-03T08:10:35Z</time>
      </trkpt>
      <trkpt lat="43.72099" lon="3.54859">
        <ele>228.93</ele>
        <time>2013-06-03T08:11:00Z</time>
      </trkpt>
      <trkpt lat="43.721" lon="3.5486">
        <ele>228.45</ele>
        <time>2013-06-03T08:11:19Z</time>
      </trkpt>
      <trkpt lat="43.721" lon="3.54861">
        <ele>229.41</ele>
        <time>2013-06-03T08:11:39Z</time>
      </trkpt>
      <trkpt lat="43.721" lon="3.54861">
        <ele>228.45</ele>
        <time>2013-06-03T08:11:59Z</time>
      </trkpt>
      <trkpt lat="43.72099" lon="3.5486">
        <ele>227.49</ele>
        <time>2013-06-03T08:12:29Z</time>
      </trkpt>
      <trkpt lat="43.72099" lon="3.5486">
        <ele>229.41</ele>
        <time>2013-06-03T08:12:53Z</time>
      </trkpt>
      <trkpt lat="43.72097" lon="3.54861">
        <ele>228.93</ele>
        <time>2013-06-03T08:13:19Z</time>
      </trkpt>
      <trkpt lat="43.72097" lon="3.54861">
        <ele>228.45</ele>
        <time>2013-06-03T08:13:37Z</time>
      </trkpt>
      <trkpt lat="43.72098" lon="3.54861">
        <ele>229.41</ele>
        <time>2013-06-03T08:13:53Z</time>
      </trkpt>
      <trkpt lat="43.72094" lon="3.54867">
        <ele>229.89</ele>
        <time>2013-06-03T08:14:08Z</time>
      </trkpt>
      <trkpt lat="43.72089" lon="3.54875">
        <ele>232.3</ele>
        <time>2013-06-03T08:14:20Z</time>
      </trkpt>
      <trkpt lat="43.72084" lon="3.54883">
        <ele>233.26</ele>
        <time>2013-06-03T08:14:31Z</time>
      </trkpt>
      <trkpt lat="43.72078" lon="3.54892">
        <ele>235.18</ele>
        <time>2013-06-03T08:14:43Z</time>
      </trkpt>
      <trkpt lat="43.72073" lon="3.5489">
        <ele>237.58</ele>
        <time>2013-06-03T08:14:56Z</time>
      </trkpt>
      <trkpt lat="43.72073" lon="3.54878">
        <ele>239.51</ele>
        <time>2013-06-03T08:15:10Z</time>
      </trkpt>
      <trkpt lat="43.72072" lon="3.54873">
        <ele>240.47</ele>
        <time>2013-06-03T08:15:23Z</time>
      </trkpt>
      <trkpt lat="43.72075" lon="3.54869">
        <ele>240.47</ele>
        <time>2013-06-03T08:15:40Z</time>
      </trkpt>
      <trkpt lat="43.72073" lon="3.54864">
        <ele>241.43</ele>
        <time>2013-06-03T08:15:50Z</time>
      </trkpt>
      <trkpt lat="43.72072" lon="3.54863">
        <ele>242.39</ele>
        <time>2013-06-03T08:16:04Z</time>
      </trkpt>
      <trkpt lat="43.72072" lon="3.54862">
        <ele>242.39</ele>
        <time>2013-06-03T08:16:16Z</time>
      </trkpt>
      <trkpt lat="43.7207" lon="3.54854">
        <ele>244.31</ele>
        <time>2013-06-03T08:16:30Z</time>
      </trkpt>
      <trkpt lat="43.72068" lon="3.54848">
        <ele>246.23</ele>
        <time>2013-06-03T08:16:44Z</time>
      </trkpt>
      <trkpt lat="43.7206" lon="3.5484">
        <ele>248.64</ele>
        <time>2013-06-03T08:16:57Z</time>
      </trkpt>
      <trkpt lat="43.72051" lon="3.54838">
        <ele>250.56</ele>
        <time>2013-06-03T08:17:10Z</time>
      </trkpt>
      <trkpt lat="43.72051" lon="3.54838">
        <ele>250.56</ele>
        <time>2013-06-03T08:17:11Z</time>
      </trkpt>
      <trkpt lat="43.72043" lon="3.54833">
        <ele>251.04</ele>
        <time>2013-06-03T08:17:23Z</time>
      </trkpt>
      <trkpt lat="43.72035" lon="3.54827">
        <ele>253.93</ele>
        <time>2013-06-03T08:17:34Z</time>
      </trkpt>
      <trkpt lat="43.72032" lon="3.54825">
        <ele>252.96</ele>
        <time>2013-06-03T08:17:46Z</time>
      </trkpt>
      <trkpt lat="43.72031" lon="3.54822">
        <ele>253.93</ele>
        <time>2013-06-03T08:17:56Z</time>
      </trkpt>
      <trkpt lat="43.7203" lon="3.54823">
        <ele>253.44</ele>
        <time>2013-06-03T08:18:14Z</time>
      </trkpt>
      <trkpt lat="43.7203" lon="3.54823">
        <ele>253.93</ele>
        <time>2013-06-03T08:18:38Z</time>
      </trkpt>
      <trkpt lat="43.72026" lon="3.54821">
        <ele>253.44</ele>
        <time>2013-06-03T08:18:48Z</time>
      </trkpt>
      <trkpt lat="43.72024" lon="3.54818">
        <ele>254.89</ele>
        <time>2013-06-03T08:19:00Z</time>
      </trkpt>
      <trkpt lat="43.72024" lon="3.54819">
        <ele>254.41</ele>
        <time>2013-06-03T08:19:25Z</time>
      </trkpt>
      <trkpt lat="43.72022" lon="3.54814">
        <ele>255.85</ele>
        <time>2013-06-03T08:19:38Z</time>
      </trkpt>
      <trkpt lat="43.72019" lon="3.5481">
        <ele>256.81</ele>
        <time>2013-06-03T08:19:44Z</time>
      </trkpt>
      <trkpt lat="43.72015" lon="3.54797">
        <ele>258.73</ele>
        <time>2013-06-03T08:19:58Z</time>
      </trkpt>
      <trkpt lat="43.72012" lon="3.54789">
        <ele>259.69</ele>
        <time>2013-06-03T08:20:10Z</time>
      </trkpt>
      <trkpt lat="43.72009" lon="3.54785">
        <ele>260.17</ele>
        <time>2013-06-03T08:20:23Z</time>
      </trkpt>
      <trkpt lat="43.72004" lon="3.54774">
        <ele>261.14</ele>
        <time>2013-06-03T08:20:36Z</time>
      </trkpt>
      <trkpt lat="43.71999" lon="3.54764">
        <ele>262.1</ele>
        <time>2013-06-03T08:20:48Z</time>
      </trkpt>
      <trkpt lat="43.71995" lon="3.54754">
        <ele>264.5</ele>
        <time>2013-06-03T08:21:00Z</time>
      </trkpt>
      <trkpt lat="43.71999" lon="3.54749">
        <ele>266.42</ele>
        <time>2013-06-03T08:21:14Z</time>
      </trkpt>
      <trkpt lat="43.72002" lon="3.5475">
        <ele>267.38</ele>
        <time>2013-06-03T08:21:27Z</time>
      </trkpt>
      <trkpt lat="43.72003" lon="3.54751">
        <ele>268.35</ele>
        <time>2013-06-03T08:21:40Z</time>
      </trkpt>
      <trkpt lat="43.72007" lon="3.54745">
        <ele>270.75</ele>
        <time>2013-06-03T08:21:52Z</time>
      </trkpt>
      <trkpt lat="43.72008" lon="3.54738">
        <ele>271.71</ele>
        <time>2013-06-03T08:22:05Z</time>
      </trkpt>
      <trkpt lat="43.72011" lon="3.54731">
        <ele>273.63</ele>
        <time>2013-06-03T08:22:18Z</time>
      </trkpt>
      <trkpt lat="43.72009" lon="3.5472">
        <ele>276.04</ele>
        <time>2013-06-03T08:22:31Z</time>
      </trkpt>
      <trkpt lat="43.7201" lon="3.54713">
        <ele>277.48</ele>
        <time>2013-06-03T08:22:42Z</time>
      </trkpt>
      <trkpt lat="43.72014" lon="3.54715">
        <ele>278.44</ele>
        <time>2013-06-03T08:22:54Z</time>
      </trkpt>
      <trkpt lat="43.72015" lon="3.54714">
        <ele>279.4</ele>
        <time>2013-06-03T08:23:12Z</time>
      </trkpt>
      <trkpt lat="43.72018" lon="3.54706">
        <ele>281.32</ele>
        <time>2013-06-03T08:23:24Z</time>
      </trkpt>
      <trkpt lat="43.72024" lon="3.54705">
        <ele>282.77</ele>
        <time>2013-06-03T08:23:35Z</time>
      </trkpt>
      <trkpt lat="43.7203" lon="3.54704">
        <ele>284.21</ele>
        <time>2013-06-03T08:23:47Z</time>
      </trkpt>
      <trkpt lat="43.72031" lon="3.54701">
        <ele>285.17</ele>
        <time>2013-06-03T08:23:58Z</time>
      </trkpt>
      <trkpt lat="43.72036" lon="3.54699">
        <ele>285.65</ele>
        <time>2013-06-03T08:24:13Z</time>
      </trkpt>
      <trkpt lat="43.72042" lon="3.547">
        <ele>288.05</ele>
        <time>2013-06-03T08:24:28Z</time>
      </trkpt>
      <trkpt lat="43.72047" lon="3.54696">
        <ele>289.01</ele>
        <time>2013-06-03T08:24:36Z</time>
      </trkpt>
      <trkpt lat="43.72058" lon="3.54692">
        <ele>289.97</ele>
        <time>2013-06-03T08:24:49Z</time>
      </trkpt>
      <trkpt lat="43.72069" lon="3.54694">
        <ele>290.94</ele>
        <time>2013-06-03T08:25:04Z</time>
      </trkpt>
      <trkpt lat="43.72076" lon="3.54695">
        <ele>291.9</ele>
        <time>2013-06-03T08:25:16Z</time>
      </trkpt>
      <trkpt lat="43.72084" lon="3.54695">
        <ele>292.86</ele>
        <time>2013-06-03T08:25:29Z</time>
      </trkpt>
      <trkpt lat="43.72086" lon="3.54691">
        <ele>294.3</ele>
        <time>2013-06-03T08:25:47Z</time>
      </trkpt>
      <trkpt lat="43.7209" lon="3.54687">
        <ele>294.78</ele>
        <time>2013-06-03T08:26:01Z</time>
      </trkpt>
      <trkpt lat="43.72093" lon="3.54687">
        <ele>296.22</ele>
        <time>2013-06-03T08:26:16Z</time>
      </trkpt>
      <trkpt lat="43.72093" lon="3.54684">
        <ele>295.26</ele>
        <time>2013-06-03T08:26:33Z</time>
      </trkpt>
      <trkpt lat="43.72096" lon="3.54685">
        <ele>295.26</ele>
        <time>2013-06-03T08:26:45Z</time>
      </trkpt>
      <trkpt lat="43.72098" lon="3.54684">
        <ele>293.82</ele>
        <time>2013-06-03T08:26:59Z</time>
      </trkpt>
      <trkpt lat="43.72105" lon="3.54685">
        <ele>293.82</ele>
        <time>2013-06-03T08:27:16Z</time>
      </trkpt>
      <trkpt lat="43.72109" lon="3.54683">
        <ele>295.26</ele>
        <time>2013-06-03T08:27:31Z</time>
      </trkpt>
      <trkpt lat="43.72113" lon="3.54678">
        <ele>295.74</ele>
        <time>2013-06-03T08:27:41Z</time>
      </trkpt>
      <trkpt lat="43.72122" lon="3.54673">
        <ele>297.67</ele>
        <time>2013-06-03T08:27:54Z</time>
      </trkpt>
      <trkpt lat="43.72124" lon="3.54668">
        <ele>297.67</ele>
        <time>2013-06-03T08:28:12Z</time>
      </trkpt>
      <trkpt lat="43.72127" lon="3.54665">
        <ele>299.11</ele>
        <time>2013-06-03T08:28:25Z</time>
      </trkpt>
      <trkpt lat="43.72131" lon="3.54663">
        <ele>299.59</ele>
        <time>2013-06-03T08:28:38Z</time>
      </trkpt>
      <trkpt lat="43.72134" lon="3.54658">
        <ele>300.07</ele>
        <time>2013-06-03T08:28:50Z</time>
      </trkpt>
      <trkpt lat="43.72138" lon="3.54649">
        <ele>301.03</ele>
        <time>2013-06-03T08:29:05Z</time>
      </trkpt>
      <trkpt lat="43.7214" lon="3.54638">
        <ele>302.95</ele>
        <time>2013-06-03T08:29:19Z</time>
      </trkpt>
      <trkpt lat="43.72139" lon="3.54628">
        <ele>304.88</ele>
        <time>2013-06-03T08:29:34Z</time>
      </trkpt>
      <trkpt lat="43.72137" lon="3.54621">
        <ele>306.32</ele>
        <time>2013-06-03T08:29:47Z</time>
      </trkpt>
      <trkpt lat="43.72136" lon="3.54621">
        <ele>306.32</ele>
        <time>2013-06-03T08:29:52Z</time>
      </trkpt>
      <trkpt lat="43.72136" lon="3.54615">
        <ele>307.76</ele>
        <time>2013-06-03T08:30:03Z</time>
      </trkpt>
      <trkpt lat="43.72136" lon="3.54606">
        <ele>309.2</ele>
        <time>2013-06-03T08:30:19Z</time>
      </trkpt>
      <trkpt lat="43.72136" lon="3.54601">
        <ele>310.16</ele>
        <time>2013-06-03T08:30:33Z</time>
      </trkpt>
      <trkpt lat="43.72136" lon="3.54597">
        <ele>310.64</ele>
        <time>2013-06-03T08:30:55Z</time>
      </trkpt>
      <trkpt lat="43.72136" lon="3.54595">
        <ele>311.12</ele>
        <time>2013-06-03T08:31:10Z</time>
      </trkpt>
      <trkpt lat="43.72136" lon="3.54595">
        <ele>310.64</ele>
        <time>2013-06-03T08:31:29Z</time>
      </trkpt>
      <trkpt lat="43.72138" lon="3.54589">
        <ele>312.09</ele>
        <time>2013-06-03T08:31:37Z</time>
      </trkpt>
      <trkpt lat="43.72139" lon="3.54583">
        <ele>310.64</ele>
        <time>2013-06-03T08:31:49Z</time>
      </trkpt>
      <trkpt lat="43.72138" lon="3.54576">
        <ele>311.12</ele>
        <time>2013-06-03T08:32:02Z</time>
      </trkpt>
      <trkpt lat="43.72132" lon="3.54571">
        <ele>312.09</ele>
        <time>2013-06-03T08:32:16Z</time>
      </trkpt>
      <trkpt lat="43.72131" lon="3.54572">
        <ele>313.05</ele>
        <time>2013-06-03T08:32:33Z</time>
      </trkpt>
      <trkpt lat="43.72131" lon="3.54571">
        <ele>313.05</ele>
        <time>2013-06-03T08:32:48Z</time>
      </trkpt>
      <trkpt lat="43.7213" lon="3.54571">
        <ele>313.53</ele>
        <time>2013-06-03T08:33:02Z</time>
      </trkpt>
      <trkpt lat="43.72129" lon="3.5457">
        <ele>314.49</ele>
        <time>2013-06-03T08:33:21Z</time>
      </trkpt>
      <trkpt lat="43.72128" lon="3.5457">
        <ele>312.57</ele>
        <time>2013-06-03T08:33:32Z</time>
      </trkpt>
      <trkpt lat="43.72127" lon="3.54569">
        <ele>314.01</ele>
        <time>2013-06-03T08:33:55Z</time>
      </trkpt>
      <trkpt lat="43.72126" lon="3.54568">
        <ele>314.97</ele>
        <time>2013-06-03T08:34:09Z</time>
      </trkpt>
      <trkpt lat="43.72125" lon="3.54568">
        <ele>314.97</ele>
        <time>2013-06-03T08:34:26Z</time>
      </trkpt>
      <trkpt lat="43.72125" lon="3.54568">
        <ele>314.49</ele>
        <time>2013-06-03T08:34:44Z</time>
      </trkpt>
      <trkpt lat="43.72124" lon="3.54568">
        <ele>314.97</ele>
        <time>2013-06-03T08:35:05Z</time>
      </trkpt>
      <trkpt lat="43.72124" lon="3.54568">
        <ele>315.93</ele>
        <time>2013-06-03T08:35:18Z</time>
      </trkpt>
      <trkpt lat="43.72124" lon="3.54568">
        <ele>314.49</ele>
        <time>2013-06-03T08:35:39Z</time>
      </trkpt>
      <trkpt lat="43.72124" lon="3.54568">
        <ele>314.01</ele>
        <time>2013-06-03T08:35:58Z</time>
      </trkpt>
      <trkpt lat="43.72124" lon="3.54568">
        <ele>315.93</ele>
        <time>2013-06-03T08:36:09Z</time>
      </trkpt>
      <trkpt lat="43.72124" lon="3.54567">
        <ele>315.45</ele>
        <time>2013-06-03T08:36:27Z</time>
      </trkpt>
      <trkpt lat="43.72123" lon="3.54567">
        <ele>313.53</ele>
        <time>2013-06-03T08:36:52Z</time>
      </trkpt>
      <trkpt lat="43.72123" lon="3.54568">
        <ele>313.53</ele>
        <time>2013-06-03T08:37:13Z</time>
      </trkpt>
      <trkpt lat="43.72123" lon="3.54568">
        <ele>313.05</ele>
        <time>2013-06-03T08:37:43Z</time>
      </trkpt>
      <trkpt lat="43.72123" lon="3.54568">
        <ele>312.57</ele>
        <time>2013-06-03T08:37:50Z</time>
      </trkpt>
      <trkpt lat="43.72123" lon="3.54568">
        <ele>312.09</ele>
        <time>2013-06-03T08:37:57Z</time>
      </trkpt>
      <trkpt lat="43.72123" lon="3.54568">
        <ele>315.45</ele>
        <time>2013-06-03T08:38:20Z</time>
      </trkpt>
      <trkpt lat="43.72123" lon="3.54568">
        <ele>314.01</ele>
        <time>2013-06-03T08:38:49Z</time>
      </trkpt>
      <trkpt lat="43.72123" lon="3.54568">
        <ele>313.05</ele>
        <time>2013-06-03T08:39:21Z</time>
      </trkpt>
      <trkpt lat="43.72123" lon="3.54568">
        <ele>314.01</ele>
        <time>2013-06-03T08:39:45Z</time>
      </trkpt>
      <trkpt lat="43.72123" lon="3.54568">
        <ele>314.01</ele>
        <time>2013-06-03T08:40:12Z</time>
      </trkpt>
      <trkpt lat="43.72122" lon="3.54567">
        <ele>315.45</ele>
        <time>2013-06-03T08:40:32Z</time>
      </trkpt>
      <trkpt lat="43.72123" lon="3.54567">
        <ele>314.97</ele>
        <time>2013-06-03T08:40:49Z</time>
      </trkpt>
      <trkpt lat="43.72123" lon="3.54566">
        <ele>315.45</ele>
        <time>2013-06-03T08:41:12Z</time>
      </trkpt>
      <trkpt lat="43.72122" lon="3.54567">
        <ele>314.49</ele>
        <time>2013-06-03T08:41:26Z</time>
      </trkpt>
      <trkpt lat="43.72122" lon="3.54567">
        <ele>315.45</ele>
        <time>2013-06-03T08:41:40Z</time>
      </trkpt>
      <trkpt lat="43.72122" lon="3.54567">
        <ele>314.01</ele>
        <time>2013-06-03T08:42:06Z</time>
      </trkpt>
      <trkpt lat="43.72118" lon="3.54565">
        <ele>314.97</ele>
        <time>2013-06-03T08:42:19Z</time>
      </trkpt>
      <trkpt lat="43.72114" lon="3.54556">
        <ele>314.49</ele>
        <time>2013-06-03T08:42:29Z</time>
      </trkpt>
      <trkpt lat="43.72109" lon="3.54547">
        <ele>314.01</ele>
        <time>2013-06-03T08:42:37Z</time>
      </trkpt>
      <trkpt lat="43.721" lon="3.54538">
        <ele>315.45</ele>
        <time>2013-06-03T08:42:49Z</time>
      </trkpt>
      <trkpt lat="43.72099" lon="3.54531">
        <ele>316.89</ele>
        <time>2013-06-03T08:42:59Z</time>
      </trkpt>
      <trkpt lat="43.72096" lon="3.5452">
        <ele>317.37</ele>
        <time>2013-06-03T08:43:12Z</time>
      </trkpt>
      <trkpt lat="43.72093" lon="3.54507">
        <ele>317.37</ele>
        <time>2013-06-03T08:43:25Z</time>
      </trkpt>
      <trkpt lat="43.72091" lon="3.54494">
        <ele>318.81</ele>
        <time>2013-06-03T08:43:36Z</time>
      </trkpt>
      <trkpt lat="43.72089" lon="3.54486">
        <ele>319.3</ele>
        <time>2013-06-03T08:43:48Z</time>
      </trkpt>
      <trkpt lat="43.72086" lon="3.54475">
        <ele>320.26</ele>
        <time>2013-06-03T08:44:00Z</time>
      </trkpt>
      <trkpt lat="43.72084" lon="3.5446">
        <ele>321.7</ele>
        <time>2013-06-03T08:44:16Z</time>
      </trkpt>
      <trkpt lat="43.72081" lon="3.54448">
        <ele>322.18</ele>
        <time>2013-06-03T08:44:30Z</time>
      </trkpt>
      <trkpt lat="43.72079" lon="3.5443">
        <ele>324.1</ele>
        <time>2013-06-03T08:44:44Z</time>
      </trkpt>
      <trkpt lat="43.72077" lon="3.54414">
        <ele>325.06</ele>
        <time>2013-06-03T08:44:59Z</time>
      </trkpt>
      <trkpt lat="43.72075" lon="3.54398">
        <ele>326.5</ele>
        <time>2013-06-03T08:45:12Z</time>
      </trkpt>
      <trkpt lat="43.72071" lon="3.5439">
        <ele>327.47</ele>
        <time>2013-06-03T08:45:23Z</time>
      </trkpt>
      <trkpt lat="43.72068" lon="3.54382">
        <ele>328.91</ele>
        <time>2013-06-03T08:45:32Z</time>
      </trkpt>
      <trkpt lat="43.72066" lon="3.54375">
        <ele>328.91</ele>
        <time>2013-06-03T08:45:43Z</time>
      </trkpt>
      <trkpt lat="43.72061" lon="3.54366">
        <ele>329.87</ele>
        <time>2013-06-03T08:45:55Z</time>
      </trkpt>
      <trkpt lat="43.72059" lon="3.54355">
        <ele>329.87</ele>
        <time>2013-06-03T08:46:07Z</time>
      </trkpt>
      <trkpt lat="43.72057" lon="3.54349">
        <ele>331.31</ele>
        <time>2013-06-03T08:46:12Z</time>
      </trkpt>
      <trkpt lat="43.72053" lon="3.54333">
        <ele>332.75</ele>
        <time>2013-06-03T08:46:27Z</time>
      </trkpt>
      <trkpt lat="43.72048" lon="3.54322">
        <ele>332.75</ele>
        <time>2013-06-03T08:46:39Z</time>
      </trkpt>
      <trkpt lat="43.72044" lon="3.54313">
        <ele>334.2</ele>
        <time>2013-06-03T08:46:51Z</time>
      </trkpt>
      <trkpt lat="43.72042" lon="3.543">
        <ele>334.68</ele>
        <time>2013-06-03T08:47:05Z</time>
      </trkpt>
      <trkpt lat="43.72038" lon="3.54291">
        <ele>335.16</ele>
        <time>2013-06-03T08:47:15Z</time>
      </trkpt>
      <trkpt lat="43.72033" lon="3.5428">
        <ele>336.12</ele>
        <time>2013-06-03T08:47:29Z</time>
      </trkpt>
      <trkpt lat="43.72027" lon="3.54265">
        <ele>338.04</ele>
        <time>2013-06-03T08:47:43Z</time>
      </trkpt>
      <trkpt lat="43.72022" lon="3.54251">
        <ele>338.52</ele>
        <time>2013-06-03T08:47:58Z</time>
      </trkpt>
      <trkpt lat="43.72015" lon="3.54238">
        <ele>338.52</ele>
        <time>2013-06-03T08:48:13Z</time>
      </trkpt>
      <trkpt lat="43.72007" lon="3.54226">
        <ele>338.04</ele>
        <time>2013-06-03T08:48:26Z</time>
      </trkpt>
      <trkpt lat="43.72" lon="3.54222">
        <ele>338.52</ele>
        <time>2013-06-03T08:48:32Z</time>
      </trkpt>
      <trkpt lat="43.71997" lon="3.54219">
        <ele>338.04</ele>
        <time>2013-06-03T08:48:36Z</time>
      </trkpt>
      <trkpt lat="43.71992" lon="3.54217">
        <ele>337.56</ele>
        <time>2013-06-03T08:48:41Z</time>
      </trkpt>
      <trkpt lat="43.71989" lon="3.54213">
        <ele>337.56</ele>
        <time>2013-06-03T08:48:45Z</time>
      </trkpt>
      <trkpt lat="43.71987" lon="3.54211">
        <ele>337.56</ele>
        <time>2013-06-03T08:48:47Z</time>
      </trkpt>
      <trkpt lat="43.71979" lon="3.54206">
        <ele>337.08</ele>
        <time>2013-06-03T08:48:59Z</time>
      </trkpt>
      <trkpt lat="43.71973" lon="3.542">
        <ele>335.64</ele>
        <time>2013-06-03T08:49:11Z</time>
      </trkpt>
      <trkpt lat="43.71971" lon="3.54197">
        <ele>335.64</ele>
        <time>2013-06-03T08:49:14Z</time>
      </trkpt>
      <trkpt lat="43.7197" lon="3.54195">
        <ele>335.16</ele>
        <time>2013-06-03T08:49:16Z</time>
      </trkpt>
      <trkpt lat="43.71967" lon="3.5419">
        <ele>334.68</ele>
        <time>2013-06-03T08:49:21Z</time>
      </trkpt>
      <trkpt lat="43.71964" lon="3.54178">
        <ele>335.16</ele>
        <time>2013-06-03T08:49:34Z</time>
      </trkpt>
      <trkpt lat="43.71964" lon="3.54177">
        <ele>334.68</ele>
        <time>2013-06-03T08:49:35Z</time>
      </trkpt>
      <trkpt lat="43.71968" lon="3.54165">
        <ele>337.56</ele>
        <time>2013-06-03T08:49:49Z</time>
      </trkpt>
      <trkpt lat="43.71972" lon="3.54159">
        <ele>338.52</ele>
        <time>2013-06-03T08:50:03Z</time>
      </trkpt>
      <trkpt lat="43.71974" lon="3.54153">
        <ele>339.48</ele>
        <time>2013-06-03T08:50:10Z</time>
      </trkpt>
      <trkpt lat="43.71976" lon="3.54148">
        <ele>339.96</ele>
        <time>2013-06-03T08:50:14Z</time>
      </trkpt>
      <trkpt lat="43.7198" lon="3.54139">
        <ele>340.92</ele>
        <time>2013-06-03T08:50:26Z</time>
      </trkpt>
      <trkpt lat="43.71983" lon="3.54131">
        <ele>341.89</ele>
        <time>2013-06-03T08:50:38Z</time>
      </trkpt>
      <trkpt lat="43.71986" lon="3.5412">
        <ele>341.89</ele>
        <time>2013-06-03T08:50:48Z</time>
      </trkpt>
      <trkpt lat="43.71991" lon="3.54113">
        <ele>341.89</ele>
        <time>2013-06-03T08:50:57Z</time>
      </trkpt>
      <trkpt lat="43.71994" lon="3.541">
        <ele>343.33</ele>
        <time>2013-06-03T08:51:11Z</time>
      </trkpt>
      <trkpt lat="43.72" lon="3.5409">
        <ele>343.81</ele>
        <time>2013-06-03T08:51:23Z</time>
      </trkpt>
      <trkpt lat="43.72007" lon="3.54077">
        <ele>345.25</ele>
        <time>2013-06-03T08:51:35Z</time>
      </trkpt>
      <trkpt lat="43.72011" lon="3.54064">
        <ele>344.77</ele>
        <time>2013-06-03T08:51:46Z</time>
      </trkpt>
      <trkpt lat="43.72024" lon="3.54053">
        <ele>347.17</ele>
        <time>2013-06-03T08:52:01Z</time>
      </trkpt>
      <trkpt lat="43.72035" lon="3.54043">
        <ele>348.13</ele>
        <time>2013-06-03T08:52:13Z</time>
      </trkpt>
      <trkpt lat="43.72041" lon="3.54037">
        <ele>348.62</ele>
        <time>2013-06-03T08:52:22Z</time>
      </trkpt>
      <trkpt lat="43.72045" lon="3.54035">
        <ele>350.54</ele>
        <time>2013-06-03T08:52:27Z</time>
      </trkpt>
      <trkpt lat="43.72049" lon="3.54032">
        <ele>349.58</ele>
        <time>2013-06-03T08:52:31Z</time>
      </trkpt>
      <trkpt lat="43.72053" lon="3.54025">
        <ele>350.06</ele>
        <time>2013-06-03T08:52:37Z</time>
      </trkpt>
      <trkpt lat="43.7206" lon="3.54015">
        <ele>350.54</ele>
        <time>2013-06-03T08:52:49Z</time>
      </trkpt>
      <trkpt lat="43.72064" lon="3.54012">
        <ele>351.02</ele>
        <time>2013-06-03T08:52:54Z</time>
      </trkpt>
      <trkpt lat="43.72067" lon="3.5401">
        <ele>351.5</ele>
        <time>2013-06-03T08:52:58Z</time>
      </trkpt>
      <trkpt lat="43.7207" lon="3.5401">
        <ele>351.98</ele>
        <time>2013-06-03T08:53:01Z</time>
      </trkpt>
      <trkpt lat="43.72079" lon="3.54008">
        <ele>351.98</ele>
        <time>2013-06-03T08:53:10Z</time>
      </trkpt>
      <trkpt lat="43.72092" lon="3.54004">
        <ele>353.42</ele>
        <time>2013-06-03T08:53:23Z</time>
      </trkpt>
      <trkpt lat="43.72099" lon="3.53996">
        <ele>353.42</ele>
        <time>2013-06-03T08:53:35Z</time>
      </trkpt>
      <trkpt lat="43.72107" lon="3.53997">
        <ele>354.38</ele>
        <time>2013-06-03T08:53:42Z</time>
      </trkpt>
      <trkpt lat="43.72119" lon="3.53988">
        <ele>354.38</ele>
        <time>2013-06-03T08:53:57Z</time>
      </trkpt>
      <trkpt lat="43.72121" lon="3.53988">
        <ele>354.86</ele>
        <time>2013-06-03T08:53:59Z</time>
      </trkpt>
      <trkpt lat="43.72123" lon="3.53986">
        <ele>355.34</ele>
        <time>2013-06-03T08:54:01Z</time>
      </trkpt>
      <trkpt lat="43.72129" lon="3.53981">
        <ele>354.86</ele>
        <time>2013-06-03T08:54:13Z</time>
      </trkpt>
      <trkpt lat="43.72131" lon="3.53979">
        <ele>354.86</ele>
        <time>2013-06-03T08:54:36Z</time>
      </trkpt>
      <trkpt lat="43.72133" lon="3.53976">
        <ele>355.34</ele>
        <time>2013-06-03T08:54:51Z</time>
      </trkpt>
      <trkpt lat="43.72133" lon="3.53977">
        <ele>354.86</ele>
        <time>2013-06-03T08:55:07Z</time>
      </trkpt>
      <trkpt lat="43.72133" lon="3.53976">
        <ele>354.86</ele>
        <time>2013-06-03T08:55:23Z</time>
      </trkpt>
      <trkpt lat="43.72133" lon="3.53976">
        <ele>355.34</ele>
        <time>2013-06-03T08:55:47Z</time>
      </trkpt>
      <trkpt lat="43.72133" lon="3.53975">
        <ele>355.34</ele>
        <time>2013-06-03T08:56:02Z</time>
      </trkpt>
      <trkpt lat="43.72133" lon="3.53975">
        <ele>351.02</ele>
        <time>2013-06-03T08:56:09Z</time>
      </trkpt>
      <trkpt lat="43.72133" lon="3.53975">
        <ele>354.38</ele>
        <time>2013-06-03T08:56:10Z</time>
      </trkpt>
      <trkpt lat="43.72133" lon="3.53974">
        <ele>351.02</ele>
        <time>2013-06-03T08:56:12Z</time>
      </trkpt>
      <trkpt lat="43.72133" lon="3.53974">
        <ele>352.46</ele>
        <time>2013-06-03T08:56:13Z</time>
      </trkpt>
      <trkpt lat="43.72133" lon="3.53974">
        <ele>357.27</ele>
        <time>2013-06-03T08:56:14Z</time>
      </trkpt>
      <trkpt lat="43.72133" lon="3.53974">
        <ele>354.86</ele>
        <time>2013-06-03T08:56:15Z</time>
      </trkpt>
      <trkpt lat="43.72133" lon="3.53973">
        <ele>351.5</ele>
        <time>2013-06-03T08:56:20Z</time>
      </trkpt>
      <trkpt lat="43.72132" lon="3.53973">
        <ele>354.86</ele>
        <time>2013-06-03T08:56:22Z</time>
      </trkpt>
      <trkpt lat="43.72132" lon="3.53973">
        <ele>350.54</ele>
        <time>2013-06-03T08:56:23Z</time>
      </trkpt>
      <trkpt lat="43.72132" lon="3.53973">
        <ele>354.86</ele>
        <time>2013-06-03T08:56:24Z</time>
      </trkpt>
      <trkpt lat="43.72132" lon="3.53973">
        <ele>350.06</ele>
        <time>2013-06-03T08:56:28Z</time>
      </trkpt>
      <trkpt lat="43.72132" lon="3.53973">
        <ele>355.34</ele>
        <time>2013-06-03T08:56:29Z</time>
      </trkpt>
      <trkpt lat="43.72132" lon="3.53972">
        <ele>351.5</ele>
        <time>2013-06-03T08:56:40Z</time>
      </trkpt>
      <trkpt lat="43.72132" lon="3.53972">
        <ele>355.34</ele>
        <time>2013-06-03T08:56:41Z</time>
      </trkpt>
      <trkpt lat="43.72132" lon="3.53972">
        <ele>347.65</ele>
        <time>2013-06-03T08:56:45Z</time>
      </trkpt>
      <trkpt lat="43.72132" lon="3.53972">
        <ele>357.75</ele>
        <time>2013-06-03T08:56:46Z</time>
      </trkpt>
      <trkpt lat="43.72132" lon="3.53972">
        <ele>351.98</ele>
        <time>2013-06-03T08:56:48Z</time>
      </trkpt>
      <trkpt lat="43.72132" lon="3.53972">
        <ele>354.38</ele>
        <time>2013-06-03T08:56:49Z</time>
      </trkpt>
      <trkpt lat="43.72132" lon="3.53972">
        <ele>355.83</ele>
        <time>2013-06-03T08:56:51Z</time>
      </trkpt>
      <trkpt lat="43.72132" lon="3.53971">
        <ele>351.5</ele>
        <time>2013-06-03T08:56:57Z</time>
      </trkpt>
      <trkpt lat="43.72132" lon="3.53971">
        <ele>355.83</ele>
        <time>2013-06-03T08:56:58Z</time>
      </trkpt>
      <trkpt lat="43.72132" lon="3.53971">
        <ele>351.5</ele>
        <time>2013-06-03T08:56:59Z</time>
      </trkpt>
      <trkpt lat="43.72132" lon="3.53971">
        <ele>358.71</ele>
        <time>2013-06-03T08:57:00Z</time>
      </trkpt>
      <trkpt lat="43.72132" lon="3.53971">
        <ele>354.86</ele>
        <time>2013-06-03T08:57:01Z</time>
      </trkpt>
      <trkpt lat="43.72132" lon="3.53971">
        <ele>358.71</ele>
        <time>2013-06-03T08:57:05Z</time>
      </trkpt>
      <trkpt lat="43.72132" lon="3.53971">
        <ele>353.9</ele>
        <time>2013-06-03T08:57:06Z</time>
      </trkpt>
      <trkpt lat="43.72132" lon="3.53971">
        <ele>354.38</ele>
        <time>2013-06-03T08:57:07Z</time>
      </trkpt>
      <trkpt lat="43.72132" lon="3.53971">
        <ele>358.71</ele>
        <time>2013-06-03T08:57:16Z</time>
      </trkpt>
      <trkpt lat="43.72132" lon="3.53971">
        <ele>355.34</ele>
        <time>2013-06-03T08:57:17Z</time>
      </trkpt>
      <trkpt lat="43.72132" lon="3.5397">
        <ele>360.15</ele>
        <time>2013-06-03T08:57:20Z</time>
      </trkpt>
      <trkpt lat="43.72132" lon="3.5397">
        <ele>355.83</ele>
        <time>2013-06-03T08:57:21Z</time>
      </trkpt>
      <trkpt lat="43.72132" lon="3.5397">
        <ele>351.02</ele>
        <time>2013-06-03T08:57:36Z</time>
      </trkpt>
      <trkpt lat="43.72132" lon="3.5397">
        <ele>358.23</ele>
        <time>2013-06-03T08:57:37Z</time>
      </trkpt>
      <trkpt lat="43.72132" lon="3.5397">
        <ele>352.94</ele>
        <time>2013-06-03T08:57:38Z</time>
      </trkpt>
      <trkpt lat="43.72132" lon="3.5397">
        <ele>358.23</ele>
        <time>2013-06-03T08:57:39Z</time>
      </trkpt>
      <trkpt lat="43.72132" lon="3.5397">
        <ele>353.9</ele>
        <time>2013-06-03T08:57:41Z</time>
      </trkpt>
      <trkpt lat="43.72132" lon="3.5397">
        <ele>357.75</ele>
        <time>2013-06-03T08:57:42Z</time>
      </trkpt>
      <trkpt lat="43.72132" lon="3.5397">
        <ele>354.38</ele>
        <time>2013-06-03T08:57:45Z</time>
      </trkpt>
      <trkpt lat="43.72132" lon="3.5397">
        <ele>359.67</ele>
        <time>2013-06-03T08:57:46Z</time>
      </trkpt>
      <trkpt lat="43.72132" lon="3.5397">
        <ele>352.46</ele>
        <time>2013-06-03T08:57:47Z</time>
      </trkpt>
      <trkpt lat="43.72132" lon="3.5397">
        <ele>356.79</ele>
        <time>2013-06-03T08:57:48Z</time>
      </trkpt>
      <trkpt lat="43.72132" lon="3.5397">
        <ele>352.94</ele>
        <time>2013-06-03T08:57:56Z</time>
      </trkpt>
      <trkpt lat="43.72132" lon="3.5397">
        <ele>356.79</ele>
        <time>2013-06-03T08:57:57Z</time>
      </trkpt>
      <trkpt lat="43.72132" lon="3.5397">
        <ele>351.5</ele>
        <time>2013-06-03T08:57:58Z</time>
      </trkpt>
      <trkpt lat="43.72132" lon="3.5397">
        <ele>358.23</ele>
        <time>2013-06-03T08:57:59Z</time>
      </trkpt>
      <trkpt lat="43.72132" lon="3.5397">
        <ele>354.86</ele>
        <time>2013-06-03T08:58:01Z</time>
      </trkpt>
      <trkpt lat="43.72132" lon="3.5397">
        <ele>359.67</ele>
        <time>2013-06-03T08:58:02Z</time>
      </trkpt>
      <trkpt lat="43.72132" lon="3.5397">
        <ele>355.34</ele>
        <time>2013-06-03T08:58:03Z</time>
      </trkpt>
      <trkpt lat="43.72132" lon="3.5397">
        <ele>359.19</ele>
        <time>2013-06-03T08:58:04Z</time>
      </trkpt>
      <trkpt lat="43.72131" lon="3.5397">
        <ele>355.83</ele>
        <time>2013-06-03T08:58:05Z</time>
      </trkpt>
      <trkpt lat="43.72131" lon="3.5397">
        <ele>351.5</ele>
        <time>2013-06-03T08:58:07Z</time>
      </trkpt>
      <trkpt lat="43.72131" lon="3.5397">
        <ele>355.83</ele>
        <time>2013-06-03T08:58:08Z</time>
      </trkpt>
      <trkpt lat="43.72132" lon="3.5397">
        <ele>353.9</ele>
        <time>2013-06-03T08:58:11Z</time>
      </trkpt>
      <trkpt lat="43.72132" lon="3.5397">
        <ele>359.19</ele>
        <time>2013-06-03T08:58:13Z</time>
      </trkpt>
      <trkpt lat="43.72132" lon="3.5397">
        <ele>356.79</ele>
        <time>2013-06-03T08:58:14Z</time>
      </trkpt>
      <trkpt lat="43.72131" lon="3.5397">
        <ele>352.94</ele>
        <time>2013-06-03T08:58:16Z</time>
      </trkpt>
      <trkpt lat="43.72131" lon="3.5397">
        <ele>360.63</ele>
        <time>2013-06-03T08:58:17Z</time>
      </trkpt>
      <trkpt lat="43.72131" lon="3.5397">
        <ele>353.42</ele>
        <time>2013-06-03T08:58:18Z</time>
      </trkpt>
      <trkpt lat="43.72131" lon="3.5397">
        <ele>357.75</ele>
        <time>2013-06-03T08:58:19Z</time>
      </trkpt>
      <trkpt lat="43.72131" lon="3.5397">
        <ele>354.86</ele>
        <time>2013-06-03T08:58:20Z</time>
      </trkpt>
      <trkpt lat="43.72131" lon="3.5397">
        <ele>360.15</ele>
        <time>2013-06-03T08:58:23Z</time>
      </trkpt>
      <trkpt lat="43.72131" lon="3.5397">
        <ele>356.79</ele>
        <time>2013-06-03T08:58:24Z</time>
      </trkpt>
      <trkpt lat="43.72132" lon="3.53969">
        <ele>362.07</ele>
        <time>2013-06-03T08:58:30Z</time>
      </trkpt>
      <trkpt lat="43.72132" lon="3.53969">
        <ele>365.92</ele>
        <time>2013-06-03T08:58:32Z</time>
      </trkpt>
      <trkpt lat="43.72132" lon="3.53969">
        <ele>360.15</ele>
        <time>2013-06-03T08:58:33Z</time>
      </trkpt>
      <trkpt lat="43.72132" lon="3.53969">
        <ele>356.79</ele>
        <time>2013-06-03T08:58:37Z</time>
      </trkpt>
      <trkpt lat="43.72132" lon="3.53969">
        <ele>358.23</ele>
        <time>2013-06-03T08:58:38Z</time>
      </trkpt>
      <trkpt lat="43.72132" lon="3.53969">
        <ele>354.38</ele>
        <time>2013-06-03T08:58:40Z</time>
      </trkpt>
      <trkpt lat="43.72132" lon="3.53969">
        <ele>356.79</ele>
        <time>2013-06-03T08:58:41Z</time>
      </trkpt>
      <trkpt lat="43.72132" lon="3.53969">
        <ele>357.75</ele>
        <time>2013-06-03T08:58:46Z</time>
      </trkpt>
      <trkpt lat="43.72132" lon="3.53969">
        <ele>347.17</ele>
        <time>2013-06-03T08:58:47Z</time>
      </trkpt>
      <trkpt lat="43.72132" lon="3.53969">
        <ele>357.75</ele>
        <time>2013-06-03T08:58:48Z</time>
      </trkpt>
      <trkpt lat="43.72132" lon="3.53969">
        <ele>365.92</ele>
        <time>2013-06-03T08:58:49Z</time>
      </trkpt>
      <trkpt lat="43.72132" lon="3.53969">
        <ele>348.13</ele>
        <time>2013-06-03T08:58:50Z</time>
      </trkpt>
      <trkpt lat="43.72132" lon="3.53969">
        <ele>357.27</ele>
        <time>2013-06-03T08:58:51Z</time>
      </trkpt>
      <trkpt lat="43.72132" lon="3.5397">
        <ele>354.38</ele>
        <time>2013-06-03T08:58:55Z</time>
      </trkpt>
      <trkpt lat="43.72132" lon="3.5397">
        <ele>357.75</ele>
        <time>2013-06-03T08:58:56Z</time>
      </trkpt>
      <trkpt lat="43.72132" lon="3.5397">
        <ele>352.46</ele>
        <time>2013-06-03T08:58:57Z</time>
      </trkpt>
      <trkpt lat="43.72132" lon="3.5397">
        <ele>356.79</ele>
        <time>2013-06-03T08:58:58Z</time>
      </trkpt>
      <trkpt lat="43.72132" lon="3.5397">
        <ele>360.15</ele>
        <time>2013-06-03T08:59:03Z</time>
      </trkpt>
      <trkpt lat="43.72132" lon="3.5397">
        <ele>345.73</ele>
        <time>2013-06-03T08:59:04Z</time>
      </trkpt>
      <trkpt lat="43.72132" lon="3.5397">
        <ele>360.15</ele>
        <time>2013-06-03T08:59:05Z</time>
      </trkpt>
      <trkpt lat="43.72132" lon="3.5397">
        <ele>352.46</ele>
        <time>2013-06-03T08:59:06Z</time>
      </trkpt>
      <trkpt lat="43.72132" lon="3.5397">
        <ele>357.75</ele>
        <time>2013-06-03T08:59:07Z</time>
      </trkpt>
      <trkpt lat="43.72132" lon="3.53969">
        <ele>356.79</ele>
        <time>2013-06-03T08:59:32Z</time>
      </trkpt>
      <trkpt lat="43.72132" lon="3.53969">
        <ele>356.31</ele>
        <time>2013-06-03T08:59:46Z</time>
      </trkpt>
      <trkpt lat="43.72133" lon="3.53969">
        <ele>356.31</ele>
        <time>2013-06-03T08:59:50Z</time>
      </trkpt>
      <trkpt lat="43.72138" lon="3.53967">
        <ele>346.21</ele>
        <time>2013-06-03T09:00:03Z</time>
      </trkpt>
      <trkpt lat="43.72138" lon="3.53967">
        <ele>358.71</ele>
        <time>2013-06-03T09:00:04Z</time>
      </trkpt>
      <trkpt lat="43.72138" lon="3.53967">
        <ele>349.58</ele>
        <time>2013-06-03T09:00:06Z</time>
      </trkpt>
      <trkpt lat="43.72138" lon="3.53967">
        <ele>359.67</ele>
        <time>2013-06-03T09:00:07Z</time>
      </trkpt>
      <trkpt lat="43.72138" lon="3.53967">
        <ele>358.71</ele>
        <time>2013-06-03T09:00:08Z</time>
      </trkpt>
      <trkpt lat="43.72138" lon="3.53967">
        <ele>354.86</ele>
        <time>2013-06-03T09:00:09Z</time>
      </trkpt>
      <trkpt lat="43.72138" lon="3.53967">
        <ele>364.96</ele>
        <time>2013-06-03T09:00:10Z</time>
      </trkpt>
      <trkpt lat="43.72139" lon="3.53967">
        <ele>361.59</ele>
        <time>2013-06-03T09:00:11Z</time>
      </trkpt>
      <trkpt lat="43.72139" lon="3.53967">
        <ele>358.23</ele>
        <time>2013-06-03T09:00:12Z</time>
      </trkpt>
      <trkpt lat="43.72139" lon="3.53967">
        <ele>359.19</ele>
        <time>2013-06-03T09:00:13Z</time>
      </trkpt>
      <trkpt lat="43.72144" lon="3.53969">
        <ele>358.23</ele>
        <time>2013-06-03T09:00:24Z</time>
      </trkpt>
      <trkpt lat="43.72146" lon="3.53968">
        <ele>348.62</ele>
        <time>2013-06-03T09:00:45Z</time>
      </trkpt>
      <trkpt lat="43.72146" lon="3.53968">
        <ele>364.96</ele>
        <time>2013-06-03T09:00:46Z</time>
      </trkpt>
      <trkpt lat="43.72146" lon="3.53968">
        <ele>354.38</ele>
        <time>2013-06-03T09:00:47Z</time>
      </trkpt>
      <trkpt lat="43.72146" lon="3.53968">
        <ele>358.23</ele>
        <time>2013-06-03T09:00:48Z</time>
      </trkpt>
      <trkpt lat="43.72146" lon="3.53968">
        <ele>356.79</ele>
        <time>2013-06-03T09:00:51Z</time>
      </trkpt>
      <trkpt lat="43.72147" lon="3.53966">
        <ele>354.86</ele>
        <time>2013-06-03T09:01:05Z</time>
      </trkpt>
      <trkpt lat="43.72147" lon="3.53965">
        <ele>360.15</ele>
        <time>2013-06-03T09:01:07Z</time>
      </trkpt>
      <trkpt lat="43.72148" lon="3.53965">
        <ele>356.31</ele>
        <time>2013-06-03T09:01:09Z</time>
      </trkpt>
      <trkpt lat="43.72148" lon="3.53965">
        <ele>361.11</ele>
        <time>2013-06-03T09:01:10Z</time>
      </trkpt>
      <trkpt lat="43.72148" lon="3.53965">
        <ele>359.19</ele>
        <time>2013-06-03T09:01:11Z</time>
      </trkpt>
      <trkpt lat="43.72148" lon="3.53965">
        <ele>355.83</ele>
        <time>2013-06-03T09:01:15Z</time>
      </trkpt>
      <trkpt lat="43.72148" lon="3.53965">
        <ele>348.62</ele>
        <time>2013-06-03T09:01:17Z</time>
      </trkpt>
      <trkpt lat="43.72148" lon="3.53965">
        <ele>358.23</ele>
        <time>2013-06-03T09:01:18Z</time>
      </trkpt>
      <trkpt lat="43.72148" lon="3.53965">
        <ele>353.9</ele>
        <time>2013-06-03T09:01:23Z</time>
      </trkpt>
      <trkpt lat="43.72149" lon="3.53965">
        <ele>369.76</ele>
        <time>2013-06-03T09:01:24Z</time>
      </trkpt>
      <trkpt lat="43.72149" lon="3.53965">
        <ele>361.59</ele>
        <time>2013-06-03T09:01:25Z</time>
      </trkpt>
      <trkpt lat="43.72149" lon="3.53965">
        <ele>348.62</ele>
        <time>2013-06-03T09:01:28Z</time>
      </trkpt>
      <trkpt lat="43.72149" lon="3.53965">
        <ele>363.04</ele>
        <time>2013-06-03T09:01:29Z</time>
      </trkpt>
      <trkpt lat="43.72149" lon="3.53965">
        <ele>349.58</ele>
        <time>2013-06-03T09:01:30Z</time>
      </trkpt>
      <trkpt lat="43.72149" lon="3.53965">
        <ele>365.92</ele>
        <time>2013-06-03T09:01:31Z</time>
      </trkpt>
      <trkpt lat="43.72149" lon="3.53965">
        <ele>357.75</ele>
        <time>2013-06-03T09:01:32Z</time>
      </trkpt>
      <trkpt lat="43.72151" lon="3.53965">
        <ele>361.11</ele>
        <time>2013-06-03T09:01:35Z</time>
      </trkpt>
      <trkpt lat="43.72154" lon="3.53965">
        <ele>357.75</ele>
        <time>2013-06-03T09:01:38Z</time>
      </trkpt>
      <trkpt lat="43.72155" lon="3.53965">
        <ele>360.15</ele>
        <time>2013-06-03T09:01:41Z</time>
      </trkpt>
      <trkpt lat="43.72155" lon="3.53964">
        <ele>355.83</ele>
        <time>2013-06-03T09:01:43Z</time>
      </trkpt>
      <trkpt lat="43.72155" lon="3.53964">
        <ele>359.67</ele>
        <time>2013-06-03T09:01:44Z</time>
      </trkpt>
      <trkpt lat="43.72156" lon="3.53964">
        <ele>355.34</ele>
        <time>2013-06-03T09:01:45Z</time>
      </trkpt>
      <trkpt lat="43.72157" lon="3.53964">
        <ele>343.81</ele>
        <time>2013-06-03T09:01:47Z</time>
      </trkpt>
      <trkpt lat="43.72157" lon="3.53963">
        <ele>360.15</ele>
        <time>2013-06-03T09:01:48Z</time>
      </trkpt>
      <trkpt lat="43.72158" lon="3.53963">
        <ele>366.4</ele>
        <time>2013-06-03T09:01:49Z</time>
      </trkpt>
      <trkpt lat="43.72159" lon="3.53963">
        <ele>358.71</ele>
        <time>2013-06-03T09:01:50Z</time>
      </trkpt>
      <trkpt lat="43.72163" lon="3.53961">
        <ele>350.06</ele>
        <time>2013-06-03T09:01:55Z</time>
      </trkpt>
      <trkpt lat="43.72164" lon="3.53961">
        <ele>358.71</ele>
        <time>2013-06-03T09:01:56Z</time>
      </trkpt>
      <trkpt lat="43.72165" lon="3.53962">
        <ele>362.07</ele>
        <time>2013-06-03T09:01:57Z</time>
      </trkpt>
      <trkpt lat="43.72168" lon="3.53962">
        <ele>364</ele>
        <time>2013-06-03T09:01:59Z</time>
      </trkpt>
      <trkpt lat="43.72175" lon="3.53968">
        <ele>361.59</ele>
        <time>2013-06-03T09:02:06Z</time>
      </trkpt>
      <trkpt lat="43.72176" lon="3.53969">
        <ele>357.75</ele>
        <time>2013-06-03T09:02:07Z</time>
      </trkpt>
      <trkpt lat="43.72179" lon="3.53971">
        <ele>356.79</ele>
        <time>2013-06-03T09:02:12Z</time>
      </trkpt>
      <trkpt lat="43.72181" lon="3.53973">
        <ele>352.46</ele>
        <time>2013-06-03T09:02:14Z</time>
      </trkpt>
      <trkpt lat="43.72181" lon="3.53974">
        <ele>357.75</ele>
        <time>2013-06-03T09:02:15Z</time>
      </trkpt>
      <trkpt lat="43.72183" lon="3.53976">
        <ele>349.58</ele>
        <time>2013-06-03T09:02:18Z</time>
      </trkpt>
      <trkpt lat="43.72184" lon="3.53977">
        <ele>361.11</ele>
        <time>2013-06-03T09:02:19Z</time>
      </trkpt>
      <trkpt lat="43.72184" lon="3.53978">
        <ele>350.06</ele>
        <time>2013-06-03T09:02:21Z</time>
      </trkpt>
      <trkpt lat="43.72184" lon="3.53978">
        <ele>357.27</ele>
        <time>2013-06-03T09:02:22Z</time>
      </trkpt>
      <trkpt lat="43.72184" lon="3.53978">
        <ele>343.81</ele>
        <time>2013-06-03T09:02:26Z</time>
      </trkpt>
      <trkpt lat="43.72184" lon="3.53978">
        <ele>373.61</ele>
        <time>2013-06-03T09:02:27Z</time>
      </trkpt>
      <trkpt lat="43.72184" lon="3.53978">
        <ele>352.46</ele>
        <time>2013-06-03T09:02:28Z</time>
      </trkpt>
      <trkpt lat="43.72184" lon="3.53978">
        <ele>356.31</ele>
        <time>2013-06-03T09:02:29Z</time>
      </trkpt>
      <trkpt lat="43.72185" lon="3.53978">
        <ele>346.69</ele>
        <time>2013-06-03T09:02:31Z</time>
      </trkpt>
      <trkpt lat="43.72184" lon="3.53978">
        <ele>340.44</ele>
        <time>2013-06-03T09:02:32Z</time>
      </trkpt>
      <trkpt lat="43.72184" lon="3.53978">
        <ele>361.11</ele>
        <time>2013-06-03T09:02:33Z</time>
      </trkpt>
      <trkpt lat="43.72184" lon="3.53978">
        <ele>356.79</ele>
        <time>2013-06-03T09:02:34Z</time>
      </trkpt>
      <trkpt lat="43.72184" lon="3.53979">
        <ele>349.58</ele>
        <time>2013-06-03T09:02:36Z</time>
      </trkpt>
      <trkpt lat="43.72185" lon="3.53979">
        <ele>363.04</ele>
        <time>2013-06-03T09:02:37Z</time>
      </trkpt>
      <trkpt lat="43.72184" lon="3.53979">
        <ele>356.79</ele>
        <time>2013-06-03T09:02:38Z</time>
      </trkpt>
      <trkpt lat="43.72185" lon="3.53979">
        <ele>353.42</ele>
        <time>2013-06-03T09:02:40Z</time>
      </trkpt>
      <trkpt lat="43.72185" lon="3.53979">
        <ele>358.23</ele>
        <time>2013-06-03T09:02:41Z</time>
      </trkpt>
      <trkpt lat="43.72187" lon="3.53983">
        <ele>356.31</ele>
        <time>2013-06-03T09:02:47Z</time>
      </trkpt>
      <trkpt lat="43.72188" lon="3.53988">
        <ele>355.83</ele>
        <time>2013-06-03T09:02:53Z</time>
      </trkpt>
      <trkpt lat="43.72188" lon="3.53988">
        <ele>364.96</ele>
        <time>2013-06-03T09:02:54Z</time>
      </trkpt>
      <trkpt lat="43.72188" lon="3.53988">
        <ele>351.5</ele>
        <time>2013-06-03T09:02:55Z</time>
      </trkpt>
      <trkpt lat="43.72188" lon="3.53988">
        <ele>364.96</ele>
        <time>2013-06-03T09:02:56Z</time>
      </trkpt>
      <trkpt lat="43.72188" lon="3.53989">
        <ele>348.13</ele>
        <time>2013-06-03T09:02:57Z</time>
      </trkpt>
      <trkpt lat="43.72188" lon="3.53989">
        <ele>352.46</ele>
        <time>2013-06-03T09:02:58Z</time>
      </trkpt>
      <trkpt lat="43.72188" lon="3.53989">
        <ele>356.79</ele>
        <time>2013-06-03T09:02:59Z</time>
      </trkpt>
      <trkpt lat="43.72188" lon="3.53989">
        <ele>356.79</ele>
        <time>2013-06-03T09:03:00Z</time>
      </trkpt>
      <trkpt lat="43.72189" lon="3.53989">
        <ele>363.04</ele>
        <time>2013-06-03T09:03:02Z</time>
      </trkpt>
      <trkpt lat="43.72189" lon="3.53989">
        <ele>359.19</ele>
        <time>2013-06-03T09:03:03Z</time>
      </trkpt>
      <trkpt lat="43.72189" lon="3.53989">
        <ele>363.04</ele>
        <time>2013-06-03T09:03:04Z</time>
      </trkpt>
      <trkpt lat="43.72189" lon="3.53989">
        <ele>357.75</ele>
        <time>2013-06-03T09:03:05Z</time>
      </trkpt>
      <trkpt lat="43.72189" lon="3.5399">
        <ele>364.96</ele>
        <time>2013-06-03T09:03:10Z</time>
      </trkpt>
      <trkpt lat="43.72189" lon="3.5399">
        <ele>354.86</ele>
        <time>2013-06-03T09:03:11Z</time>
      </trkpt>
      <trkpt lat="43.72189" lon="3.53991">
        <ele>354.38</ele>
        <time>2013-06-03T09:03:28Z</time>
      </trkpt>
      <trkpt lat="43.72189" lon="3.53991">
        <ele>359.19</ele>
        <time>2013-06-03T09:03:30Z</time>
      </trkpt>
      <trkpt lat="43.72189" lon="3.53991">
        <ele>356.31</ele>
        <time>2013-06-03T09:03:31Z</time>
      </trkpt>
      <trkpt lat="43.7219" lon="3.53991">
        <ele>363.04</ele>
        <time>2013-06-03T09:03:40Z</time>
      </trkpt>
      <trkpt lat="43.7219" lon="3.53991">
        <ele>357.27</ele>
        <time>2013-06-03T09:03:41Z</time>
      </trkpt>
      <trkpt lat="43.7219" lon="3.53991">
        <ele>361.59</ele>
        <time>2013-06-03T09:03:45Z</time>
      </trkpt>
      <trkpt lat="43.7219" lon="3.53991">
        <ele>357.27</ele>
        <time>2013-06-03T09:03:46Z</time>
      </trkpt>
      <trkpt lat="43.7219" lon="3.53988">
        <ele>348.13</ele>
        <time>2013-06-03T09:03:55Z</time>
      </trkpt>
      <trkpt lat="43.7219" lon="3.53988">
        <ele>356.79</ele>
        <time>2013-06-03T09:03:56Z</time>
      </trkpt>
      <trkpt lat="43.7219" lon="3.53988">
        <ele>362.55</ele>
        <time>2013-06-03T09:03:58Z</time>
      </trkpt>
      <trkpt lat="43.72191" lon="3.53988">
        <ele>358.23</ele>
        <time>2013-06-03T09:03:59Z</time>
      </trkpt>
      <trkpt lat="43.72191" lon="3.53988">
        <ele>352.46</ele>
        <time>2013-06-03T09:04:01Z</time>
      </trkpt>
      <trkpt lat="43.72191" lon="3.53988">
        <ele>346.69</ele>
        <time>2013-06-03T09:04:02Z</time>
      </trkpt>
      <trkpt lat="43.72191" lon="3.53988">
        <ele>360.63</ele>
        <time>2013-06-03T09:04:03Z</time>
      </trkpt>
      <trkpt lat="43.72191" lon="3.53988">
        <ele>367.36</ele>
        <time>2013-06-03T09:04:04Z</time>
      </trkpt>
      <trkpt lat="43.72191" lon="3.53988">
        <ele>348.13</ele>
        <time>2013-06-03T09:04:05Z</time>
      </trkpt>
      <trkpt lat="43.7219" lon="3.53987">
        <ele>364</ele>
        <time>2013-06-03T09:04:06Z</time>
      </trkpt>
      <trkpt lat="43.7219" lon="3.53986">
        <ele>357.75</ele>
        <time>2013-06-03T09:04:07Z</time>
      </trkpt>
      <trkpt lat="43.72189" lon="3.53986">
        <ele>357.27</ele>
        <time>2013-06-03T09:04:10Z</time>
      </trkpt>
      <trkpt lat="43.72182" lon="3.53972">
        <ele>357.75</ele>
        <time>2013-06-03T09:04:24Z</time>
      </trkpt>
      <trkpt lat="43.7218" lon="3.5397">
        <ele>356.79</ele>
        <time>2013-06-03T09:04:26Z</time>
      </trkpt>
      <trkpt lat="43.72174" lon="3.53962">
        <ele>357.75</ele>
        <time>2013-06-03T09:04:38Z</time>
      </trkpt>
      <trkpt lat="43.72169" lon="3.5396">
        <ele>356.79</ele>
        <time>2013-06-03T09:04:53Z</time>
      </trkpt>
      <trkpt lat="43.72163" lon="3.53953">
        <ele>357.27</ele>
        <time>2013-06-03T09:05:07Z</time>
      </trkpt>
      <trkpt lat="43.72159" lon="3.53936">
        <ele>358.23</ele>
        <time>2013-06-03T09:05:22Z</time>
      </trkpt>
      <trkpt lat="43.7216" lon="3.53934">
        <ele>359.67</ele>
        <time>2013-06-03T09:05:25Z</time>
      </trkpt>
      <trkpt lat="43.72163" lon="3.53927">
        <ele>359.67</ele>
        <time>2013-06-03T09:05:32Z</time>
      </trkpt>
      <trkpt lat="43.72163" lon="3.53925">
        <ele>359.19</ele>
        <time>2013-06-03T09:05:45Z</time>
      </trkpt>
      <trkpt lat="43.72162" lon="3.53922">
        <ele>360.15</ele>
        <time>2013-06-03T09:05:48Z</time>
      </trkpt>
      <trkpt lat="43.72162" lon="3.53911">
        <ele>360.63</ele>
        <time>2013-06-03T09:05:55Z</time>
      </trkpt>
      <trkpt lat="43.72163" lon="3.53896">
        <ele>360.63</ele>
        <time>2013-06-03T09:06:04Z</time>
      </trkpt>
      <trkpt lat="43.72163" lon="3.53891">
        <ele>360.15</ele>
        <time>2013-06-03T09:06:07Z</time>
      </trkpt>
      <trkpt lat="43.72161" lon="3.53868">
        <ele>359.67</ele>
        <time>2013-06-03T09:06:22Z</time>
      </trkpt>
      <trkpt lat="43.72155" lon="3.53847">
        <ele>359.19</ele>
        <time>2013-06-03T09:06:35Z</time>
      </trkpt>
      <trkpt lat="43.72153" lon="3.53841">
        <ele>358.71</ele>
        <time>2013-06-03T09:06:39Z</time>
      </trkpt>
      <trkpt lat="43.7215" lon="3.53828">
        <ele>358.71</ele>
        <time>2013-06-03T09:06:47Z</time>
      </trkpt>
      <trkpt lat="43.72147" lon="3.53809">
        <ele>357.75</ele>
        <time>2013-06-03T09:07:01Z</time>
      </trkpt>
      <trkpt lat="43.72148" lon="3.53804">
        <ele>355.34</ele>
        <time>2013-06-03T09:07:10Z</time>
      </trkpt>
      <trkpt lat="43.72147" lon="3.53796">
        <ele>355.34</ele>
        <time>2013-06-03T09:07:16Z</time>
      </trkpt>
      <trkpt lat="43.72148" lon="3.53779">
        <ele>354.38</ele>
        <time>2013-06-03T09:07:28Z</time>
      </trkpt>
      <trkpt lat="43.7215" lon="3.53766">
        <ele>352.46</ele>
        <time>2013-06-03T09:07:42Z</time>
      </trkpt>
      <trkpt lat="43.7215" lon="3.53762">
        <ele>350.06</ele>
        <time>2013-06-03T09:07:57Z</time>
      </trkpt>
      <trkpt lat="43.7215" lon="3.53761">
        <ele>349.58</ele>
        <time>2013-06-03T09:08:19Z</time>
      </trkpt>
      <trkpt lat="43.7215" lon="3.53759">
        <ele>349.58</ele>
        <time>2013-06-03T09:08:23Z</time>
      </trkpt>
      <trkpt lat="43.72154" lon="3.53746">
        <ele>348.62</ele>
        <time>2013-06-03T09:08:35Z</time>
      </trkpt>
      <trkpt lat="43.72154" lon="3.53744">
        <ele>349.58</ele>
        <time>2013-06-03T09:08:44Z</time>
      </trkpt>
      <trkpt lat="43.7216" lon="3.5374">
        <ele>348.62</ele>
        <time>2013-06-03T09:08:50Z</time>
      </trkpt>
      <trkpt lat="43.72171" lon="3.53728">
        <ele>345.73</ele>
        <time>2013-06-03T09:09:02Z</time>
      </trkpt>
      <trkpt lat="43.72175" lon="3.53722">
        <ele>346.21</ele>
        <time>2013-06-03T09:09:06Z</time>
      </trkpt>
      <trkpt lat="43.7218" lon="3.5371">
        <ele>345.73</ele>
        <time>2013-06-03T09:09:20Z</time>
      </trkpt>
      <trkpt lat="43.72182" lon="3.53704">
        <ele>346.21</ele>
        <time>2013-06-03T09:09:37Z</time>
      </trkpt>
      <trkpt lat="43.72184" lon="3.537">
        <ele>347.17</ele>
        <time>2013-06-03T09:09:48Z</time>
      </trkpt>
      <trkpt lat="43.72186" lon="3.53696">
        <ele>348.13</ele>
        <time>2013-06-03T09:09:51Z</time>
      </trkpt>
      <trkpt lat="43.72196" lon="3.53672">
        <ele>349.1</ele>
        <time>2013-06-03T09:10:02Z</time>
      </trkpt>
      <trkpt lat="43.72204" lon="3.53653">
        <ele>351.02</ele>
        <time>2013-06-03T09:10:16Z</time>
      </trkpt>
      <trkpt lat="43.72206" lon="3.5364">
        <ele>351.5</ele>
        <time>2013-06-03T09:10:26Z</time>
      </trkpt>
      <trkpt lat="43.72196" lon="3.53633">
        <ele>351.02</ele>
        <time>2013-06-03T09:10:39Z</time>
      </trkpt>
      <trkpt lat="43.72191" lon="3.53628">
        <ele>350.06</ele>
        <time>2013-06-03T09:10:54Z</time>
      </trkpt>
      <trkpt lat="43.72191" lon="3.53617">
        <ele>351.98</ele>
        <time>2013-06-03T09:11:06Z</time>
      </trkpt>
      <trkpt lat="43.72191" lon="3.53616">
        <ele>351.98</ele>
        <time>2013-06-03T09:11:07Z</time>
      </trkpt>
      <trkpt lat="43.72192" lon="3.53607">
        <ele>351.5</ele>
        <time>2013-06-03T09:11:20Z</time>
      </trkpt>
      <trkpt lat="43.72195" lon="3.53604">
        <ele>351.5</ele>
        <time>2013-06-03T09:11:33Z</time>
      </trkpt>
      <trkpt lat="43.72195" lon="3.53603">
        <ele>351.5</ele>
        <time>2013-06-03T09:11:51Z</time>
      </trkpt>
      <trkpt lat="43.72197" lon="3.53602">
        <ele>351.5</ele>
        <time>2013-06-03T09:12:13Z</time>
      </trkpt>
      <trkpt lat="43.72196" lon="3.53596">
        <ele>352.46</ele>
        <time>2013-06-03T09:12:30Z</time>
      </trkpt>
      <trkpt lat="43.72193" lon="3.53595">
        <ele>351.98</ele>
        <time>2013-06-03T09:12:42Z</time>
      </trkpt>
      <trkpt lat="43.72192" lon="3.53595">
        <ele>351.5</ele>
        <time>2013-06-03T09:12:45Z</time>
      </trkpt>
      <trkpt lat="43.72188" lon="3.53595">
        <ele>351.5</ele>
        <time>2013-06-03T09:13:02Z</time>
      </trkpt>
      <trkpt lat="43.72189" lon="3.53598">
        <ele>351.5</ele>
        <time>2013-06-03T09:13:21Z</time>
      </trkpt>
      <trkpt lat="43.72189" lon="3.53601">
        <ele>351.98</ele>
        <time>2013-06-03T09:13:51Z</time>
      </trkpt>
      <trkpt lat="43.72189" lon="3.53601">
        <ele>351.02</ele>
        <time>2013-06-03T09:14:11Z</time>
      </trkpt>
      <trkpt lat="43.7219" lon="3.53602">
        <ele>351.98</ele>
        <time>2013-06-03T09:14:29Z</time>
      </trkpt>
      <trkpt lat="43.72188" lon="3.53608">
        <ele>351.02</ele>
        <time>2013-06-03T09:14:41Z</time>
      </trkpt>
      <trkpt lat="43.72187" lon="3.5361">
        <ele>351.5</ele>
        <time>2013-06-03T09:15:03Z</time>
      </trkpt>
      <trkpt lat="43.72186" lon="3.53612">
        <ele>351.5</ele>
        <time>2013-06-03T09:15:15Z</time>
      </trkpt>
      <trkpt lat="43.72186" lon="3.53612">
        <ele>351.5</ele>
        <time>2013-06-03T09:15:29Z</time>
      </trkpt>
      <trkpt lat="43.72185" lon="3.53615">
        <ele>350.54</ele>
        <time>2013-06-03T09:15:43Z</time>
      </trkpt>
      <trkpt lat="43.72185" lon="3.53616">
        <ele>350.54</ele>
        <time>2013-06-03T09:15:58Z</time>
      </trkpt>
      <trkpt lat="43.72186" lon="3.53619">
        <ele>350.54</ele>
        <time>2013-06-03T09:16:16Z</time>
      </trkpt>
      <trkpt lat="43.72187" lon="3.5362">
        <ele>350.54</ele>
        <time>2013-06-03T09:16:35Z</time>
      </trkpt>
      <trkpt lat="43.72187" lon="3.53618">
        <ele>350.54</ele>
        <time>2013-06-03T09:16:58Z</time>
      </trkpt>
      <trkpt lat="43.72187" lon="3.53618">
        <ele>350.54</ele>
        <time>2013-06-03T09:17:17Z</time>
      </trkpt>
      <trkpt lat="43.72188" lon="3.53618">
        <ele>350.06</ele>
        <time>2013-06-03T09:17:44Z</time>
      </trkpt>
      <trkpt lat="43.7219" lon="3.53618">
        <ele>351.02</ele>
        <time>2013-06-03T09:17:59Z</time>
      </trkpt>
      <trkpt lat="43.7219" lon="3.53617">
        <ele>351.5</ele>
        <time>2013-06-03T09:18:14Z</time>
      </trkpt>
      <trkpt lat="43.7219" lon="3.53616">
        <ele>351.5</ele>
        <time>2013-06-03T09:18:30Z</time>
      </trkpt>
      <trkpt lat="43.72189" lon="3.53615">
        <ele>351.02</ele>
        <time>2013-06-03T09:18:45Z</time>
      </trkpt>
      <trkpt lat="43.72188" lon="3.53615">
        <ele>351.98</ele>
        <time>2013-06-03T09:19:03Z</time>
      </trkpt>
      <trkpt lat="43.72187" lon="3.53614">
        <ele>351.02</ele>
        <time>2013-06-03T09:19:20Z</time>
      </trkpt>
      <trkpt lat="43.72187" lon="3.53614">
        <ele>351.02</ele>
        <time>2013-06-03T09:19:44Z</time>
      </trkpt>
      <trkpt lat="43.72187" lon="3.53614">
        <ele>350.54</ele>
        <time>2013-06-03T09:20:07Z</time>
      </trkpt>
      <trkpt lat="43.72187" lon="3.53613">
        <ele>349.58</ele>
        <time>2013-06-03T09:20:31Z</time>
      </trkpt>
      <trkpt lat="43.72187" lon="3.53613">
        <ele>350.54</ele>
        <time>2013-06-03T09:21:02Z</time>
      </trkpt>
      <trkpt lat="43.72188" lon="3.53616">
        <ele>351.02</ele>
        <time>2013-06-03T09:21:21Z</time>
      </trkpt>
      <trkpt lat="43.72188" lon="3.53617">
        <ele>350.06</ele>
        <time>2013-06-03T09:21:39Z</time>
      </trkpt>
      <trkpt lat="43.72189" lon="3.53617">
        <ele>350.54</ele>
        <time>2013-06-03T09:21:56Z</time>
      </trkpt>
      <trkpt lat="43.72187" lon="3.53619">
        <ele>350.06</ele>
        <time>2013-06-03T09:22:19Z</time>
      </trkpt>
      <trkpt lat="43.72187" lon="3.5362">
        <ele>350.06</ele>
        <time>2013-06-03T09:22:43Z</time>
      </trkpt>
      <trkpt lat="43.72191" lon="3.53614">
        <ele>351.02</ele>
        <time>2013-06-03T09:22:55Z</time>
      </trkpt>
      <trkpt lat="43.72193" lon="3.53604">
        <ele>351.5</ele>
        <time>2013-06-03T09:23:08Z</time>
      </trkpt>
      <trkpt lat="43.72194" lon="3.536">
        <ele>351.5</ele>
        <time>2013-06-03T09:23:23Z</time>
      </trkpt>
      <trkpt lat="43.72191" lon="3.53592">
        <ele>351.98</ele>
        <time>2013-06-03T09:23:43Z</time>
      </trkpt>
      <trkpt lat="43.72188" lon="3.53582">
        <ele>351.98</ele>
        <time>2013-06-03T09:23:57Z</time>
      </trkpt>
      <trkpt lat="43.72188" lon="3.53582">
        <ele>351.98</ele>
        <time>2013-06-03T09:24:17Z</time>
      </trkpt>
      <trkpt lat="43.72184" lon="3.53577">
        <ele>352.46</ele>
        <time>2013-06-03T09:24:33Z</time>
      </trkpt>
      <trkpt lat="43.72171" lon="3.53564">
        <ele>351.98</ele>
        <time>2013-06-03T09:24:47Z</time>
      </trkpt>
      <trkpt lat="43.72171" lon="3.53557">
        <ele>352.94</ele>
        <time>2013-06-03T09:24:56Z</time>
      </trkpt>
      <trkpt lat="43.72177" lon="3.5354">
        <ele>352.94</ele>
        <time>2013-06-03T09:25:07Z</time>
      </trkpt>
      <trkpt lat="43.72181" lon="3.5353">
        <ele>353.42</ele>
        <time>2013-06-03T09:25:21Z</time>
      </trkpt>
      <trkpt lat="43.72183" lon="3.5353">
        <ele>353.42</ele>
        <time>2013-06-03T09:25:23Z</time>
      </trkpt>
      <trkpt lat="43.72188" lon="3.53525">
        <ele>354.38</ele>
        <time>2013-06-03T09:25:29Z</time>
      </trkpt>
      <trkpt lat="43.72192" lon="3.53516">
        <ele>354.38</ele>
        <time>2013-06-03T09:25:35Z</time>
      </trkpt>
      <trkpt lat="43.72195" lon="3.53513">
        <ele>355.34</ele>
        <time>2013-06-03T09:25:39Z</time>
      </trkpt>
      <trkpt lat="43.722" lon="3.53507">
        <ele>356.31</ele>
        <time>2013-06-03T09:25:45Z</time>
      </trkpt>
      <trkpt lat="43.72201" lon="3.53505">
        <ele>356.31</ele>
        <time>2013-06-03T09:25:47Z</time>
      </trkpt>
      <trkpt lat="43.72213" lon="3.53492">
        <ele>357.27</ele>
        <time>2013-06-03T09:26:01Z</time>
      </trkpt>
      <trkpt lat="43.72218" lon="3.53483">
        <ele>358.23</ele>
        <time>2013-06-03T09:26:09Z</time>
      </trkpt>
      <trkpt lat="43.72227" lon="3.53471">
        <ele>359.67</ele>
        <time>2013-06-03T09:26:20Z</time>
      </trkpt>
      <trkpt lat="43.72234" lon="3.53459">
        <ele>360.15</ele>
        <time>2013-06-03T09:26:30Z</time>
      </trkpt>
      <trkpt lat="43.7224" lon="3.53448">
        <ele>361.11</ele>
        <time>2013-06-03T09:26:39Z</time>
      </trkpt>
      <trkpt lat="43.72242" lon="3.53437">
        <ele>362.07</ele>
        <time>2013-06-03T09:26:47Z</time>
      </trkpt>
      <trkpt lat="43.72244" lon="3.53424">
        <ele>362.07</ele>
        <time>2013-06-03T09:26:54Z</time>
      </trkpt>
      <trkpt lat="43.72244" lon="3.53403">
        <ele>363.52</ele>
        <time>2013-06-03T09:27:07Z</time>
      </trkpt>
      <trkpt lat="43.72242" lon="3.53385">
        <ele>364.48</ele>
        <time>2013-06-03T09:27:19Z</time>
      </trkpt>
      <trkpt lat="43.7224" lon="3.53363">
        <ele>364.96</ele>
        <time>2013-06-03T09:27:32Z</time>
      </trkpt>
      <trkpt lat="43.72236" lon="3.53348">
        <ele>365.92</ele>
        <time>2013-06-03T09:27:41Z</time>
      </trkpt>
      <trkpt lat="43.72235" lon="3.5334">
        <ele>366.88</ele>
        <time>2013-06-03T09:27:46Z</time>
      </trkpt>
      <trkpt lat="43.72235" lon="3.53328">
        <ele>367.84</ele>
        <time>2013-06-03T09:27:55Z</time>
      </trkpt>
      <trkpt lat="43.72234" lon="3.53318">
        <ele>367.84</ele>
        <time>2013-06-03T09:28:02Z</time>
      </trkpt>
      <trkpt lat="43.72235" lon="3.53312">
        <ele>368.32</ele>
        <time>2013-06-03T09:28:06Z</time>
      </trkpt>
      <trkpt lat="43.72234" lon="3.53298">
        <ele>368.8</ele>
        <time>2013-06-03T09:28:14Z</time>
      </trkpt>
      <trkpt lat="43.72235" lon="3.53292">
        <ele>369.28</ele>
        <time>2013-06-03T09:28:18Z</time>
      </trkpt>
      <trkpt lat="43.72235" lon="3.53288">
        <ele>369.28</ele>
        <time>2013-06-03T09:28:21Z</time>
      </trkpt>
      <trkpt lat="43.72236" lon="3.53283">
        <ele>370.24</ele>
        <time>2013-06-03T09:28:24Z</time>
      </trkpt>
      <trkpt lat="43.72235" lon="3.53276">
        <ele>371.21</ele>
        <time>2013-06-03T09:28:29Z</time>
      </trkpt>
      <trkpt lat="43.72234" lon="3.53272">
        <ele>371.69</ele>
        <time>2013-06-03T09:28:32Z</time>
      </trkpt>
      <trkpt lat="43.72229" lon="3.53258">
        <ele>371.69</ele>
        <time>2013-06-03T09:28:45Z</time>
      </trkpt>
      <trkpt lat="43.72224" lon="3.53248">
        <ele>372.17</ele>
        <time>2013-06-03T09:28:54Z</time>
      </trkpt>
      <trkpt lat="43.72224" lon="3.53244">
        <ele>372.65</ele>
        <time>2013-06-03T09:28:56Z</time>
      </trkpt>
      <trkpt lat="43.72223" lon="3.53238">
        <ele>372.17</ele>
        <time>2013-06-03T09:28:59Z</time>
      </trkpt>
      <trkpt lat="43.72226" lon="3.53232">
        <ele>372.65</ele>
        <time>2013-06-03T09:29:09Z</time>
      </trkpt>
      <trkpt lat="43.72231" lon="3.5324">
        <ele>374.09</ele>
        <time>2013-06-03T09:29:21Z</time>
      </trkpt>
      <trkpt lat="43.72238" lon="3.5325">
        <ele>374.57</ele>
        <time>2013-06-03T09:29:30Z</time>
      </trkpt>
      <trkpt lat="43.72248" lon="3.53256">
        <ele>375.05</ele>
        <time>2013-06-03T09:29:43Z</time>
      </trkpt>
      <trkpt lat="43.72248" lon="3.53255">
        <ele>375.53</ele>
        <time>2013-06-03T09:29:52Z</time>
      </trkpt>
      <trkpt lat="43.72249" lon="3.53258">
        <ele>375.53</ele>
        <time>2013-06-03T09:29:55Z</time>
      </trkpt>
      <trkpt lat="43.72251" lon="3.53259">
        <ele>376.01</ele>
        <time>2013-06-03T09:29:57Z</time>
      </trkpt>
      <trkpt lat="43.72253" lon="3.53262">
        <ele>376.01</ele>
        <time>2013-06-03T09:30:00Z</time>
      </trkpt>
      <trkpt lat="43.72267" lon="3.53275">
        <ele>377.45</ele>
        <time>2013-06-03T09:30:15Z</time>
      </trkpt>
      <trkpt lat="43.72276" lon="3.53291">
        <ele>377.94</ele>
        <time>2013-06-03T09:30:28Z</time>
      </trkpt>
      <trkpt lat="43.72287" lon="3.53308">
        <ele>378.42</ele>
        <time>2013-06-03T09:30:41Z</time>
      </trkpt>
      <trkpt lat="43.72296" lon="3.53318">
        <ele>379.86</ele>
        <time>2013-06-03T09:30:52Z</time>
      </trkpt>
      <trkpt lat="43.72306" lon="3.53326">
        <ele>381.3</ele>
        <time>2013-06-03T09:31:06Z</time>
      </trkpt>
      <trkpt lat="43.72311" lon="3.53332">
        <ele>381.3</ele>
        <time>2013-06-03T09:31:15Z</time>
      </trkpt>
      <trkpt lat="43.72323" lon="3.53335">
        <ele>382.26</ele>
        <time>2013-06-03T09:31:29Z</time>
      </trkpt>
      <trkpt lat="43.72327" lon="3.53335">
        <ele>383.22</ele>
        <time>2013-06-03T09:31:33Z</time>
      </trkpt>
      <trkpt lat="43.72329" lon="3.53333">
        <ele>383.22</ele>
        <time>2013-06-03T09:31:35Z</time>
      </trkpt>
      <trkpt lat="43.72344" lon="3.53328">
        <ele>384.18</ele>
        <time>2013-06-03T09:31:49Z</time>
      </trkpt>
      <trkpt lat="43.72352" lon="3.53323">
        <ele>384.66</ele>
        <time>2013-06-03T09:31:59Z</time>
      </trkpt>
      <trkpt lat="43.72364" lon="3.5332">
        <ele>385.63</ele>
        <time>2013-06-03T09:32:11Z</time>
      </trkpt>
      <trkpt lat="43.72367" lon="3.53317">
        <ele>386.11</ele>
        <time>2013-06-03T09:32:26Z</time>
      </trkpt>
      <trkpt lat="43.72371" lon="3.53318">
        <ele>386.59</ele>
        <time>2013-06-03T09:32:31Z</time>
      </trkpt>
      <trkpt lat="43.72386" lon="3.5332">
        <ele>386.59</ele>
        <time>2013-06-03T09:32:46Z</time>
      </trkpt>
      <trkpt lat="43.72393" lon="3.53319">
        <ele>387.07</ele>
        <time>2013-06-03T09:32:52Z</time>
      </trkpt>
      <trkpt lat="43.72396" lon="3.53317">
        <ele>388.03</ele>
        <time>2013-06-03T09:32:54Z</time>
      </trkpt>
      <trkpt lat="43.72402" lon="3.53314">
        <ele>387.55</ele>
        <time>2013-06-03T09:33:07Z</time>
      </trkpt>
      <trkpt lat="43.72401" lon="3.5331">
        <ele>387.07</ele>
        <time>2013-06-03T09:33:16Z</time>
      </trkpt>
      <trkpt lat="43.7239" lon="3.533">
        <ele>388.99</ele>
        <time>2013-06-03T09:33:28Z</time>
      </trkpt>
      <trkpt lat="43.72386" lon="3.533">
        <ele>388.99</ele>
        <time>2013-06-03T09:33:31Z</time>
      </trkpt>
      <trkpt lat="43.72376" lon="3.53298">
        <ele>389.95</ele>
        <time>2013-06-03T09:33:39Z</time>
      </trkpt>
      <trkpt lat="43.72371" lon="3.53294">
        <ele>390.43</ele>
        <time>2013-06-03T09:33:44Z</time>
      </trkpt>
      <trkpt lat="43.7236" lon="3.53279">
        <ele>390.43</ele>
        <time>2013-06-03T09:33:56Z</time>
      </trkpt>
      <trkpt lat="43.72358" lon="3.53277">
        <ele>391.87</ele>
        <time>2013-06-03T09:33:59Z</time>
      </trkpt>
      <trkpt lat="43.72355" lon="3.5327">
        <ele>391.87</ele>
        <time>2013-06-03T09:34:04Z</time>
      </trkpt>
      <trkpt lat="43.72351" lon="3.53261">
        <ele>392.36</ele>
        <time>2013-06-03T09:34:12Z</time>
      </trkpt>
      <trkpt lat="43.72346" lon="3.53252">
        <ele>392.84</ele>
        <time>2013-06-03T09:34:19Z</time>
      </trkpt>
      <trkpt lat="43.72344" lon="3.5324">
        <ele>392.84</ele>
        <time>2013-06-03T09:34:27Z</time>
      </trkpt>
      <trkpt lat="43.72342" lon="3.53237">
        <ele>394.76</ele>
        <time>2013-06-03T09:34:30Z</time>
      </trkpt>
      <trkpt lat="43.7234" lon="3.53233">
        <ele>394.76</ele>
        <time>2013-06-03T09:34:32Z</time>
      </trkpt>
      <trkpt lat="43.72338" lon="3.53223">
        <ele>394.28</ele>
        <time>2013-06-03T09:34:38Z</time>
      </trkpt>
      <trkpt lat="43.72336" lon="3.53206">
        <ele>395.24</ele>
        <time>2013-06-03T09:34:50Z</time>
      </trkpt>
      <trkpt lat="43.72336" lon="3.53204">
        <ele>395.24</ele>
        <time>2013-06-03T09:34:52Z</time>
      </trkpt>
      <trkpt lat="43.72333" lon="3.53197">
        <ele>395.72</ele>
        <time>2013-06-03T09:34:58Z</time>
      </trkpt>
      <trkpt lat="43.72332" lon="3.53192">
        <ele>396.2</ele>
        <time>2013-06-03T09:35:01Z</time>
      </trkpt>
      <trkpt lat="43.7233" lon="3.53173">
        <ele>397.64</ele>
        <time>2013-06-03T09:35:12Z</time>
      </trkpt>
      <trkpt lat="43.72329" lon="3.53165">
        <ele>398.12</ele>
        <time>2013-06-03T09:35:17Z</time>
      </trkpt>
      <trkpt lat="43.72329" lon="3.53153">
        <ele>398.6</ele>
        <time>2013-06-03T09:35:26Z</time>
      </trkpt>
      <trkpt lat="43.7233" lon="3.53136">
        <ele>399.57</ele>
        <time>2013-06-03T09:35:36Z</time>
      </trkpt>
      <trkpt lat="43.7233" lon="3.53131">
        <ele>399.57</ele>
        <time>2013-06-03T09:35:39Z</time>
      </trkpt>
      <trkpt lat="43.72329" lon="3.53127">
        <ele>400.53</ele>
        <time>2013-06-03T09:35:42Z</time>
      </trkpt>
      <trkpt lat="43.72331" lon="3.53113">
        <ele>401.01</ele>
        <time>2013-06-03T09:35:50Z</time>
      </trkpt>
      <trkpt lat="43.72334" lon="3.531">
        <ele>401.97</ele>
        <time>2013-06-03T09:35:58Z</time>
      </trkpt>
      <trkpt lat="43.72335" lon="3.53096">
        <ele>402.45</ele>
        <time>2013-06-03T09:36:00Z</time>
      </trkpt>
      <trkpt lat="43.72339" lon="3.53076">
        <ele>402.93</ele>
        <time>2013-06-03T09:36:13Z</time>
      </trkpt>
      <trkpt lat="43.72339" lon="3.53073">
        <ele>402.93</ele>
        <time>2013-06-03T09:36:15Z</time>
      </trkpt>
      <trkpt lat="43.72339" lon="3.5307">
        <ele>403.41</ele>
        <time>2013-06-03T09:36:17Z</time>
      </trkpt>
      <trkpt lat="43.72339" lon="3.53052">
        <ele>404.85</ele>
        <time>2013-06-03T09:36:29Z</time>
      </trkpt>
      <trkpt lat="43.7234" lon="3.53047">
        <ele>404.37</ele>
        <time>2013-06-03T09:36:44Z</time>
      </trkpt>
      <trkpt lat="43.7234" lon="3.53047">
        <ele>404.85</ele>
        <time>2013-06-03T09:36:51Z</time>
      </trkpt>
      <trkpt lat="43.7234" lon="3.53045">
        <ele>404.85</ele>
        <time>2013-06-03T09:36:54Z</time>
      </trkpt>
      <trkpt lat="43.7234" lon="3.5304">
        <ele>405.81</ele>
        <time>2013-06-03T09:37:02Z</time>
      </trkpt>
      <trkpt lat="43.72345" lon="3.53029">
        <ele>405.33</ele>
        <time>2013-06-03T09:37:11Z</time>
      </trkpt>
      <trkpt lat="43.72346" lon="3.53026">
        <ele>405.81</ele>
        <time>2013-06-03T09:37:14Z</time>
      </trkpt>
      <trkpt lat="43.72352" lon="3.53014">
        <ele>406.77</ele>
        <time>2013-06-03T09:37:27Z</time>
      </trkpt>
      <trkpt lat="43.72361" lon="3.53">
        <ele>408.7</ele>
        <time>2013-06-03T09:37:40Z</time>
      </trkpt>
      <trkpt lat="43.7237" lon="3.52984">
        <ele>409.66</ele>
        <time>2013-06-03T09:37:52Z</time>
      </trkpt>
      <trkpt lat="43.72379" lon="3.52974">
        <ele>410.62</ele>
        <time>2013-06-03T09:38:05Z</time>
      </trkpt>
      <trkpt lat="43.72378" lon="3.52976">
        <ele>412.54</ele>
        <time>2013-06-03T09:38:18Z</time>
      </trkpt>
      <trkpt lat="43.72382" lon="3.52983">
        <ele>413.98</ele>
        <time>2013-06-03T09:38:32Z</time>
      </trkpt>
      <trkpt lat="43.72383" lon="3.52984">
        <ele>414.47</ele>
        <time>2013-06-03T09:38:34Z</time>
      </trkpt>
      <trkpt lat="43.72385" lon="3.52988">
        <ele>414.95</ele>
        <time>2013-06-03T09:38:38Z</time>
      </trkpt>
      <trkpt lat="43.72384" lon="3.52991">
        <ele>415.91</ele>
        <time>2013-06-03T09:38:41Z</time>
      </trkpt>
      <trkpt lat="43.72384" lon="3.53009">
        <ele>416.39</ele>
        <time>2013-06-03T09:38:54Z</time>
      </trkpt>
      <trkpt lat="43.72384" lon="3.53031">
        <ele>418.31</ele>
        <time>2013-06-03T09:39:08Z</time>
      </trkpt>
      <trkpt lat="43.72385" lon="3.53035">
        <ele>418.79</ele>
        <time>2013-06-03T09:39:10Z</time>
      </trkpt>
      <trkpt lat="43.72388" lon="3.53037">
        <ele>418.31</ele>
        <time>2013-06-03T09:39:23Z</time>
      </trkpt>
      <trkpt lat="43.72386" lon="3.5304">
        <ele>419.27</ele>
        <time>2013-06-03T09:39:27Z</time>
      </trkpt>
      <trkpt lat="43.72385" lon="3.53042">
        <ele>418.79</ele>
        <time>2013-06-03T09:39:29Z</time>
      </trkpt>
      <trkpt lat="43.72393" lon="3.53062">
        <ele>419.27</ele>
        <time>2013-06-03T09:39:43Z</time>
      </trkpt>
      <trkpt lat="43.72402" lon="3.53075">
        <ele>420.71</ele>
        <time>2013-06-03T09:39:55Z</time>
      </trkpt>
      <trkpt lat="43.72406" lon="3.53079">
        <ele>421.19</ele>
        <time>2013-06-03T09:39:59Z</time>
      </trkpt>
      <trkpt lat="43.72411" lon="3.53083">
        <ele>421.68</ele>
        <time>2013-06-03T09:40:04Z</time>
      </trkpt>
      <trkpt lat="43.72416" lon="3.53086">
        <ele>421.68</ele>
        <time>2013-06-03T09:40:10Z</time>
      </trkpt>
      <trkpt lat="43.72425" lon="3.53091">
        <ele>423.12</ele>
        <time>2013-06-03T09:40:18Z</time>
      </trkpt>
      <trkpt lat="43.7244" lon="3.53087">
        <ele>424.56</ele>
        <time>2013-06-03T09:40:33Z</time>
      </trkpt>
      <trkpt lat="43.72441" lon="3.53086">
        <ele>425.04</ele>
        <time>2013-06-03T09:40:35Z</time>
      </trkpt>
      <trkpt lat="43.7244" lon="3.5307">
        <ele>426.48</ele>
        <time>2013-06-03T09:40:48Z</time>
      </trkpt>
      <trkpt lat="43.72439" lon="3.53061">
        <ele>426.48</ele>
        <time>2013-06-03T09:40:53Z</time>
      </trkpt>
      <trkpt lat="43.72437" lon="3.53058">
        <ele>426.48</ele>
        <time>2013-06-03T09:40:55Z</time>
      </trkpt>
      <trkpt lat="43.72436" lon="3.53033">
        <ele>427.92</ele>
        <time>2013-06-03T09:41:11Z</time>
      </trkpt>
      <trkpt lat="43.72438" lon="3.53028">
        <ele>428.4</ele>
        <time>2013-06-03T09:41:16Z</time>
      </trkpt>
      <trkpt lat="43.72445" lon="3.53012">
        <ele>429.37</ele>
        <time>2013-06-03T09:41:29Z</time>
      </trkpt>
      <trkpt lat="43.72453" lon="3.53">
        <ele>430.33</ele>
        <time>2013-06-03T09:41:42Z</time>
      </trkpt>
      <trkpt lat="43.72458" lon="3.52991">
        <ele>431.29</ele>
        <time>2013-06-03T09:41:51Z</time>
      </trkpt>
      <trkpt lat="43.72465" lon="3.52976">
        <ele>431.77</ele>
        <time>2013-06-03T09:42:05Z</time>
      </trkpt>
      <trkpt lat="43.7247" lon="3.52966">
        <ele>434.65</ele>
        <time>2013-06-03T09:42:19Z</time>
      </trkpt>
      <trkpt lat="43.72474" lon="3.52965">
        <ele>436.58</ele>
        <time>2013-06-03T09:42:32Z</time>
      </trkpt>
      <trkpt lat="43.72477" lon="3.52964">
        <ele>438.02</ele>
        <time>2013-06-03T09:42:45Z</time>
      </trkpt>
      <trkpt lat="43.72478" lon="3.52963">
        <ele>438.5</ele>
        <time>2013-06-03T09:43:04Z</time>
      </trkpt>
      <trkpt lat="43.72479" lon="3.52961">
        <ele>438.02</ele>
        <time>2013-06-03T09:43:25Z</time>
      </trkpt>
      <trkpt lat="43.72478" lon="3.52961">
        <ele>437.06</ele>
        <time>2013-06-03T09:43:40Z</time>
      </trkpt>
      <trkpt lat="43.72478" lon="3.5296">
        <ele>437.06</ele>
        <time>2013-06-03T09:44:02Z</time>
      </trkpt>
      <trkpt lat="43.72478" lon="3.5296">
        <ele>436.58</ele>
        <time>2013-06-03T09:44:34Z</time>
      </trkpt>
      <trkpt lat="43.72479" lon="3.52961">
        <ele>437.06</ele>
        <time>2013-06-03T09:44:57Z</time>
      </trkpt>
      <trkpt lat="43.72479" lon="3.52962">
        <ele>437.54</ele>
        <time>2013-06-03T09:45:16Z</time>
      </trkpt>
      <trkpt lat="43.72481" lon="3.52969">
        <ele>438.02</ele>
        <time>2013-06-03T09:45:36Z</time>
      </trkpt>
      <trkpt lat="43.72485" lon="3.52981">
        <ele>438.98</ele>
        <time>2013-06-03T09:45:49Z</time>
      </trkpt>
      <trkpt lat="43.72488" lon="3.5298">
        <ele>439.94</ele>
        <time>2013-06-03T09:45:59Z</time>
      </trkpt>
      <trkpt lat="43.72492" lon="3.52974">
        <ele>441.86</ele>
        <time>2013-06-03T09:46:12Z</time>
      </trkpt>
      <trkpt lat="43.72495" lon="3.52966">
        <ele>442.34</ele>
        <time>2013-06-03T09:46:17Z</time>
      </trkpt>
      <trkpt lat="43.72496" lon="3.52956">
        <ele>441.86</ele>
        <time>2013-06-03T09:46:23Z</time>
      </trkpt>
      <trkpt lat="43.72502" lon="3.52935">
        <ele>443.79</ele>
        <time>2013-06-03T09:46:37Z</time>
      </trkpt>
      <trkpt lat="43.72502" lon="3.52932">
        <ele>443.79</ele>
        <time>2013-06-03T09:46:40Z</time>
      </trkpt>
      <trkpt lat="43.72505" lon="3.52914">
        <ele>445.23</ele>
        <time>2013-06-03T09:46:53Z</time>
      </trkpt>
      <trkpt lat="43.72506" lon="3.52906">
        <ele>441.86</ele>
        <time>2013-06-03T09:47:00Z</time>
      </trkpt>
      <trkpt lat="43.72506" lon="3.52905">
        <ele>446.19</ele>
        <time>2013-06-03T09:47:01Z</time>
      </trkpt>
      <trkpt lat="43.72506" lon="3.52905">
        <ele>443.31</ele>
        <time>2013-06-03T09:47:02Z</time>
      </trkpt>
      <trkpt lat="43.72506" lon="3.52905">
        <ele>447.15</ele>
        <time>2013-06-03T09:47:05Z</time>
      </trkpt>
      <trkpt lat="43.72506" lon="3.52905">
        <ele>446.19</ele>
        <time>2013-06-03T09:47:06Z</time>
      </trkpt>
      <trkpt lat="43.72506" lon="3.52904">
        <ele>440.42</ele>
        <time>2013-06-03T09:47:08Z</time>
      </trkpt>
      <trkpt lat="43.72506" lon="3.52904">
        <ele>446.19</ele>
        <time>2013-06-03T09:47:09Z</time>
      </trkpt>
      <trkpt lat="43.72506" lon="3.52903">
        <ele>437.54</ele>
        <time>2013-06-03T09:47:14Z</time>
      </trkpt>
      <trkpt lat="43.72506" lon="3.52903">
        <ele>438.98</ele>
        <time>2013-06-03T09:47:15Z</time>
      </trkpt>
      <trkpt lat="43.72506" lon="3.52903">
        <ele>445.71</ele>
        <time>2013-06-03T09:47:16Z</time>
      </trkpt>
      <trkpt lat="43.72506" lon="3.52903">
        <ele>444.27</ele>
        <time>2013-06-03T09:47:17Z</time>
      </trkpt>
      <trkpt lat="43.72506" lon="3.52903">
        <ele>441.38</ele>
        <time>2013-06-03T09:47:19Z</time>
      </trkpt>
      <trkpt lat="43.72506" lon="3.52903">
        <ele>451</ele>
        <time>2013-06-03T09:47:20Z</time>
      </trkpt>
      <trkpt lat="43.72506" lon="3.52903">
        <ele>447.63</ele>
        <time>2013-06-03T09:47:21Z</time>
      </trkpt>
      <trkpt lat="43.72508" lon="3.52893">
        <ele>447.15</ele>
        <time>2013-06-03T09:47:32Z</time>
      </trkpt>
      <trkpt lat="43.72508" lon="3.52885">
        <ele>436.1</ele>
        <time>2013-06-03T09:47:39Z</time>
      </trkpt>
      <trkpt lat="43.72508" lon="3.52884">
        <ele>448.59</ele>
        <time>2013-06-03T09:47:40Z</time>
      </trkpt>
      <trkpt lat="43.72509" lon="3.52881">
        <ele>445.23</ele>
        <time>2013-06-03T09:47:42Z</time>
      </trkpt>
      <trkpt lat="43.72509" lon="3.5288">
        <ele>448.11</ele>
        <time>2013-06-03T09:47:43Z</time>
      </trkpt>
      <trkpt lat="43.7251" lon="3.5287">
        <ele>447.63</ele>
        <time>2013-06-03T09:47:51Z</time>
      </trkpt>
      <trkpt lat="43.7251" lon="3.52865">
        <ele>448.59</ele>
        <time>2013-06-03T09:48:03Z</time>
      </trkpt>
      <trkpt lat="43.7251" lon="3.52864">
        <ele>444.75</ele>
        <time>2013-06-03T09:48:06Z</time>
      </trkpt>
      <trkpt lat="43.7251" lon="3.52863">
        <ele>449.55</ele>
        <time>2013-06-03T09:48:07Z</time>
      </trkpt>
      <trkpt lat="43.72511" lon="3.52851">
        <ele>452.92</ele>
        <time>2013-06-03T09:48:17Z</time>
      </trkpt>
      <trkpt lat="43.72511" lon="3.5285">
        <ele>449.07</ele>
        <time>2013-06-03T09:48:18Z</time>
      </trkpt>
      <trkpt lat="43.72511" lon="3.52849">
        <ele>445.71</ele>
        <time>2013-06-03T09:48:26Z</time>
      </trkpt>
      <trkpt lat="43.72511" lon="3.52849">
        <ele>449.55</ele>
        <time>2013-06-03T09:48:27Z</time>
      </trkpt>
      <trkpt lat="43.72512" lon="3.52843">
        <ele>445.71</ele>
        <time>2013-06-03T09:48:32Z</time>
      </trkpt>
      <trkpt lat="43.72512" lon="3.5284">
        <ele>449.55</ele>
        <time>2013-06-03T09:48:34Z</time>
      </trkpt>
      <trkpt lat="43.72512" lon="3.52839">
        <ele>438.5</ele>
        <time>2013-06-03T09:48:35Z</time>
      </trkpt>
      <trkpt lat="43.72512" lon="3.52838">
        <ele>461.09</ele>
        <time>2013-06-03T09:48:36Z</time>
      </trkpt>
      <trkpt lat="43.72512" lon="3.52836">
        <ele>449.55</ele>
        <time>2013-06-03T09:48:37Z</time>
      </trkpt>
      <trkpt lat="43.72515" lon="3.5282">
        <ele>451.96</ele>
        <time>2013-06-03T09:48:50Z</time>
      </trkpt>
      <trkpt lat="43.72516" lon="3.52819">
        <ele>438.98</ele>
        <time>2013-06-03T09:48:51Z</time>
      </trkpt>
      <trkpt lat="43.72516" lon="3.52818">
        <ele>452.92</ele>
        <time>2013-06-03T09:48:52Z</time>
      </trkpt>
      <trkpt lat="43.72519" lon="3.52802">
        <ele>451.48</ele>
        <time>2013-06-03T09:49:05Z</time>
      </trkpt>
      <trkpt lat="43.72519" lon="3.52799">
        <ele>451.96</ele>
        <time>2013-06-03T09:49:11Z</time>
      </trkpt>
      <trkpt lat="43.72521" lon="3.52795">
        <ele>452.44</ele>
        <time>2013-06-03T09:49:14Z</time>
      </trkpt>
      <trkpt lat="43.72526" lon="3.52784">
        <ele>452.92</ele>
        <time>2013-06-03T09:49:23Z</time>
      </trkpt>
      <trkpt lat="43.72533" lon="3.52769">
        <ele>454.84</ele>
        <time>2013-06-03T09:49:37Z</time>
      </trkpt>
      <trkpt lat="43.72539" lon="3.52757">
        <ele>458.21</ele>
        <time>2013-06-03T09:49:52Z</time>
      </trkpt>
      <trkpt lat="43.72541" lon="3.52755">
        <ele>460.61</ele>
        <time>2013-06-03T09:50:07Z</time>
      </trkpt>
      <trkpt lat="43.72542" lon="3.52752">
        <ele>462.05</ele>
        <time>2013-06-03T09:50:21Z</time>
      </trkpt>
      <trkpt lat="43.72546" lon="3.52747">
        <ele>465.42</ele>
        <time>2013-06-03T09:50:35Z</time>
      </trkpt>
      <trkpt lat="43.72549" lon="3.52741">
        <ele>467.82</ele>
        <time>2013-06-03T09:50:49Z</time>
      </trkpt>
      <trkpt lat="43.7255" lon="3.52735">
        <ele>469.26</ele>
        <time>2013-06-03T09:50:54Z</time>
      </trkpt>
      <trkpt lat="43.72558" lon="3.52723">
        <ele>471.18</ele>
        <time>2013-06-03T09:51:10Z</time>
      </trkpt>
      <trkpt lat="43.7257" lon="3.52717">
        <ele>473.59</ele>
        <time>2013-06-03T09:51:22Z</time>
      </trkpt>
      <trkpt lat="43.72583" lon="3.52709">
        <ele>475.03</ele>
        <time>2013-06-03T09:51:36Z</time>
      </trkpt>
      <trkpt lat="43.72588" lon="3.52706">
        <ele>475.99</ele>
        <time>2013-06-03T09:51:52Z</time>
      </trkpt>
      <trkpt lat="43.72589" lon="3.527">
        <ele>477.91</ele>
        <time>2013-06-03T09:52:04Z</time>
      </trkpt>
      <trkpt lat="43.72593" lon="3.52692">
        <ele>479.35</ele>
        <time>2013-06-03T09:52:15Z</time>
      </trkpt>
      <trkpt lat="43.72597" lon="3.52682">
        <ele>481.28</ele>
        <time>2013-06-03T09:52:28Z</time>
      </trkpt>
      <trkpt lat="43.72602" lon="3.52677">
        <ele>481.76</ele>
        <time>2013-06-03T09:52:43Z</time>
      </trkpt>
      <trkpt lat="43.72601" lon="3.52674">
        <ele>481.76</ele>
        <time>2013-06-03T09:53:00Z</time>
      </trkpt>
      <trkpt lat="43.72601" lon="3.52672">
        <ele>480.8</ele>
        <time>2013-06-03T09:53:19Z</time>
      </trkpt>
      <trkpt lat="43.726" lon="3.52666">
        <ele>479.84</ele>
        <time>2013-06-03T09:53:37Z</time>
      </trkpt>
      <trkpt lat="43.72599" lon="3.52662">
        <ele>479.84</ele>
        <time>2013-06-03T09:54:02Z</time>
      </trkpt>
      <trkpt lat="43.72599" lon="3.5266">
        <ele>479.84</ele>
        <time>2013-06-03T09:54:38Z</time>
      </trkpt>
      <trkpt lat="43.72599" lon="3.5266">
        <ele>479.84</ele>
        <time>2013-06-03T09:54:39Z</time>
      </trkpt>
      <trkpt lat="43.72599" lon="3.52658">
        <ele>480.32</ele>
        <time>2013-06-03T09:54:46Z</time>
      </trkpt>
      <trkpt lat="43.72602" lon="3.52656">
        <ele>481.28</ele>
        <time>2013-06-03T09:54:55Z</time>
      </trkpt>
      <trkpt lat="43.72603" lon="3.52656">
        <ele>481.28</ele>
        <time>2013-06-03T09:54:56Z</time>
      </trkpt>
      <trkpt lat="43.72605" lon="3.52654">
        <ele>481.76</ele>
        <time>2013-06-03T09:54:59Z</time>
      </trkpt>
      <trkpt lat="43.72608" lon="3.52649">
        <ele>482.72</ele>
        <time>2013-06-03T09:55:04Z</time>
      </trkpt>
      <trkpt lat="43.72614" lon="3.52634">
        <ele>483.68</ele>
        <time>2013-06-03T09:55:16Z</time>
      </trkpt>
      <trkpt lat="43.72616" lon="3.52631">
        <ele>484.64</ele>
        <time>2013-06-03T09:55:24Z</time>
      </trkpt>
      <trkpt lat="43.72623" lon="3.52621">
        <ele>487.05</ele>
        <time>2013-06-03T09:55:38Z</time>
      </trkpt>
      <trkpt lat="43.72625" lon="3.5262">
        <ele>488.97</ele>
        <time>2013-06-03T09:55:56Z</time>
      </trkpt>
      <trkpt lat="43.72628" lon="3.5262">
        <ele>488.49</ele>
        <time>2013-06-03T09:56:16Z</time>
      </trkpt>
      <trkpt lat="43.72628" lon="3.52619">
        <ele>488.97</ele>
        <time>2013-06-03T09:56:34Z</time>
      </trkpt>
      <trkpt lat="43.72629" lon="3.52618">
        <ele>489.45</ele>
        <time>2013-06-03T09:56:55Z</time>
      </trkpt>
      <trkpt lat="43.72631" lon="3.52617">
        <ele>491.37</ele>
        <time>2013-06-03T09:57:09Z</time>
      </trkpt>
      <trkpt lat="43.72633" lon="3.52616">
        <ele>492.33</ele>
        <time>2013-06-03T09:57:13Z</time>
      </trkpt>
      <trkpt lat="43.72635" lon="3.52615">
        <ele>495.22</ele>
        <time>2013-06-03T09:57:23Z</time>
      </trkpt>
      <trkpt lat="43.72642" lon="3.52612">
        <ele>496.18</ele>
        <time>2013-06-03T09:57:36Z</time>
      </trkpt>
      <trkpt lat="43.72649" lon="3.52608">
        <ele>498.58</ele>
        <time>2013-06-03T09:57:45Z</time>
      </trkpt>
      <trkpt lat="43.72652" lon="3.52607">
        <ele>498.1</ele>
        <time>2013-06-03T09:57:51Z</time>
      </trkpt>
      <trkpt lat="43.72654" lon="3.52604">
        <ele>499.06</ele>
        <time>2013-06-03T09:57:54Z</time>
      </trkpt>
      <trkpt lat="43.7266" lon="3.52598">
        <ele>499.54</ele>
        <time>2013-06-03T09:58:02Z</time>
      </trkpt>
      <trkpt lat="43.72661" lon="3.52598">
        <ele>498.58</ele>
        <time>2013-06-03T09:58:05Z</time>
      </trkpt>
      <trkpt lat="43.72665" lon="3.52588">
        <ele>500.02</ele>
        <time>2013-06-03T09:58:15Z</time>
      </trkpt>
      <trkpt lat="43.72666" lon="3.52586">
        <ele>500.02</ele>
        <time>2013-06-03T09:58:16Z</time>
      </trkpt>
      <trkpt lat="43.7267" lon="3.52581">
        <ele>500.5</ele>
        <time>2013-06-03T09:58:21Z</time>
      </trkpt>
      <trkpt lat="43.72677" lon="3.52574">
        <ele>500.98</ele>
        <time>2013-06-03T09:58:28Z</time>
      </trkpt>
      <trkpt lat="43.72689" lon="3.52565">
        <ele>502.91</ele>
        <time>2013-06-03T09:58:41Z</time>
      </trkpt>
      <trkpt lat="43.72696" lon="3.52558">
        <ele>502.91</ele>
        <time>2013-06-03T09:58:52Z</time>
      </trkpt>
      <trkpt lat="43.727" lon="3.52547">
        <ele>503.87</ele>
        <time>2013-06-03T09:59:03Z</time>
      </trkpt>
      <trkpt lat="43.72705" lon="3.52535">
        <ele>503.87</ele>
        <time>2013-06-03T09:59:16Z</time>
      </trkpt>
      <trkpt lat="43.72714" lon="3.52518">
        <ele>502.91</ele>
        <time>2013-06-03T09:59:30Z</time>
      </trkpt>
      <trkpt lat="43.72718" lon="3.52508">
        <ele>502.43</ele>
        <time>2013-06-03T09:59:43Z</time>
      </trkpt>
      <trkpt lat="43.72723" lon="3.52497">
        <ele>501.95</ele>
        <time>2013-06-03T09:59:52Z</time>
      </trkpt>
      <trkpt lat="43.72724" lon="3.52495">
        <ele>501.95</ele>
        <time>2013-06-03T09:59:53Z</time>
      </trkpt>
      <trkpt lat="43.72736" lon="3.52477">
        <ele>501.46</ele>
        <time>2013-06-03T10:00:07Z</time>
      </trkpt>
      <trkpt lat="43.72739" lon="3.52471">
        <ele>500.98</ele>
        <time>2013-06-03T10:00:12Z</time>
      </trkpt>
      <trkpt lat="43.72748" lon="3.52457">
        <ele>499.06</ele>
        <time>2013-06-03T10:00:24Z</time>
      </trkpt>
      <trkpt lat="43.72752" lon="3.52448">
        <ele>498.1</ele>
        <time>2013-06-03T10:00:36Z</time>
      </trkpt>
      <trkpt lat="43.72758" lon="3.52438">
        <ele>497.62</ele>
        <time>2013-06-03T10:00:47Z</time>
      </trkpt>
      <trkpt lat="43.72763" lon="3.52431">
        <ele>496.18</ele>
        <time>2013-06-03T10:00:57Z</time>
      </trkpt>
      <trkpt lat="43.72767" lon="3.52422">
        <ele>494.26</ele>
        <time>2013-06-03T10:01:07Z</time>
      </trkpt>
      <trkpt lat="43.7277" lon="3.52414">
        <ele>494.74</ele>
        <time>2013-06-03T10:01:19Z</time>
      </trkpt>
      <trkpt lat="43.72771" lon="3.52408">
        <ele>493.29</ele>
        <time>2013-06-03T10:01:31Z</time>
      </trkpt>
      <trkpt lat="43.72772" lon="3.52404">
        <ele>493.77</ele>
        <time>2013-06-03T10:01:36Z</time>
      </trkpt>
      <trkpt lat="43.72774" lon="3.52393">
        <ele>491.37</ele>
        <time>2013-06-03T10:01:49Z</time>
      </trkpt>
      <trkpt lat="43.72777" lon="3.52388">
        <ele>489.45</ele>
        <time>2013-06-03T10:02:02Z</time>
      </trkpt>
      <trkpt lat="43.72778" lon="3.52386">
        <ele>488.97</ele>
        <time>2013-06-03T10:02:07Z</time>
      </trkpt>
      <trkpt lat="43.7278" lon="3.52378">
        <ele>488.97</ele>
        <time>2013-06-03T10:02:12Z</time>
      </trkpt>
      <trkpt lat="43.72786" lon="3.52358">
        <ele>488.97</ele>
        <time>2013-06-03T10:02:23Z</time>
      </trkpt>
      <trkpt lat="43.72787" lon="3.52354">
        <ele>488.97</ele>
        <time>2013-06-03T10:02:25Z</time>
      </trkpt>
      <trkpt lat="43.72788" lon="3.52342">
        <ele>488.97</ele>
        <time>2013-06-03T10:02:39Z</time>
      </trkpt>
      <trkpt lat="43.72789" lon="3.52336">
        <ele>489.45</ele>
        <time>2013-06-03T10:02:43Z</time>
      </trkpt>
      <trkpt lat="43.72794" lon="3.52323">
        <ele>490.41</ele>
        <time>2013-06-03T10:02:55Z</time>
      </trkpt>
      <trkpt lat="43.72793" lon="3.52318">
        <ele>490.41</ele>
        <time>2013-06-03T10:03:08Z</time>
      </trkpt>
      <trkpt lat="43.72794" lon="3.52317">
        <ele>490.41</ele>
        <time>2013-06-03T10:03:25Z</time>
      </trkpt>
      <trkpt lat="43.72794" lon="3.52316">
        <ele>490.89</ele>
        <time>2013-06-03T10:03:43Z</time>
      </trkpt>
      <trkpt lat="43.72795" lon="3.52317">
        <ele>490.89</ele>
        <time>2013-06-03T10:03:58Z</time>
      </trkpt>
      <trkpt lat="43.72796" lon="3.52316">
        <ele>489.45</ele>
        <time>2013-06-03T10:04:17Z</time>
      </trkpt>
      <trkpt lat="43.72796" lon="3.52317">
        <ele>490.89</ele>
        <time>2013-06-03T10:04:38Z</time>
      </trkpt>
      <trkpt lat="43.72797" lon="3.52319">
        <ele>489.45</ele>
        <time>2013-06-03T10:04:56Z</time>
      </trkpt>
      <trkpt lat="43.72798" lon="3.52319">
        <ele>488.97</ele>
        <time>2013-06-03T10:05:08Z</time>
      </trkpt>
      <trkpt lat="43.728" lon="3.52316">
        <ele>488.97</ele>
        <time>2013-06-03T10:05:11Z</time>
      </trkpt>
      <trkpt lat="43.72802" lon="3.52311">
        <ele>489.93</ele>
        <time>2013-06-03T10:05:15Z</time>
      </trkpt>
      <trkpt lat="43.72813" lon="3.52296">
        <ele>489.93</ele>
        <time>2013-06-03T10:05:26Z</time>
      </trkpt>
      <trkpt lat="43.72817" lon="3.52286">
        <ele>490.41</ele>
        <time>2013-06-03T10:05:36Z</time>
      </trkpt>
      <trkpt lat="43.7282" lon="3.52283">
        <ele>489.93</ele>
        <time>2013-06-03T10:05:40Z</time>
      </trkpt>
      <trkpt lat="43.72822" lon="3.52283">
        <ele>489.93</ele>
        <time>2013-06-03T10:05:42Z</time>
      </trkpt>
      <trkpt lat="43.72828" lon="3.52276">
        <ele>490.41</ele>
        <time>2013-06-03T10:06:01Z</time>
      </trkpt>
      <trkpt lat="43.72835" lon="3.52267">
        <ele>490.41</ele>
        <time>2013-06-03T10:06:15Z</time>
      </trkpt>
      <trkpt lat="43.72844" lon="3.52257">
        <ele>490.41</ele>
        <time>2013-06-03T10:06:30Z</time>
      </trkpt>
      <trkpt lat="43.72854" lon="3.5225">
        <ele>489.93</ele>
        <time>2013-06-03T10:06:43Z</time>
      </trkpt>
      <trkpt lat="43.72859" lon="3.52246">
        <ele>490.41</ele>
        <time>2013-06-03T10:06:47Z</time>
      </trkpt>
      <trkpt lat="43.72871" lon="3.52235">
        <ele>489.93</ele>
        <time>2013-06-03T10:07:01Z</time>
      </trkpt>
      <trkpt lat="43.72876" lon="3.52234">
        <ele>488.97</ele>
        <time>2013-06-03T10:07:06Z</time>
      </trkpt>
      <trkpt lat="43.72899" lon="3.5223">
        <ele>488.49</ele>
        <time>2013-06-03T10:07:18Z</time>
      </trkpt>
      <trkpt lat="43.72908" lon="3.52233">
        <ele>488.01</ele>
        <time>2013-06-03T10:07:29Z</time>
      </trkpt>
      <trkpt lat="43.72902" lon="3.52247">
        <ele>488.97</ele>
        <time>2013-06-03T10:07:40Z</time>
      </trkpt>
      <trkpt lat="43.72898" lon="3.52257">
        <ele>489.45</ele>
        <time>2013-06-03T10:07:50Z</time>
      </trkpt>
      <trkpt lat="43.72895" lon="3.52266">
        <ele>488.97</ele>
        <time>2013-06-03T10:07:57Z</time>
      </trkpt>
      <trkpt lat="43.72893" lon="3.52275">
        <ele>488.97</ele>
        <time>2013-06-03T10:08:07Z</time>
      </trkpt>
      <trkpt lat="43.72893" lon="3.52286">
        <ele>489.93</ele>
        <time>2013-06-03T10:08:17Z</time>
      </trkpt>
      <trkpt lat="43.72893" lon="3.52291">
        <ele>489.93</ele>
        <time>2013-06-03T10:08:30Z</time>
      </trkpt>
      <trkpt lat="43.72892" lon="3.52292">
        <ele>489.45</ele>
        <time>2013-06-03T10:09:01Z</time>
      </trkpt>
      <trkpt lat="43.7289" lon="3.52296">
        <ele>489.45</ele>
        <time>2013-06-03T10:09:17Z</time>
      </trkpt>
      <trkpt lat="43.72885" lon="3.52306">
        <ele>489.93</ele>
        <time>2013-06-03T10:09:27Z</time>
      </trkpt>
      <trkpt lat="43.72882" lon="3.52311">
        <ele>489.45</ele>
        <time>2013-06-03T10:09:33Z</time>
      </trkpt>
      <trkpt lat="43.7288" lon="3.52314">
        <ele>490.41</ele>
        <time>2013-06-03T10:09:35Z</time>
      </trkpt>
      <trkpt lat="43.72878" lon="3.52323">
        <ele>489.93</ele>
        <time>2013-06-03T10:09:44Z</time>
      </trkpt>
      <trkpt lat="43.72879" lon="3.52336">
        <ele>491.37</ele>
        <time>2013-06-03T10:09:51Z</time>
      </trkpt>
      <trkpt lat="43.72879" lon="3.52341">
        <ele>491.85</ele>
        <time>2013-06-03T10:09:54Z</time>
      </trkpt>
      <trkpt lat="43.7288" lon="3.52351">
        <ele>491.85</ele>
        <time>2013-06-03T10:09:59Z</time>
      </trkpt>
      <trkpt lat="43.72881" lon="3.52356">
        <ele>490.89</ele>
        <time>2013-06-03T10:10:02Z</time>
      </trkpt>
      <trkpt lat="43.72881" lon="3.52358">
        <ele>490.89</ele>
        <time>2013-06-03T10:10:04Z</time>
      </trkpt>
      <trkpt lat="43.72881" lon="3.5236">
        <ele>491.37</ele>
        <time>2013-06-03T10:10:06Z</time>
      </trkpt>
      <trkpt lat="43.72884" lon="3.52369">
        <ele>492.81</ele>
        <time>2013-06-03T10:10:16Z</time>
      </trkpt>
      <trkpt lat="43.72885" lon="3.52372">
        <ele>493.77</ele>
        <time>2013-06-03T10:10:18Z</time>
      </trkpt>
      <trkpt lat="43.72885" lon="3.52372">
        <ele>493.77</ele>
        <time>2013-06-03T10:10:19Z</time>
      </trkpt>
      <trkpt lat="43.72892" lon="3.52373">
        <ele>492.81</ele>
        <time>2013-06-03T10:10:28Z</time>
      </trkpt>
      <trkpt lat="43.72894" lon="3.52373">
        <ele>494.26</ele>
        <time>2013-06-03T10:10:32Z</time>
      </trkpt>
      <trkpt lat="43.72899" lon="3.5237">
        <ele>494.26</ele>
        <time>2013-06-03T10:10:41Z</time>
      </trkpt>
      <trkpt lat="43.729" lon="3.52369">
        <ele>494.74</ele>
        <time>2013-06-03T10:10:43Z</time>
      </trkpt>
      <trkpt lat="43.72911" lon="3.52372">
        <ele>495.22</ele>
        <time>2013-06-03T10:10:53Z</time>
      </trkpt>
      <trkpt lat="43.72919" lon="3.5237">
        <ele>496.66</ele>
        <time>2013-06-03T10:11:04Z</time>
      </trkpt>
      <trkpt lat="43.72923" lon="3.5237">
        <ele>497.14</ele>
        <time>2013-06-03T10:11:07Z</time>
      </trkpt>
      <trkpt lat="43.72939" lon="3.52375">
        <ele>497.62</ele>
        <time>2013-06-03T10:11:20Z</time>
      </trkpt>
      <trkpt lat="43.72944" lon="3.52374">
        <ele>497.62</ele>
        <time>2013-06-03T10:11:22Z</time>
      </trkpt>
      <trkpt lat="43.72965" lon="3.52381">
        <ele>497.14</ele>
        <time>2013-06-03T10:11:34Z</time>
      </trkpt>
      <trkpt lat="43.72971" lon="3.52383">
        <ele>497.62</ele>
        <time>2013-06-03T10:11:37Z</time>
      </trkpt>
      <trkpt lat="43.72973" lon="3.52388">
        <ele>497.62</ele>
        <time>2013-06-03T10:11:44Z</time>
      </trkpt>
      <trkpt lat="43.72968" lon="3.52398">
        <ele>498.58</ele>
        <time>2013-06-03T10:11:54Z</time>
      </trkpt>
      <trkpt lat="43.72965" lon="3.52403">
        <ele>498.58</ele>
        <time>2013-06-03T10:11:56Z</time>
      </trkpt>
      <trkpt lat="43.72956" lon="3.52418">
        <ele>499.06</ele>
        <time>2013-06-03T10:12:02Z</time>
      </trkpt>
      <trkpt lat="43.7295" lon="3.52427">
        <ele>498.58</ele>
        <time>2013-06-03T10:12:07Z</time>
      </trkpt>
      <trkpt lat="43.72946" lon="3.52433">
        <ele>498.58</ele>
        <time>2013-06-03T10:12:11Z</time>
      </trkpt>
      <trkpt lat="43.7294" lon="3.52454">
        <ele>499.54</ele>
        <time>2013-06-03T10:12:26Z</time>
      </trkpt>
      <trkpt lat="43.72941" lon="3.52467">
        <ele>500.98</ele>
        <time>2013-06-03T10:12:37Z</time>
      </trkpt>
      <trkpt lat="43.72939" lon="3.52485">
        <ele>501.95</ele>
        <time>2013-06-03T10:12:48Z</time>
      </trkpt>
      <trkpt lat="43.72939" lon="3.52494">
        <ele>502.43</ele>
        <time>2013-06-03T10:12:56Z</time>
      </trkpt>
      <trkpt lat="43.72939" lon="3.52499">
        <ele>502.43</ele>
        <time>2013-06-03T10:12:58Z</time>
      </trkpt>
      <trkpt lat="43.72935" lon="3.52522">
        <ele>503.39</ele>
        <time>2013-06-03T10:13:11Z</time>
      </trkpt>
      <trkpt lat="43.72934" lon="3.52536">
        <ele>504.83</ele>
        <time>2013-06-03T10:13:22Z</time>
      </trkpt>
      <trkpt lat="43.72934" lon="3.52545">
        <ele>505.79</ele>
        <time>2013-06-03T10:13:28Z</time>
      </trkpt>
      <trkpt lat="43.72934" lon="3.52562">
        <ele>507.23</ele>
        <time>2013-06-03T10:13:40Z</time>
      </trkpt>
      <trkpt lat="43.72936" lon="3.52566">
        <ele>507.71</ele>
        <time>2013-06-03T10:13:43Z</time>
      </trkpt>
      <trkpt lat="43.72939" lon="3.52569">
        <ele>508.67</ele>
        <time>2013-06-03T10:13:47Z</time>
      </trkpt>
      <trkpt lat="43.72941" lon="3.52572">
        <ele>508.67</ele>
        <time>2013-06-03T10:13:51Z</time>
      </trkpt>
      <trkpt lat="43.72945" lon="3.52579">
        <ele>509.64</ele>
        <time>2013-06-03T10:13:57Z</time>
      </trkpt>
      <trkpt lat="43.72947" lon="3.5258">
        <ele>510.6</ele>
        <time>2013-06-03T10:14:00Z</time>
      </trkpt>
      <trkpt lat="43.72955" lon="3.52583">
        <ele>510.6</ele>
        <time>2013-06-03T10:14:08Z</time>
      </trkpt>
      <trkpt lat="43.72962" lon="3.52583">
        <ele>511.56</ele>
        <time>2013-06-03T10:14:16Z</time>
      </trkpt>
      <trkpt lat="43.7297" lon="3.52585">
        <ele>512.04</ele>
        <time>2013-06-03T10:14:28Z</time>
      </trkpt>
      <trkpt lat="43.72976" lon="3.52584">
        <ele>512.04</ele>
        <time>2013-06-03T10:14:37Z</time>
      </trkpt>
      <trkpt lat="43.72987" lon="3.5258">
        <ele>513.48</ele>
        <time>2013-06-03T10:14:52Z</time>
      </trkpt>
      <trkpt lat="43.73003" lon="3.52578">
        <ele>514.44</ele>
        <time>2013-06-03T10:15:06Z</time>
      </trkpt>
      <trkpt lat="43.73017" lon="3.52575">
        <ele>516.37</ele>
        <time>2013-06-03T10:15:20Z</time>
      </trkpt>
      <trkpt lat="43.73018" lon="3.52574">
        <ele>515.88</ele>
        <time>2013-06-03T10:15:21Z</time>
      </trkpt>
      <trkpt lat="43.7302" lon="3.52574">
        <ele>516.37</ele>
        <time>2013-06-03T10:15:23Z</time>
      </trkpt>
      <trkpt lat="43.73032" lon="3.52576">
        <ele>517.33</ele>
        <time>2013-06-03T10:15:37Z</time>
      </trkpt>
      <trkpt lat="43.73045" lon="3.52578">
        <ele>519.25</ele>
        <time>2013-06-03T10:15:53Z</time>
      </trkpt>
      <trkpt lat="43.7305" lon="3.52582">
        <ele>519.73</ele>
        <time>2013-06-03T10:16:00Z</time>
      </trkpt>
      <trkpt lat="43.73059" lon="3.52585">
        <ele>520.69</ele>
        <time>2013-06-03T10:16:13Z</time>
      </trkpt>
      <trkpt lat="43.73063" lon="3.52586">
        <ele>521.17</ele>
        <time>2013-06-03T10:16:18Z</time>
      </trkpt>
      <trkpt lat="43.73076" lon="3.52592">
        <ele>522.61</ele>
        <time>2013-06-03T10:16:32Z</time>
      </trkpt>
      <trkpt lat="43.73083" lon="3.526">
        <ele>523.58</ele>
        <time>2013-06-03T10:16:45Z</time>
      </trkpt>
      <trkpt lat="43.73087" lon="3.52606">
        <ele>523.58</ele>
        <time>2013-06-03T10:16:52Z</time>
      </trkpt>
      <trkpt lat="43.73093" lon="3.52615">
        <ele>525.02</ele>
        <time>2013-06-03T10:17:03Z</time>
      </trkpt>
      <trkpt lat="43.731" lon="3.52625">
        <ele>526.46</ele>
        <time>2013-06-03T10:17:15Z</time>
      </trkpt>
      <trkpt lat="43.73108" lon="3.52634">
        <ele>527.42</ele>
        <time>2013-06-03T10:17:26Z</time>
      </trkpt>
      <trkpt lat="43.73114" lon="3.52638">
        <ele>528.38</ele>
        <time>2013-06-03T10:17:34Z</time>
      </trkpt>
      <trkpt lat="43.73118" lon="3.52642">
        <ele>528.38</ele>
        <time>2013-06-03T10:17:39Z</time>
      </trkpt>
      <trkpt lat="43.73128" lon="3.52651">
        <ele>529.82</ele>
        <time>2013-06-03T10:17:53Z</time>
      </trkpt>
      <trkpt lat="43.7313" lon="3.52653">
        <ele>530.3</ele>
        <time>2013-06-03T10:17:56Z</time>
      </trkpt>
      <trkpt lat="43.73138" lon="3.52657">
        <ele>531.27</ele>
        <time>2013-06-03T10:18:09Z</time>
      </trkpt>
      <trkpt lat="43.73146" lon="3.52661">
        <ele>531.75</ele>
        <time>2013-06-03T10:18:18Z</time>
      </trkpt>
      <trkpt lat="43.73152" lon="3.52664">
        <ele>533.19</ele>
        <time>2013-06-03T10:18:24Z</time>
      </trkpt>
      <trkpt lat="43.73164" lon="3.52672">
        <ele>534.15</ele>
        <time>2013-06-03T10:18:39Z</time>
      </trkpt>
      <trkpt lat="43.7317" lon="3.52675">
        <ele>534.63</ele>
        <time>2013-06-03T10:18:53Z</time>
      </trkpt>
      <trkpt lat="43.73174" lon="3.52679">
        <ele>534.63</ele>
        <time>2013-06-03T10:19:00Z</time>
      </trkpt>
      <trkpt lat="43.73181" lon="3.52683">
        <ele>535.11</ele>
        <time>2013-06-03T10:19:09Z</time>
      </trkpt>
      <trkpt lat="43.73188" lon="3.52688">
        <ele>537.03</ele>
        <time>2013-06-03T10:19:22Z</time>
      </trkpt>
      <trkpt lat="43.73192" lon="3.5269">
        <ele>537.51</ele>
        <time>2013-06-03T10:19:26Z</time>
      </trkpt>
      <trkpt lat="43.73203" lon="3.52697">
        <ele>537.99</ele>
        <time>2013-06-03T10:19:40Z</time>
      </trkpt>
      <trkpt lat="43.73208" lon="3.52701">
        <ele>538.96</ele>
        <time>2013-06-03T10:19:52Z</time>
      </trkpt>
      <trkpt lat="43.73212" lon="3.52704">
        <ele>538.96</ele>
        <time>2013-06-03T10:20:08Z</time>
      </trkpt>
      <trkpt lat="43.73221" lon="3.5271">
        <ele>539.92</ele>
        <time>2013-06-03T10:20:22Z</time>
      </trkpt>
      <trkpt lat="43.73229" lon="3.52714">
        <ele>540.88</ele>
        <time>2013-06-03T10:20:38Z</time>
      </trkpt>
      <trkpt lat="43.73234" lon="3.52719">
        <ele>541.84</ele>
        <time>2013-06-03T10:20:51Z</time>
      </trkpt>
      <trkpt lat="43.73235" lon="3.52719">
        <ele>541.84</ele>
        <time>2013-06-03T10:21:08Z</time>
      </trkpt>
      <trkpt lat="43.73244" lon="3.52724">
        <ele>543.28</ele>
        <time>2013-06-03T10:21:20Z</time>
      </trkpt>
      <trkpt lat="43.73245" lon="3.52725">
        <ele>543.28</ele>
        <time>2013-06-03T10:21:21Z</time>
      </trkpt>
      <trkpt lat="43.73255" lon="3.52725">
        <ele>542.32</ele>
        <time>2013-06-03T10:21:36Z</time>
      </trkpt>
      <trkpt lat="43.73254" lon="3.52723">
        <ele>543.76</ele>
        <time>2013-06-03T10:21:48Z</time>
      </trkpt>
      <trkpt lat="43.73253" lon="3.52724">
        <ele>543.28</ele>
        <time>2013-06-03T10:21:59Z</time>
      </trkpt>
      <trkpt lat="43.73253" lon="3.52723">
        <ele>543.28</ele>
        <time>2013-06-03T10:22:10Z</time>
      </trkpt>
      <trkpt lat="43.73256" lon="3.52725">
        <ele>543.28</ele>
        <time>2013-06-03T10:22:23Z</time>
      </trkpt>
      <trkpt lat="43.73256" lon="3.52726">
        <ele>541.84</ele>
        <time>2013-06-03T10:22:42Z</time>
      </trkpt>
      <trkpt lat="43.73256" lon="3.52726">
        <ele>545.2</ele>
        <time>2013-06-03T10:22:44Z</time>
      </trkpt>
      <trkpt lat="43.7326" lon="3.52723">
        <ele>543.28</ele>
        <time>2013-06-03T10:23:00Z</time>
      </trkpt>
      <trkpt lat="43.7326" lon="3.52722">
        <ele>544.24</ele>
        <time>2013-06-03T10:23:01Z</time>
      </trkpt>
      <trkpt lat="43.73273" lon="3.52725">
        <ele>542.8</ele>
        <time>2013-06-03T10:23:15Z</time>
      </trkpt>
      <trkpt lat="43.7328" lon="3.52724">
        <ele>542.8</ele>
        <time>2013-06-03T10:23:23Z</time>
      </trkpt>
      <trkpt lat="43.7329" lon="3.52724">
        <ele>541.36</ele>
        <time>2013-06-03T10:23:37Z</time>
      </trkpt>
      <trkpt lat="43.73301" lon="3.52726">
        <ele>540.88</ele>
        <time>2013-06-03T10:23:50Z</time>
      </trkpt>
      <trkpt lat="43.73307" lon="3.5273">
        <ele>538.96</ele>
        <time>2013-06-03T10:23:57Z</time>
      </trkpt>
      <trkpt lat="43.73312" lon="3.52732">
        <ele>538.96</ele>
        <time>2013-06-03T10:24:02Z</time>
      </trkpt>
      <trkpt lat="43.73328" lon="3.52737">
        <ele>537.51</ele>
        <time>2013-06-03T10:24:17Z</time>
      </trkpt>
      <trkpt lat="43.73341" lon="3.52744">
        <ele>537.03</ele>
        <time>2013-06-03T10:24:29Z</time>
      </trkpt>
      <trkpt lat="43.73343" lon="3.52745">
        <ele>537.03</ele>
        <time>2013-06-03T10:24:31Z</time>
      </trkpt>
      <trkpt lat="43.7335" lon="3.52747">
        <ele>537.03</ele>
        <time>2013-06-03T10:24:37Z</time>
      </trkpt>
      <trkpt lat="43.73363" lon="3.52752">
        <ele>537.99</ele>
        <time>2013-06-03T10:24:52Z</time>
      </trkpt>
      <trkpt lat="43.73367" lon="3.52754">
        <ele>538.48</ele>
        <time>2013-06-03T10:24:56Z</time>
      </trkpt>
      <trkpt lat="43.73372" lon="3.52756">
        <ele>538.48</ele>
        <time>2013-06-03T10:25:02Z</time>
      </trkpt>
      <trkpt lat="43.73384" lon="3.52763">
        <ele>538.96</ele>
        <time>2013-06-03T10:25:14Z</time>
      </trkpt>
      <trkpt lat="43.7339" lon="3.52764">
        <ele>538.96</ele>
        <time>2013-06-03T10:25:20Z</time>
      </trkpt>
      <trkpt lat="43.73393" lon="3.52765">
        <ele>539.44</ele>
        <time>2013-06-03T10:25:23Z</time>
      </trkpt>
      <trkpt lat="43.73406" lon="3.52767">
        <ele>539.92</ele>
        <time>2013-06-03T10:25:37Z</time>
      </trkpt>
      <trkpt lat="43.73411" lon="3.52768">
        <ele>540.4</ele>
        <time>2013-06-03T10:25:42Z</time>
      </trkpt>
      <trkpt lat="43.73426" lon="3.52776">
        <ele>540.88</ele>
        <time>2013-06-03T10:25:58Z</time>
      </trkpt>
      <trkpt lat="43.73441" lon="3.52781">
        <ele>542.32</ele>
        <time>2013-06-03T10:26:12Z</time>
      </trkpt>
      <trkpt lat="43.73452" lon="3.52785">
        <ele>542.8</ele>
        <time>2013-06-03T10:26:24Z</time>
      </trkpt>
      <trkpt lat="43.73464" lon="3.52788">
        <ele>542.8</ele>
        <time>2013-06-03T10:26:37Z</time>
      </trkpt>
      <trkpt lat="43.73465" lon="3.52788">
        <ele>543.28</ele>
        <time>2013-06-03T10:26:38Z</time>
      </trkpt>
      <trkpt lat="43.73478" lon="3.52794">
        <ele>543.28</ele>
        <time>2013-06-03T10:26:50Z</time>
      </trkpt>
      <trkpt lat="43.73482" lon="3.52796">
        <ele>543.28</ele>
        <time>2013-06-03T10:26:54Z</time>
      </trkpt>
      <trkpt lat="43.73485" lon="3.52798">
        <ele>543.28</ele>
        <time>2013-06-03T10:26:57Z</time>
      </trkpt>
      <trkpt lat="43.73488" lon="3.52799">
        <ele>543.28</ele>
        <time>2013-06-03T10:27:00Z</time>
      </trkpt>
      <trkpt lat="43.73493" lon="3.52802">
        <ele>542.32</ele>
        <time>2013-06-03T10:27:04Z</time>
      </trkpt>
      <trkpt lat="43.73506" lon="3.52808">
        <ele>543.76</ele>
        <time>2013-06-03T10:27:17Z</time>
      </trkpt>
      <trkpt lat="43.73507" lon="3.52809">
        <ele>543.28</ele>
        <time>2013-06-03T10:27:18Z</time>
      </trkpt>
      <trkpt lat="43.7351" lon="3.52823">
        <ele>541.36</ele>
        <time>2013-06-03T10:27:27Z</time>
      </trkpt>
      <trkpt lat="43.73511" lon="3.52831">
        <ele>540.88</ele>
        <time>2013-06-03T10:27:32Z</time>
      </trkpt>
      <trkpt lat="43.73511" lon="3.52838">
        <ele>540.4</ele>
        <time>2013-06-03T10:27:37Z</time>
      </trkpt>
      <trkpt lat="43.73511" lon="3.52841">
        <ele>539.92</ele>
        <time>2013-06-03T10:27:39Z</time>
      </trkpt>
      <trkpt lat="43.73511" lon="3.52848">
        <ele>538.96</ele>
        <time>2013-06-03T10:27:45Z</time>
      </trkpt>
      <trkpt lat="43.73512" lon="3.52861">
        <ele>536.07</ele>
        <time>2013-06-03T10:27:58Z</time>
      </trkpt>
      <trkpt lat="43.73512" lon="3.52867">
        <ele>535.11</ele>
        <time>2013-06-03T10:28:09Z</time>
      </trkpt>
      <trkpt lat="43.73511" lon="3.52874">
        <ele>534.15</ele>
        <time>2013-06-03T10:28:22Z</time>
      </trkpt>
      <trkpt lat="43.73511" lon="3.52875">
        <ele>534.15</ele>
        <time>2013-06-03T10:28:35Z</time>
      </trkpt>
      <trkpt lat="43.73511" lon="3.52881">
        <ele>532.23</ele>
        <time>2013-06-03T10:28:50Z</time>
      </trkpt>
      <trkpt lat="43.73508" lon="3.52882">
        <ele>532.71</ele>
        <time>2013-06-03T10:29:05Z</time>
      </trkpt>
      <trkpt lat="43.73509" lon="3.52884">
        <ele>532.71</ele>
        <time>2013-06-03T10:29:21Z</time>
      </trkpt>
      <trkpt lat="43.73507" lon="3.52882">
        <ele>532.71</ele>
        <time>2013-06-03T10:29:36Z</time>
      </trkpt>
      <trkpt lat="43.73506" lon="3.52882">
        <ele>532.71</ele>
        <time>2013-06-03T10:29:52Z</time>
      </trkpt>
      <trkpt lat="43.73507" lon="3.52881">
        <ele>532.23</ele>
        <time>2013-06-03T10:30:06Z</time>
      </trkpt>
      <trkpt lat="43.73507" lon="3.52881">
        <ele>531.27</ele>
        <time>2013-06-03T10:30:19Z</time>
      </trkpt>
      <trkpt lat="43.73506" lon="3.52883">
        <ele>531.75</ele>
        <time>2013-06-03T10:30:32Z</time>
      </trkpt>
      <trkpt lat="43.73505" lon="3.52884">
        <ele>532.23</ele>
        <time>2013-06-03T10:30:50Z</time>
      </trkpt>
      <trkpt lat="43.73507" lon="3.52883">
        <ele>532.23</ele>
        <time>2013-06-03T10:31:12Z</time>
      </trkpt>
      <trkpt lat="43.73508" lon="3.52883">
        <ele>533.19</ele>
        <time>2013-06-03T10:31:18Z</time>
      </trkpt>
      <trkpt lat="43.73508" lon="3.52882">
        <ele>534.15</ele>
        <time>2013-06-03T10:31:42Z</time>
      </trkpt>
      <trkpt lat="43.73508" lon="3.52882">
        <ele>534.15</ele>
        <time>2013-06-03T10:32:00Z</time>
      </trkpt>
      <trkpt lat="43.73507" lon="3.52883">
        <ele>534.15</ele>
        <time>2013-06-03T10:32:15Z</time>
      </trkpt>
      <trkpt lat="43.73507" lon="3.52883">
        <ele>533.19</ele>
        <time>2013-06-03T10:32:36Z</time>
      </trkpt>
      <trkpt lat="43.73507" lon="3.52883">
        <ele>532.71</ele>
        <time>2013-06-03T10:32:57Z</time>
      </trkpt>
      <trkpt lat="43.73507" lon="3.52883">
        <ele>533.19</ele>
        <time>2013-06-03T10:33:17Z</time>
      </trkpt>
      <trkpt lat="43.7351" lon="3.52881">
        <ele>532.23</ele>
        <time>2013-06-03T10:33:42Z</time>
      </trkpt>
      <trkpt lat="43.73514" lon="3.52878">
        <ele>533.67</ele>
        <time>2013-06-03T10:33:53Z</time>
      </trkpt>
      <trkpt lat="43.73513" lon="3.52872">
        <ele>534.15</ele>
        <time>2013-06-03T10:34:12Z</time>
      </trkpt>
      <trkpt lat="43.73513" lon="3.52864">
        <ele>536.07</ele>
        <time>2013-06-03T10:34:20Z</time>
      </trkpt>
      <trkpt lat="43.73513" lon="3.52853">
        <ele>538.48</ele>
        <time>2013-06-03T10:34:32Z</time>
      </trkpt>
      <trkpt lat="43.73513" lon="3.52848">
        <ele>539.92</ele>
        <time>2013-06-03T10:34:37Z</time>
      </trkpt>
      <trkpt lat="43.73512" lon="3.52841">
        <ele>540.4</ele>
        <time>2013-06-03T10:34:41Z</time>
      </trkpt>
      <trkpt lat="43.73509" lon="3.5282">
        <ele>541.84</ele>
        <time>2013-06-03T10:34:54Z</time>
      </trkpt>
      <trkpt lat="43.73508" lon="3.52812">
        <ele>542.32</ele>
        <time>2013-06-03T10:34:59Z</time>
      </trkpt>
      <trkpt lat="43.73502" lon="3.52806">
        <ele>542.8</ele>
        <time>2013-06-03T10:35:06Z</time>
      </trkpt>
      <trkpt lat="43.73493" lon="3.52802">
        <ele>543.28</ele>
        <time>2013-06-03T10:35:14Z</time>
      </trkpt>
      <trkpt lat="43.7349" lon="3.52801">
        <ele>542.8</ele>
        <time>2013-06-03T10:35:17Z</time>
      </trkpt>
      <trkpt lat="43.7348" lon="3.52796">
        <ele>543.28</ele>
        <time>2013-06-03T10:35:27Z</time>
      </trkpt>
      <trkpt lat="43.73467" lon="3.5279">
        <ele>542.8</ele>
        <time>2013-06-03T10:35:41Z</time>
      </trkpt>
      <trkpt lat="43.73452" lon="3.52786">
        <ele>542.32</ele>
        <time>2013-06-03T10:35:53Z</time>
      </trkpt>
      <trkpt lat="43.73437" lon="3.52779">
        <ele>541.36</ele>
        <time>2013-06-03T10:36:05Z</time>
      </trkpt>
      <trkpt lat="43.73427" lon="3.52777">
        <ele>539.92</ele>
        <time>2013-06-03T10:36:14Z</time>
      </trkpt>
      <trkpt lat="43.73409" lon="3.52769">
        <ele>539.92</ele>
        <time>2013-06-03T10:36:28Z</time>
      </trkpt>
      <trkpt lat="43.73394" lon="3.52764">
        <ele>539.44</ele>
        <time>2013-06-03T10:36:40Z</time>
      </trkpt>
      <trkpt lat="43.73379" lon="3.52758">
        <ele>538.96</ele>
        <time>2013-06-03T10:36:52Z</time>
      </trkpt>
      <trkpt lat="43.73373" lon="3.52755">
        <ele>539.44</ele>
        <time>2013-06-03T10:37:00Z</time>
      </trkpt>
      <trkpt lat="43.73367" lon="3.52753">
        <ele>538.48</ele>
        <time>2013-06-03T10:37:08Z</time>
      </trkpt>
      <trkpt lat="43.73356" lon="3.52749">
        <ele>537.99</ele>
        <time>2013-06-03T10:37:17Z</time>
      </trkpt>
      <trkpt lat="43.73344" lon="3.52744">
        <ele>537.03</ele>
        <time>2013-06-03T10:37:28Z</time>
      </trkpt>
      <trkpt lat="43.73337" lon="3.52742">
        <ele>537.99</ele>
        <time>2013-06-03T10:37:34Z</time>
      </trkpt>
      <trkpt lat="43.73333" lon="3.5274">
        <ele>537.51</ele>
        <time>2013-06-03T10:37:38Z</time>
      </trkpt>
      <trkpt lat="43.7332" lon="3.52734">
        <ele>538.48</ele>
        <time>2013-06-03T10:37:50Z</time>
      </trkpt>
      <trkpt lat="43.73306" lon="3.52729">
        <ele>539.92</ele>
        <time>2013-06-03T10:38:03Z</time>
      </trkpt>
      <trkpt lat="43.73293" lon="3.52724">
        <ele>541.36</ele>
        <time>2013-06-03T10:38:18Z</time>
      </trkpt>
      <trkpt lat="43.73281" lon="3.52723">
        <ele>542.32</ele>
        <time>2013-06-03T10:38:32Z</time>
      </trkpt>
      <trkpt lat="43.73272" lon="3.52719">
        <ele>543.76</ele>
        <time>2013-06-03T10:38:45Z</time>
      </trkpt>
      <trkpt lat="43.73266" lon="3.5272">
        <ele>543.76</ele>
        <time>2013-06-03T10:38:57Z</time>
      </trkpt>
      <trkpt lat="43.73259" lon="3.52714">
        <ele>544.72</ele>
        <time>2013-06-03T10:39:10Z</time>
      </trkpt>
      <trkpt lat="43.73258" lon="3.52706">
        <ele>544.72</ele>
        <time>2013-06-03T10:39:22Z</time>
      </trkpt>
      <trkpt lat="43.73261" lon="3.527">
        <ele>545.2</ele>
        <time>2013-06-03T10:39:33Z</time>
      </trkpt>
      <trkpt lat="43.73265" lon="3.52684">
        <ele>545.69</ele>
        <time>2013-06-03T10:39:46Z</time>
      </trkpt>
      <trkpt lat="43.73267" lon="3.52678">
        <ele>545.69</ele>
        <time>2013-06-03T10:39:51Z</time>
      </trkpt>
      <trkpt lat="43.73272" lon="3.52663">
        <ele>547.13</ele>
        <time>2013-06-03T10:40:04Z</time>
      </trkpt>
      <trkpt lat="43.73272" lon="3.52662">
        <ele>546.65</ele>
        <time>2013-06-03T10:40:05Z</time>
      </trkpt>
      <trkpt lat="43.73277" lon="3.52643">
        <ele>550.01</ele>
        <time>2013-06-03T10:40:20Z</time>
      </trkpt>
      <trkpt lat="43.73282" lon="3.52624">
        <ele>549.05</ele>
        <time>2013-06-03T10:40:34Z</time>
      </trkpt>
      <trkpt lat="43.73284" lon="3.5262">
        <ele>549.53</ele>
        <time>2013-06-03T10:40:37Z</time>
      </trkpt>
      <trkpt lat="43.73285" lon="3.52614">
        <ele>550.01</ele>
        <time>2013-06-03T10:40:41Z</time>
      </trkpt>
      <trkpt lat="43.73286" lon="3.52612">
        <ele>550.01</ele>
        <time>2013-06-03T10:40:43Z</time>
      </trkpt>
      <trkpt lat="43.73287" lon="3.52603">
        <ele>549.53</ele>
        <time>2013-06-03T10:40:50Z</time>
      </trkpt>
      <trkpt lat="43.73291" lon="3.52592">
        <ele>550.49</ele>
        <time>2013-06-03T10:40:58Z</time>
      </trkpt>
      <trkpt lat="43.73292" lon="3.5259">
        <ele>550.97</ele>
        <time>2013-06-03T10:41:00Z</time>
      </trkpt>
      <trkpt lat="43.73298" lon="3.52572">
        <ele>551.93</ele>
        <time>2013-06-03T10:41:14Z</time>
      </trkpt>
      <trkpt lat="43.73302" lon="3.52554">
        <ele>552.9</ele>
        <time>2013-06-03T10:41:28Z</time>
      </trkpt>
      <trkpt lat="43.73305" lon="3.52544">
        <ele>551.93</ele>
        <time>2013-06-03T10:41:37Z</time>
      </trkpt>
      <trkpt lat="43.73306" lon="3.52536">
        <ele>553.38</ele>
        <time>2013-06-03T10:41:51Z</time>
      </trkpt>
      <trkpt lat="43.73306" lon="3.52535">
        <ele>553.38</ele>
        <time>2013-06-03T10:42:04Z</time>
      </trkpt>
      <trkpt lat="43.73306" lon="3.52534">
        <ele>553.86</ele>
        <time>2013-06-03T10:42:18Z</time>
      </trkpt>
      <trkpt lat="43.73307" lon="3.52535">
        <ele>553.38</ele>
        <time>2013-06-03T10:42:34Z</time>
      </trkpt>
      <trkpt lat="43.73308" lon="3.52532">
        <ele>553.86</ele>
        <time>2013-06-03T10:42:45Z</time>
      </trkpt>
      <trkpt lat="43.73311" lon="3.52533">
        <ele>553.86</ele>
        <time>2013-06-03T10:43:00Z</time>
      </trkpt>
      <trkpt lat="43.73312" lon="3.52533">
        <ele>553.86</ele>
        <time>2013-06-03T10:43:12Z</time>
      </trkpt>
      <trkpt lat="43.73311" lon="3.52533">
        <ele>552.41</ele>
        <time>2013-06-03T10:43:28Z</time>
      </trkpt>
      <trkpt lat="43.73312" lon="3.52533">
        <ele>552.9</ele>
        <time>2013-06-03T10:44:07Z</time>
      </trkpt>
      <trkpt lat="43.73312" lon="3.52532">
        <ele>553.38</ele>
        <time>2013-06-03T10:44:41Z</time>
      </trkpt>
      <trkpt lat="43.73312" lon="3.52532">
        <ele>552.9</ele>
        <time>2013-06-03T10:45:18Z</time>
      </trkpt>
      <trkpt lat="43.73313" lon="3.52532">
        <ele>553.38</ele>
        <time>2013-06-03T10:45:55Z</time>
      </trkpt>
      <trkpt lat="43.73313" lon="3.52531">
        <ele>552.9</ele>
        <time>2013-06-03T10:46:35Z</time>
      </trkpt>
      <trkpt lat="43.73313" lon="3.52532">
        <ele>554.34</ele>
        <time>2013-06-03T10:47:12Z</time>
      </trkpt>
      <trkpt lat="43.73313" lon="3.52532">
        <ele>554.34</ele>
        <time>2013-06-03T10:47:13Z</time>
      </trkpt>
      <trkpt lat="43.73313" lon="3.52533">
        <ele>553.38</ele>
        <time>2013-06-03T10:47:50Z</time>
      </trkpt>
      <trkpt lat="43.73313" lon="3.52532">
        <ele>553.38</ele>
        <time>2013-06-03T10:48:28Z</time>
      </trkpt>
      <trkpt lat="43.73313" lon="3.52532">
        <ele>553.86</ele>
        <time>2013-06-03T10:49:11Z</time>
      </trkpt>
      <trkpt lat="43.73313" lon="3.52532">
        <ele>553.86</ele>
        <time>2013-06-03T10:49:47Z</time>
      </trkpt>
      <trkpt lat="43.73313" lon="3.52532">
        <ele>554.34</ele>
        <time>2013-06-03T10:50:24Z</time>
      </trkpt>
      <trkpt lat="43.73313" lon="3.52532">
        <ele>553.38</ele>
        <time>2013-06-03T10:50:55Z</time>
      </trkpt>
      <trkpt lat="43.73313" lon="3.52532">
        <ele>553.38</ele>
        <time>2013-06-03T10:51:35Z</time>
      </trkpt>
      <trkpt lat="43.73313" lon="3.52532">
        <ele>553.38</ele>
        <time>2013-06-03T10:52:08Z</time>
      </trkpt>
      <trkpt lat="43.73313" lon="3.52532">
        <ele>553.86</ele>
        <time>2013-06-03T10:52:44Z</time>
      </trkpt>
      <trkpt lat="43.73313" lon="3.52532">
        <ele>553.38</ele>
        <time>2013-06-03T10:53:20Z</time>
      </trkpt>
      <trkpt lat="43.73313" lon="3.52532">
        <ele>553.86</ele>
        <time>2013-06-03T10:53:54Z</time>
      </trkpt>
      <trkpt lat="43.73313" lon="3.52533">
        <ele>553.38</ele>
        <time>2013-06-03T10:54:38Z</time>
      </trkpt>
      <trkpt lat="43.73313" lon="3.52533">
        <ele>553.38</ele>
        <time>2013-06-03T10:55:19Z</time>
      </trkpt>
      <trkpt lat="43.73313" lon="3.52533">
        <ele>553.38</ele>
        <time>2013-06-03T10:55:55Z</time>
      </trkpt>
      <trkpt lat="43.73313" lon="3.52534">
        <ele>553.86</ele>
        <time>2013-06-03T10:56:38Z</time>
      </trkpt>
      <trkpt lat="43.73313" lon="3.52533">
        <ele>553.86</ele>
        <time>2013-06-03T10:57:17Z</time>
      </trkpt>
      <trkpt lat="43.73313" lon="3.52533">
        <ele>553.38</ele>
        <time>2013-06-03T10:57:56Z</time>
      </trkpt>
      <trkpt lat="43.73313" lon="3.52533">
        <ele>553.38</ele>
        <time>2013-06-03T10:58:34Z</time>
      </trkpt>
      <trkpt lat="43.73313" lon="3.52533">
        <ele>553.86</ele>
        <time>2013-06-03T10:59:16Z</time>
      </trkpt>
      <trkpt lat="43.73313" lon="3.52533">
        <ele>553.86</ele>
        <time>2013-06-03T10:59:54Z</time>
      </trkpt>
      <trkpt lat="43.73313" lon="3.52532">
        <ele>554.34</ele>
        <time>2013-06-03T11:00:34Z</time>
      </trkpt>
      <trkpt lat="43.73313" lon="3.52532">
        <ele>553.86</ele>
        <time>2013-06-03T11:01:15Z</time>
      </trkpt>
      <trkpt lat="43.73313" lon="3.52532">
        <ele>553.38</ele>
        <time>2013-06-03T11:01:52Z</time>
      </trkpt>
      <trkpt lat="43.73314" lon="3.52533">
        <ele>554.34</ele>
        <time>2013-06-03T11:02:29Z</time>
      </trkpt>
      <trkpt lat="43.73313" lon="3.52533">
        <ele>553.86</ele>
        <time>2013-06-03T11:03:12Z</time>
      </trkpt>
      <trkpt lat="43.73313" lon="3.52532">
        <ele>553.86</ele>
        <time>2013-06-03T11:03:51Z</time>
      </trkpt>
      <trkpt lat="43.73313" lon="3.52531">
        <ele>553.86</ele>
        <time>2013-06-03T11:04:26Z</time>
      </trkpt>
      <trkpt lat="43.73314" lon="3.52532">
        <ele>553.86</ele>
        <time>2013-06-03T11:05:02Z</time>
      </trkpt>
      <trkpt lat="43.73314" lon="3.52532">
        <ele>553.86</ele>
        <time>2013-06-03T11:05:45Z</time>
      </trkpt>
      <trkpt lat="43.73314" lon="3.52533">
        <ele>553.86</ele>
        <time>2013-06-03T11:06:25Z</time>
      </trkpt>
      <trkpt lat="43.73313" lon="3.52533">
        <ele>553.86</ele>
        <time>2013-06-03T11:07:05Z</time>
      </trkpt>
      <trkpt lat="43.73313" lon="3.52532">
        <ele>553.86</ele>
        <time>2013-06-03T11:07:43Z</time>
      </trkpt>
      <trkpt lat="43.73313" lon="3.52533">
        <ele>554.34</ele>
        <time>2013-06-03T11:08:27Z</time>
      </trkpt>
      <trkpt lat="43.73314" lon="3.52533">
        <ele>553.86</ele>
        <time>2013-06-03T11:09:02Z</time>
      </trkpt>
      <trkpt lat="43.73314" lon="3.52533">
        <ele>553.86</ele>
        <time>2013-06-03T11:09:36Z</time>
      </trkpt>
      <trkpt lat="43.73314" lon="3.52532">
        <ele>554.34</ele>
        <time>2013-06-03T11:10:11Z</time>
      </trkpt>
      <trkpt lat="43.73314" lon="3.52533">
        <ele>553.86</ele>
        <time>2013-06-03T11:10:44Z</time>
      </trkpt>
      <trkpt lat="43.73314" lon="3.52534">
        <ele>553.38</ele>
        <time>2013-06-03T11:11:15Z</time>
      </trkpt>
      <trkpt lat="43.73314" lon="3.52533">
        <ele>553.86</ele>
        <time>2013-06-03T11:11:45Z</time>
      </trkpt>
      <trkpt lat="43.73314" lon="3.52533">
        <ele>558.66</ele>
        <time>2013-06-03T11:11:56Z</time>
      </trkpt>
      <trkpt lat="43.73314" lon="3.52533">
        <ele>554.34</ele>
        <time>2013-06-03T11:11:57Z</time>
      </trkpt>
      <trkpt lat="43.73314" lon="3.52533">
        <ele>554.82</ele>
        <time>2013-06-03T11:12:25Z</time>
      </trkpt>
      <trkpt lat="43.73314" lon="3.52533">
        <ele>554.82</ele>
        <time>2013-06-03T11:12:44Z</time>
      </trkpt>
      <trkpt lat="43.73314" lon="3.52532">
        <ele>554.34</ele>
        <time>2013-06-03T11:13:04Z</time>
      </trkpt>
      <trkpt lat="43.73313" lon="3.52533">
        <ele>553.86</ele>
        <time>2013-06-03T11:13:20Z</time>
      </trkpt>
      <trkpt lat="43.73313" lon="3.52534">
        <ele>554.34</ele>
        <time>2013-06-03T11:14:03Z</time>
      </trkpt>
      <trkpt lat="43.73311" lon="3.52534">
        <ele>554.34</ele>
        <time>2013-06-03T11:14:42Z</time>
      </trkpt>
      <trkpt lat="43.7331" lon="3.52533">
        <ele>553.86</ele>
        <time>2013-06-03T11:15:10Z</time>
      </trkpt>
      <trkpt lat="43.73311" lon="3.52533">
        <ele>554.34</ele>
        <time>2013-06-03T11:15:46Z</time>
      </trkpt>
      <trkpt lat="43.73311" lon="3.52533">
        <ele>554.34</ele>
        <time>2013-06-03T11:16:15Z</time>
      </trkpt>
      <trkpt lat="43.73312" lon="3.52533">
        <ele>554.82</ele>
        <time>2013-06-03T11:16:31Z</time>
      </trkpt>
      <trkpt lat="43.73312" lon="3.52532">
        <ele>554.82</ele>
        <time>2013-06-03T11:17:03Z</time>
      </trkpt>
      <trkpt lat="43.73312" lon="3.52533">
        <ele>554.82</ele>
        <time>2013-06-03T11:17:30Z</time>
      </trkpt>
      <trkpt lat="43.73313" lon="3.52532">
        <ele>555.3</ele>
        <time>2013-06-03T11:17:53Z</time>
      </trkpt>
      <trkpt lat="43.73313" lon="3.52532">
        <ele>554.82</ele>
        <time>2013-06-03T11:17:58Z</time>
      </trkpt>
      <trkpt lat="43.73313" lon="3.52532">
        <ele>555.3</ele>
        <time>2013-06-03T11:18:25Z</time>
      </trkpt>
      <trkpt lat="43.73314" lon="3.52531">
        <ele>555.78</ele>
        <time>2013-06-03T11:18:55Z</time>
      </trkpt>
      <trkpt lat="43.73314" lon="3.52531">
        <ele>554.82</ele>
        <time>2013-06-03T11:19:11Z</time>
      </trkpt>
      <trkpt lat="43.73313" lon="3.52531">
        <ele>555.3</ele>
        <time>2013-06-03T11:19:30Z</time>
      </trkpt>
      <trkpt lat="43.73313" lon="3.52532">
        <ele>555.3</ele>
        <time>2013-06-03T11:19:42Z</time>
      </trkpt>
      <trkpt lat="43.73313" lon="3.52532">
        <ele>556.26</ele>
        <time>2013-06-03T11:19:52Z</time>
      </trkpt>
      <trkpt lat="43.73313" lon="3.52532">
        <ele>555.78</ele>
        <time>2013-06-03T11:20:11Z</time>
      </trkpt>
      <trkpt lat="43.73313" lon="3.52531">
        <ele>555.78</ele>
        <time>2013-06-03T11:20:28Z</time>
      </trkpt>
      <trkpt lat="43.73313" lon="3.52531">
        <ele>555.3</ele>
        <time>2013-06-03T11:20:48Z</time>
      </trkpt>
      <trkpt lat="43.73313" lon="3.52531">
        <ele>556.26</ele>
        <time>2013-06-03T11:21:04Z</time>
      </trkpt>
      <trkpt lat="43.73313" lon="3.52531">
        <ele>555.78</ele>
        <time>2013-06-03T11:21:23Z</time>
      </trkpt>
      <trkpt lat="43.73312" lon="3.52531">
        <ele>555.78</ele>
        <time>2013-06-03T11:21:40Z</time>
      </trkpt>
      <trkpt lat="43.73312" lon="3.5253">
        <ele>555.78</ele>
        <time>2013-06-03T11:21:54Z</time>
      </trkpt>
      <trkpt lat="43.73313" lon="3.52529">
        <ele>556.26</ele>
        <time>2013-06-03T11:22:18Z</time>
      </trkpt>
      <trkpt lat="43.73313" lon="3.52531">
        <ele>555.3</ele>
        <time>2013-06-03T11:22:36Z</time>
      </trkpt>
      <trkpt lat="43.73317" lon="3.52525">
        <ele>556.26</ele>
        <time>2013-06-03T11:22:48Z</time>
      </trkpt>
      <trkpt lat="43.73316" lon="3.52524">
        <ele>556.26</ele>
        <time>2013-06-03T11:22:59Z</time>
      </trkpt>
      <trkpt lat="43.73317" lon="3.52523">
        <ele>556.26</ele>
        <time>2013-06-03T11:23:12Z</time>
      </trkpt>
      <trkpt lat="43.73323" lon="3.52516">
        <ele>557.22</ele>
        <time>2013-06-03T11:23:23Z</time>
      </trkpt>
      <trkpt lat="43.73323" lon="3.52512">
        <ele>557.22</ele>
        <time>2013-06-03T11:23:36Z</time>
      </trkpt>
      <trkpt lat="43.73324" lon="3.52509">
        <ele>557.7</ele>
        <time>2013-06-03T11:23:49Z</time>
      </trkpt>
      <trkpt lat="43.73323" lon="3.52508">
        <ele>557.7</ele>
        <time>2013-06-03T11:24:05Z</time>
      </trkpt>
      <trkpt lat="43.73324" lon="3.52508">
        <ele>557.7</ele>
        <time>2013-06-03T11:24:18Z</time>
      </trkpt>
      <trkpt lat="43.73327" lon="3.52505">
        <ele>557.22</ele>
        <time>2013-06-03T11:24:33Z</time>
      </trkpt>
      <trkpt lat="43.73326" lon="3.52505">
        <ele>557.22</ele>
        <time>2013-06-03T11:24:53Z</time>
      </trkpt>
      <trkpt lat="43.73326" lon="3.52505">
        <ele>557.7</ele>
        <time>2013-06-03T11:25:13Z</time>
      </trkpt>
      <trkpt lat="43.73326" lon="3.52505">
        <ele>558.18</ele>
        <time>2013-06-03T11:25:40Z</time>
      </trkpt>
      <trkpt lat="43.73326" lon="3.52506">
        <ele>557.7</ele>
        <time>2013-06-03T11:26:05Z</time>
      </trkpt>
      <trkpt lat="43.73327" lon="3.52506">
        <ele>557.7</ele>
        <time>2013-06-03T11:26:32Z</time>
      </trkpt>
      <trkpt lat="43.73326" lon="3.52506">
        <ele>557.7</ele>
        <time>2013-06-03T11:26:56Z</time>
      </trkpt>
      <trkpt lat="43.73326" lon="3.52507">
        <ele>557.7</ele>
        <time>2013-06-03T11:27:25Z</time>
      </trkpt>
      <trkpt lat="43.73326" lon="3.52506">
        <ele>557.7</ele>
        <time>2013-06-03T11:27:40Z</time>
      </trkpt>
      <trkpt lat="43.73328" lon="3.52503">
        <ele>558.18</ele>
        <time>2013-06-03T11:27:54Z</time>
      </trkpt>
      <trkpt lat="43.73335" lon="3.52494">
        <ele>558.18</ele>
        <time>2013-06-03T11:28:09Z</time>
      </trkpt>
      <trkpt lat="43.73344" lon="3.52482">
        <ele>558.66</ele>
        <time>2013-06-03T11:28:24Z</time>
      </trkpt>
      <trkpt lat="43.73347" lon="3.52476">
        <ele>559.62</ele>
        <time>2013-06-03T11:28:30Z</time>
      </trkpt>
      <trkpt lat="43.7335" lon="3.52471">
        <ele>559.14</ele>
        <time>2013-06-03T11:28:34Z</time>
      </trkpt>
      <trkpt lat="43.73358" lon="3.52459">
        <ele>559.14</ele>
        <time>2013-06-03T11:28:47Z</time>
      </trkpt>
      <trkpt lat="43.73367" lon="3.5245">
        <ele>560.11</ele>
        <time>2013-06-03T11:28:59Z</time>
      </trkpt>
      <trkpt lat="43.73368" lon="3.52447">
        <ele>560.59</ele>
        <time>2013-06-03T11:29:02Z</time>
      </trkpt>
      <trkpt lat="43.73375" lon="3.52438">
        <ele>561.07</ele>
        <time>2013-06-03T11:29:10Z</time>
      </trkpt>
      <trkpt lat="43.73382" lon="3.52426">
        <ele>562.51</ele>
        <time>2013-06-03T11:29:22Z</time>
      </trkpt>
      <trkpt lat="43.7339" lon="3.52419">
        <ele>562.51</ele>
        <time>2013-06-03T11:29:32Z</time>
      </trkpt>
      <trkpt lat="43.73394" lon="3.52411">
        <ele>563.47</ele>
        <time>2013-06-03T11:29:40Z</time>
      </trkpt>
      <trkpt lat="43.73401" lon="3.52401">
        <ele>563.47</ele>
        <time>2013-06-03T11:29:50Z</time>
      </trkpt>
      <trkpt lat="43.73404" lon="3.52396">
        <ele>563.95</ele>
        <time>2013-06-03T11:29:55Z</time>
      </trkpt>
      <trkpt lat="43.73406" lon="3.52394">
        <ele>562.99</ele>
        <time>2013-06-03T11:29:57Z</time>
      </trkpt>
      <trkpt lat="43.73408" lon="3.52393">
        <ele>563.47</ele>
        <time>2013-06-03T11:29:59Z</time>
      </trkpt>
      <trkpt lat="43.7341" lon="3.52388">
        <ele>562.51</ele>
        <time>2013-06-03T11:30:03Z</time>
      </trkpt>
      <trkpt lat="43.73417" lon="3.52381">
        <ele>562.51</ele>
        <time>2013-06-03T11:30:13Z</time>
      </trkpt>
      <trkpt lat="43.73422" lon="3.52375">
        <ele>562.03</ele>
        <time>2013-06-03T11:30:21Z</time>
      </trkpt>
      <trkpt lat="43.73427" lon="3.52366">
        <ele>561.07</ele>
        <time>2013-06-03T11:30:29Z</time>
      </trkpt>
      <trkpt lat="43.73429" lon="3.52364">
        <ele>561.07</ele>
        <time>2013-06-03T11:30:32Z</time>
      </trkpt>
      <trkpt lat="43.73433" lon="3.52357">
        <ele>560.59</ele>
        <time>2013-06-03T11:30:38Z</time>
      </trkpt>
      <trkpt lat="43.73434" lon="3.52355">
        <ele>560.11</ele>
        <time>2013-06-03T11:30:40Z</time>
      </trkpt>
      <trkpt lat="43.73442" lon="3.52343">
        <ele>558.18</ele>
        <time>2013-06-03T11:30:52Z</time>
      </trkpt>
      <trkpt lat="43.73451" lon="3.52326">
        <ele>557.7</ele>
        <time>2013-06-03T11:31:04Z</time>
      </trkpt>
      <trkpt lat="43.73456" lon="3.52316">
        <ele>556.26</ele>
        <time>2013-06-03T11:31:13Z</time>
      </trkpt>
      <trkpt lat="43.73459" lon="3.52311">
        <ele>555.78</ele>
        <time>2013-06-03T11:31:17Z</time>
      </trkpt>
      <trkpt lat="43.73469" lon="3.52296">
        <ele>554.34</ele>
        <time>2013-06-03T11:31:30Z</time>
      </trkpt>
      <trkpt lat="43.73475" lon="3.52283">
        <ele>553.86</ele>
        <time>2013-06-03T11:31:41Z</time>
      </trkpt>
      <trkpt lat="43.73482" lon="3.52273">
        <ele>551.93</ele>
        <time>2013-06-03T11:31:54Z</time>
      </trkpt>
      <trkpt lat="43.73483" lon="3.52272">
        <ele>550.49</ele>
        <time>2013-06-03T11:31:58Z</time>
      </trkpt>
      <trkpt lat="43.73486" lon="3.52269">
        <ele>552.41</ele>
        <time>2013-06-03T11:32:10Z</time>
      </trkpt>
      <trkpt lat="43.73489" lon="3.52261">
        <ele>550.01</ele>
        <time>2013-06-03T11:32:17Z</time>
      </trkpt>
      <trkpt lat="43.73493" lon="3.52249">
        <ele>549.53</ele>
        <time>2013-06-03T11:32:27Z</time>
      </trkpt>
      <trkpt lat="43.73495" lon="3.52241">
        <ele>548.09</ele>
        <time>2013-06-03T11:32:33Z</time>
      </trkpt>
      <trkpt lat="43.735" lon="3.52226">
        <ele>547.13</ele>
        <time>2013-06-03T11:32:45Z</time>
      </trkpt>
      <trkpt lat="43.735" lon="3.52226">
        <ele>546.65</ele>
        <time>2013-06-03T11:32:47Z</time>
      </trkpt>
      <trkpt lat="43.73501" lon="3.52221">
        <ele>546.17</ele>
        <time>2013-06-03T11:32:51Z</time>
      </trkpt>
      <trkpt lat="43.73503" lon="3.52217">
        <ele>546.17</ele>
        <time>2013-06-03T11:32:55Z</time>
      </trkpt>
      <trkpt lat="43.73505" lon="3.52214">
        <ele>546.17</ele>
        <time>2013-06-03T11:32:58Z</time>
      </trkpt>
      <trkpt lat="43.73514" lon="3.52204">
        <ele>544.72</ele>
        <time>2013-06-03T11:33:12Z</time>
      </trkpt>
      <trkpt lat="43.73519" lon="3.522">
        <ele>544.24</ele>
        <time>2013-06-03T11:33:21Z</time>
      </trkpt>
      <trkpt lat="43.73533" lon="3.52189">
        <ele>543.28</ele>
        <time>2013-06-03T11:33:35Z</time>
      </trkpt>
      <trkpt lat="43.73538" lon="3.52185">
        <ele>542.8</ele>
        <time>2013-06-03T11:33:40Z</time>
      </trkpt>
      <trkpt lat="43.73542" lon="3.52177">
        <ele>541.84</ele>
        <time>2013-06-03T11:33:46Z</time>
      </trkpt>
      <trkpt lat="43.73542" lon="3.5217">
        <ele>540.88</ele>
        <time>2013-06-03T11:33:50Z</time>
      </trkpt>
      <trkpt lat="43.73542" lon="3.5216">
        <ele>540.4</ele>
        <time>2013-06-03T11:33:56Z</time>
      </trkpt>
      <trkpt lat="43.73539" lon="3.52153">
        <ele>539.92</ele>
        <time>2013-06-03T11:34:01Z</time>
      </trkpt>
      <trkpt lat="43.73528" lon="3.52138">
        <ele>538.48</ele>
        <time>2013-06-03T11:34:17Z</time>
      </trkpt>
      <trkpt lat="43.73522" lon="3.52123">
        <ele>537.03</ele>
        <time>2013-06-03T11:34:29Z</time>
      </trkpt>
      <trkpt lat="43.73519" lon="3.52111">
        <ele>535.59</ele>
        <time>2013-06-03T11:34:38Z</time>
      </trkpt>
      <trkpt lat="43.73517" lon="3.521">
        <ele>535.11</ele>
        <time>2013-06-03T11:34:49Z</time>
      </trkpt>
      <trkpt lat="43.73516" lon="3.52084">
        <ele>533.67</ele>
        <time>2013-06-03T11:35:00Z</time>
      </trkpt>
      <trkpt lat="43.73515" lon="3.52078">
        <ele>533.19</ele>
        <time>2013-06-03T11:35:06Z</time>
      </trkpt>
      <trkpt lat="43.73514" lon="3.52068">
        <ele>532.71</ele>
        <time>2013-06-03T11:35:14Z</time>
      </trkpt>
      <trkpt lat="43.73516" lon="3.52058">
        <ele>531.75</ele>
        <time>2013-06-03T11:35:23Z</time>
      </trkpt>
      <trkpt lat="43.73521" lon="3.52049">
        <ele>531.27</ele>
        <time>2013-06-03T11:35:34Z</time>
      </trkpt>
      <trkpt lat="43.73523" lon="3.52046">
        <ele>530.79</ele>
        <time>2013-06-03T11:35:44Z</time>
      </trkpt>
      <trkpt lat="43.73523" lon="3.52044">
        <ele>530.79</ele>
        <time>2013-06-03T11:35:58Z</time>
      </trkpt>
      <trkpt lat="43.73524" lon="3.52043">
        <ele>530.79</ele>
        <time>2013-06-03T11:36:12Z</time>
      </trkpt>
      <trkpt lat="43.73525" lon="3.52041">
        <ele>530.79</ele>
        <time>2013-06-03T11:36:24Z</time>
      </trkpt>
      <trkpt lat="43.73525" lon="3.52041">
        <ele>531.27</ele>
        <time>2013-06-03T11:36:39Z</time>
      </trkpt>
      <trkpt lat="43.73525" lon="3.5204">
        <ele>531.27</ele>
        <time>2013-06-03T11:36:52Z</time>
      </trkpt>
      <trkpt lat="43.73526" lon="3.5204">
        <ele>530.3</ele>
        <time>2013-06-03T11:37:05Z</time>
      </trkpt>
      <trkpt lat="43.73527" lon="3.5204">
        <ele>530.3</ele>
        <time>2013-06-03T11:37:17Z</time>
      </trkpt>
      <trkpt lat="43.73525" lon="3.52045">
        <ele>528.38</ele>
        <time>2013-06-03T11:37:30Z</time>
      </trkpt>
      <trkpt lat="43.73527" lon="3.52046">
        <ele>526.94</ele>
        <time>2013-06-03T11:37:34Z</time>
      </trkpt>
      <trkpt lat="43.73535" lon="3.52041">
        <ele>525.98</ele>
        <time>2013-06-03T11:37:45Z</time>
      </trkpt>
      <trkpt lat="43.73535" lon="3.52039">
        <ele>525.5</ele>
        <time>2013-06-03T11:37:47Z</time>
      </trkpt>
      <trkpt lat="43.73539" lon="3.5203">
        <ele>525.02</ele>
        <time>2013-06-03T11:37:54Z</time>
      </trkpt>
      <trkpt lat="43.7354" lon="3.52028">
        <ele>525.02</ele>
        <time>2013-06-03T11:37:56Z</time>
      </trkpt>
      <trkpt lat="43.73541" lon="3.52018">
        <ele>524.06</ele>
        <time>2013-06-03T11:38:03Z</time>
      </trkpt>
      <trkpt lat="43.7354" lon="3.52002">
        <ele>523.09</ele>
        <time>2013-06-03T11:38:17Z</time>
      </trkpt>
      <trkpt lat="43.7354" lon="3.52002">
        <ele>522.61</ele>
        <time>2013-06-03T11:38:32Z</time>
      </trkpt>
      <trkpt lat="43.73542" lon="3.51997">
        <ele>522.13</ele>
        <time>2013-06-03T11:38:44Z</time>
      </trkpt>
      <trkpt lat="43.73545" lon="3.51988">
        <ele>521.17</ele>
        <time>2013-06-03T11:38:52Z</time>
      </trkpt>
      <trkpt lat="43.73547" lon="3.51979">
        <ele>519.25</ele>
        <time>2013-06-03T11:39:04Z</time>
      </trkpt>
      <trkpt lat="43.7355" lon="3.51969">
        <ele>517.81</ele>
        <time>2013-06-03T11:39:11Z</time>
      </trkpt>
      <trkpt lat="43.73552" lon="3.51956">
        <ele>517.33</ele>
        <time>2013-06-03T11:39:19Z</time>
      </trkpt>
      <trkpt lat="43.73553" lon="3.51939">
        <ele>515.4</ele>
        <time>2013-06-03T11:39:29Z</time>
      </trkpt>
      <trkpt lat="43.73554" lon="3.51936">
        <ele>514.92</ele>
        <time>2013-06-03T11:39:31Z</time>
      </trkpt>
      <trkpt lat="43.73557" lon="3.51929">
        <ele>513.96</ele>
        <time>2013-06-03T11:39:36Z</time>
      </trkpt>
      <trkpt lat="43.73557" lon="3.51925">
        <ele>513.48</ele>
        <time>2013-06-03T11:39:39Z</time>
      </trkpt>
      <trkpt lat="43.73557" lon="3.51921">
        <ele>513</ele>
        <time>2013-06-03T11:39:41Z</time>
      </trkpt>
      <trkpt lat="43.73561" lon="3.51904">
        <ele>511.08</ele>
        <time>2013-06-03T11:39:52Z</time>
      </trkpt>
      <trkpt lat="43.73566" lon="3.51894">
        <ele>509.16</ele>
        <time>2013-06-03T11:40:01Z</time>
      </trkpt>
      <trkpt lat="43.7357" lon="3.51891">
        <ele>509.16</ele>
        <time>2013-06-03T11:40:06Z</time>
      </trkpt>
      <trkpt lat="43.73573" lon="3.51888">
        <ele>508.67</ele>
        <time>2013-06-03T11:40:09Z</time>
      </trkpt>
      <trkpt lat="43.73574" lon="3.51884">
        <ele>507.71</ele>
        <time>2013-06-03T11:40:12Z</time>
      </trkpt>
      <trkpt lat="43.73574" lon="3.51881">
        <ele>507.23</ele>
        <time>2013-06-03T11:40:14Z</time>
      </trkpt>
      <trkpt lat="43.73577" lon="3.51874">
        <ele>506.27</ele>
        <time>2013-06-03T11:40:25Z</time>
      </trkpt>
      <trkpt lat="43.73577" lon="3.51872">
        <ele>506.27</ele>
        <time>2013-06-03T11:40:33Z</time>
      </trkpt>
      <trkpt lat="43.7358" lon="3.51858">
        <ele>503.39</ele>
        <time>2013-06-03T11:40:46Z</time>
      </trkpt>
      <trkpt lat="43.73582" lon="3.51849">
        <ele>501.95</ele>
        <time>2013-06-03T11:40:55Z</time>
      </trkpt>
      <trkpt lat="43.73582" lon="3.51848">
        <ele>501.95</ele>
        <time>2013-06-03T11:40:56Z</time>
      </trkpt>
      <trkpt lat="43.73584" lon="3.51843">
        <ele>501.46</ele>
        <time>2013-06-03T11:41:01Z</time>
      </trkpt>
      <trkpt lat="43.73586" lon="3.51832">
        <ele>500.5</ele>
        <time>2013-06-03T11:41:10Z</time>
      </trkpt>
      <trkpt lat="43.73587" lon="3.51828">
        <ele>500.02</ele>
        <time>2013-06-03T11:41:13Z</time>
      </trkpt>
      <trkpt lat="43.73589" lon="3.51822">
        <ele>499.06</ele>
        <time>2013-06-03T11:41:19Z</time>
      </trkpt>
      <trkpt lat="43.73592" lon="3.51814">
        <ele>498.1</ele>
        <time>2013-06-03T11:41:26Z</time>
      </trkpt>
      <trkpt lat="43.73594" lon="3.51808">
        <ele>497.14</ele>
        <time>2013-06-03T11:41:32Z</time>
      </trkpt>
      <trkpt lat="43.73597" lon="3.518">
        <ele>496.66</ele>
        <time>2013-06-03T11:41:38Z</time>
      </trkpt>
      <trkpt lat="43.73597" lon="3.51798">
        <ele>495.7</ele>
        <time>2013-06-03T11:41:40Z</time>
      </trkpt>
      <trkpt lat="43.736" lon="3.51793">
        <ele>495.7</ele>
        <time>2013-06-03T11:41:45Z</time>
      </trkpt>
      <trkpt lat="43.73603" lon="3.5179">
        <ele>495.7</ele>
        <time>2013-06-03T11:41:49Z</time>
      </trkpt>
      <trkpt lat="43.73607" lon="3.51787">
        <ele>495.22</ele>
        <time>2013-06-03T11:41:53Z</time>
      </trkpt>
      <trkpt lat="43.73612" lon="3.51777">
        <ele>495.22</ele>
        <time>2013-06-03T11:42:01Z</time>
      </trkpt>
      <trkpt lat="43.73617" lon="3.51772">
        <ele>494.26</ele>
        <time>2013-06-03T11:42:06Z</time>
      </trkpt>
      <trkpt lat="43.73625" lon="3.51766">
        <ele>492.81</ele>
        <time>2013-06-03T11:42:16Z</time>
      </trkpt>
      <trkpt lat="43.73633" lon="3.51767">
        <ele>491.37</ele>
        <time>2013-06-03T11:42:24Z</time>
      </trkpt>
      <trkpt lat="43.73642" lon="3.51761">
        <ele>488.97</ele>
        <time>2013-06-03T11:42:34Z</time>
      </trkpt>
      <trkpt lat="43.73649" lon="3.51759">
        <ele>487.05</ele>
        <time>2013-06-03T11:42:45Z</time>
      </trkpt>
      <trkpt lat="43.73653" lon="3.51757">
        <ele>485.6</ele>
        <time>2013-06-03T11:42:58Z</time>
      </trkpt>
      <trkpt lat="43.73661" lon="3.51757">
        <ele>484.16</ele>
        <time>2013-06-03T11:43:13Z</time>
      </trkpt>
      <trkpt lat="43.73662" lon="3.51756">
        <ele>484.64</ele>
        <time>2013-06-03T11:43:14Z</time>
      </trkpt>
      <trkpt lat="43.73665" lon="3.51754">
        <ele>484.16</ele>
        <time>2013-06-03T11:43:16Z</time>
      </trkpt>
      <trkpt lat="43.73672" lon="3.51745">
        <ele>481.76</ele>
        <time>2013-06-03T11:43:25Z</time>
      </trkpt>
      <trkpt lat="43.73673" lon="3.51743">
        <ele>481.76</ele>
        <time>2013-06-03T11:43:28Z</time>
      </trkpt>
      <trkpt lat="43.73682" lon="3.51738">
        <ele>478.87</ele>
        <time>2013-06-03T11:43:44Z</time>
      </trkpt>
      <trkpt lat="43.73688" lon="3.51733">
        <ele>477.91</ele>
        <time>2013-06-03T11:43:56Z</time>
      </trkpt>
      <trkpt lat="43.7369" lon="3.51733">
        <ele>479.35</ele>
        <time>2013-06-03T11:44:09Z</time>
      </trkpt>
      <trkpt lat="43.73691" lon="3.51732">
        <ele>478.39</ele>
        <time>2013-06-03T11:44:24Z</time>
      </trkpt>
      <trkpt lat="43.73693" lon="3.51737">
        <ele>476.95</ele>
        <time>2013-06-03T11:44:31Z</time>
      </trkpt>
      <trkpt lat="43.73696" lon="3.51736">
        <ele>476.47</ele>
        <time>2013-06-03T11:44:34Z</time>
      </trkpt>
      <trkpt lat="43.73698" lon="3.5173">
        <ele>475.51</ele>
        <time>2013-06-03T11:44:39Z</time>
      </trkpt>
      <trkpt lat="43.73703" lon="3.51729">
        <ele>474.07</ele>
        <time>2013-06-03T11:44:49Z</time>
      </trkpt>
      <trkpt lat="43.73712" lon="3.51724">
        <ele>471.18</ele>
        <time>2013-06-03T11:44:58Z</time>
      </trkpt>
      <trkpt lat="43.73718" lon="3.5171">
        <ele>470.22</ele>
        <time>2013-06-03T11:45:07Z</time>
      </trkpt>
      <trkpt lat="43.73719" lon="3.51699">
        <ele>469.74</ele>
        <time>2013-06-03T11:45:14Z</time>
      </trkpt>
      <trkpt lat="43.73727" lon="3.51687">
        <ele>467.82</ele>
        <time>2013-06-03T11:45:26Z</time>
      </trkpt>
      <trkpt lat="43.73737" lon="3.51677">
        <ele>467.34</ele>
        <time>2013-06-03T11:45:38Z</time>
      </trkpt>
      <trkpt lat="43.73738" lon="3.51677">
        <ele>467.34</ele>
        <time>2013-06-03T11:45:40Z</time>
      </trkpt>
      <trkpt lat="43.73742" lon="3.5167">
        <ele>466.38</ele>
        <time>2013-06-03T11:45:46Z</time>
      </trkpt>
      <trkpt lat="43.73746" lon="3.51665">
        <ele>466.38</ele>
        <time>2013-06-03T11:45:51Z</time>
      </trkpt>
      <trkpt lat="43.73749" lon="3.51656">
        <ele>463.97</ele>
        <time>2013-06-03T11:46:03Z</time>
      </trkpt>
      <trkpt lat="43.7375" lon="3.51655">
        <ele>463.49</ele>
        <time>2013-06-03T11:46:04Z</time>
      </trkpt>
      <trkpt lat="43.7375" lon="3.51642">
        <ele>462.05</ele>
        <time>2013-06-03T11:46:15Z</time>
      </trkpt>
      <trkpt lat="43.73754" lon="3.51633">
        <ele>460.13</ele>
        <time>2013-06-03T11:46:27Z</time>
      </trkpt>
      <trkpt lat="43.73755" lon="3.51628">
        <ele>459.17</ele>
        <time>2013-06-03T11:46:38Z</time>
      </trkpt>
      <trkpt lat="43.73761" lon="3.5163">
        <ele>457.72</ele>
        <time>2013-06-03T11:46:50Z</time>
      </trkpt>
      <trkpt lat="43.73761" lon="3.51622">
        <ele>456.76</ele>
        <time>2013-06-03T11:47:01Z</time>
      </trkpt>
      <trkpt lat="43.7376" lon="3.51615">
        <ele>455.32</ele>
        <time>2013-06-03T11:47:13Z</time>
      </trkpt>
      <trkpt lat="43.73764" lon="3.51616">
        <ele>454.36</ele>
        <time>2013-06-03T11:47:24Z</time>
      </trkpt>
      <trkpt lat="43.73769" lon="3.51617">
        <ele>452.92</ele>
        <time>2013-06-03T11:47:35Z</time>
      </trkpt>
      <trkpt lat="43.73773" lon="3.51618">
        <ele>452.92</ele>
        <time>2013-06-03T11:47:45Z</time>
      </trkpt>
      <trkpt lat="43.7378" lon="3.51625">
        <ele>450.52</ele>
        <time>2013-06-03T11:47:59Z</time>
      </trkpt>
      <trkpt lat="43.73781" lon="3.51626">
        <ele>450.03</ele>
        <time>2013-06-03T11:48:00Z</time>
      </trkpt>
      <trkpt lat="43.73785" lon="3.51631">
        <ele>449.55</ele>
        <time>2013-06-03T11:48:08Z</time>
      </trkpt>
      <trkpt lat="43.73791" lon="3.51639">
        <ele>448.11</ele>
        <time>2013-06-03T11:48:18Z</time>
      </trkpt>
      <trkpt lat="43.73796" lon="3.51649">
        <ele>445.71</ele>
        <time>2013-06-03T11:48:31Z</time>
      </trkpt>
      <trkpt lat="43.73797" lon="3.5165">
        <ele>445.71</ele>
        <time>2013-06-03T11:48:33Z</time>
      </trkpt>
      <trkpt lat="43.73798" lon="3.51661">
        <ele>443.79</ele>
        <time>2013-06-03T11:48:44Z</time>
      </trkpt>
      <trkpt lat="43.73799" lon="3.51663">
        <ele>443.79</ele>
        <time>2013-06-03T11:48:46Z</time>
      </trkpt>
      <trkpt lat="43.73797" lon="3.51666">
        <ele>442.82</ele>
        <time>2013-06-03T11:48:50Z</time>
      </trkpt>
      <trkpt lat="43.73795" lon="3.51671">
        <ele>441.38</ele>
        <time>2013-06-03T11:49:03Z</time>
      </trkpt>
      <trkpt lat="43.73794" lon="3.51673">
        <ele>440.42</ele>
        <time>2013-06-03T11:49:05Z</time>
      </trkpt>
      <trkpt lat="43.73789" lon="3.51676">
        <ele>439.46</ele>
        <time>2013-06-03T11:49:10Z</time>
      </trkpt>
      <trkpt lat="43.73787" lon="3.51681">
        <ele>438.98</ele>
        <time>2013-06-03T11:49:25Z</time>
      </trkpt>
      <trkpt lat="43.73786" lon="3.51683">
        <ele>438.98</ele>
        <time>2013-06-03T11:49:41Z</time>
      </trkpt>
      <trkpt lat="43.73783" lon="3.51685">
        <ele>438.5</ele>
        <time>2013-06-03T11:49:44Z</time>
      </trkpt>
      <trkpt lat="43.73778" lon="3.51691">
        <ele>437.06</ele>
        <time>2013-06-03T11:50:00Z</time>
      </trkpt>
      <trkpt lat="43.73776" lon="3.5169">
        <ele>438.02</ele>
        <time>2013-06-03T11:50:34Z</time>
      </trkpt>
      <trkpt lat="43.73774" lon="3.51695">
        <ele>438.5</ele>
        <time>2013-06-03T11:50:40Z</time>
      </trkpt>
      <trkpt lat="43.73772" lon="3.51713">
        <ele>436.58</ele>
        <time>2013-06-03T11:50:52Z</time>
      </trkpt>
      <trkpt lat="43.73772" lon="3.51715">
        <ele>436.58</ele>
        <time>2013-06-03T11:50:53Z</time>
      </trkpt>
      <trkpt lat="43.7377" lon="3.51725">
        <ele>435.61</ele>
        <time>2013-06-03T11:50:59Z</time>
      </trkpt>
      <trkpt lat="43.7377" lon="3.51728">
        <ele>435.61</ele>
        <time>2013-06-03T11:51:02Z</time>
      </trkpt>
      <trkpt lat="43.73769" lon="3.51736">
        <ele>434.65</ele>
        <time>2013-06-03T11:51:08Z</time>
      </trkpt>
      <trkpt lat="43.73768" lon="3.51739">
        <ele>434.17</ele>
        <time>2013-06-03T11:51:10Z</time>
      </trkpt>
      <trkpt lat="43.73767" lon="3.51742">
        <ele>433.69</ele>
        <time>2013-06-03T11:51:12Z</time>
      </trkpt>
      <trkpt lat="43.73756" lon="3.51752">
        <ele>432.73</ele>
        <time>2013-06-03T11:51:26Z</time>
      </trkpt>
      <trkpt lat="43.73754" lon="3.51757">
        <ele>431.29</ele>
        <time>2013-06-03T11:51:32Z</time>
      </trkpt>
      <trkpt lat="43.73756" lon="3.51764">
        <ele>430.81</ele>
        <time>2013-06-03T11:51:36Z</time>
      </trkpt>
      <trkpt lat="43.73764" lon="3.51769">
        <ele>429.85</ele>
        <time>2013-06-03T11:51:45Z</time>
      </trkpt>
      <trkpt lat="43.73769" lon="3.51767">
        <ele>429.37</ele>
        <time>2013-06-03T11:51:54Z</time>
      </trkpt>
      <trkpt lat="43.73772" lon="3.51761">
        <ele>428.4</ele>
        <time>2013-06-03T11:52:06Z</time>
      </trkpt>
      <trkpt lat="43.73774" lon="3.51756">
        <ele>427.44</ele>
        <time>2013-06-03T11:52:09Z</time>
      </trkpt>
      <trkpt lat="43.73775" lon="3.5175">
        <ele>427.44</ele>
        <time>2013-06-03T11:52:13Z</time>
      </trkpt>
      <trkpt lat="43.73777" lon="3.51746">
        <ele>426.48</ele>
        <time>2013-06-03T11:52:17Z</time>
      </trkpt>
      <trkpt lat="43.7378" lon="3.5174">
        <ele>425.04</ele>
        <time>2013-06-03T11:52:23Z</time>
      </trkpt>
      <trkpt lat="43.73783" lon="3.51733">
        <ele>425.04</ele>
        <time>2013-06-03T11:52:28Z</time>
      </trkpt>
      <trkpt lat="43.73784" lon="3.51731">
        <ele>425.52</ele>
        <time>2013-06-03T11:52:30Z</time>
      </trkpt>
      <trkpt lat="43.73786" lon="3.51727">
        <ele>424.56</ele>
        <time>2013-06-03T11:52:34Z</time>
      </trkpt>
      <trkpt lat="43.73784" lon="3.51733">
        <ele>424.08</ele>
        <time>2013-06-03T11:52:41Z</time>
      </trkpt>
      <trkpt lat="43.73779" lon="3.51751">
        <ele>422.16</ele>
        <time>2013-06-03T11:52:56Z</time>
      </trkpt>
      <trkpt lat="43.73779" lon="3.51764">
        <ele>420.71</ele>
        <time>2013-06-03T11:53:07Z</time>
      </trkpt>
      <trkpt lat="43.73779" lon="3.51768">
        <ele>420.23</ele>
        <time>2013-06-03T11:53:18Z</time>
      </trkpt>
      <trkpt lat="43.73778" lon="3.51774">
        <ele>419.27</ele>
        <time>2013-06-03T11:53:24Z</time>
      </trkpt>
      <trkpt lat="43.73775" lon="3.51782">
        <ele>418.31</ele>
        <time>2013-06-03T11:53:31Z</time>
      </trkpt>
      <trkpt lat="43.73773" lon="3.51783">
        <ele>418.31</ele>
        <time>2013-06-03T11:53:34Z</time>
      </trkpt>
      <trkpt lat="43.73763" lon="3.51794">
        <ele>415.91</ele>
        <time>2013-06-03T11:53:48Z</time>
      </trkpt>
      <trkpt lat="43.73755" lon="3.51808">
        <ele>413.5</ele>
        <time>2013-06-03T11:54:01Z</time>
      </trkpt>
      <trkpt lat="43.73748" lon="3.5182">
        <ele>411.1</ele>
        <time>2013-06-03T11:54:11Z</time>
      </trkpt>
      <trkpt lat="43.73748" lon="3.51826">
        <ele>410.14</ele>
        <time>2013-06-03T11:54:14Z</time>
      </trkpt>
      <trkpt lat="43.73744" lon="3.51836">
        <ele>409.66</ele>
        <time>2013-06-03T11:54:20Z</time>
      </trkpt>
      <trkpt lat="43.73743" lon="3.51849">
        <ele>408.22</ele>
        <time>2013-06-03T11:54:27Z</time>
      </trkpt>
      <trkpt lat="43.73743" lon="3.51854">
        <ele>407.74</ele>
        <time>2013-06-03T11:54:30Z</time>
      </trkpt>
      <trkpt lat="43.73739" lon="3.51861">
        <ele>406.77</ele>
        <time>2013-06-03T11:54:35Z</time>
      </trkpt>
      <trkpt lat="43.7374" lon="3.5188">
        <ele>404.85</ele>
        <time>2013-06-03T11:54:46Z</time>
      </trkpt>
      <trkpt lat="43.73741" lon="3.51884">
        <ele>404.85</ele>
        <time>2013-06-03T11:54:49Z</time>
      </trkpt>
      <trkpt lat="43.73745" lon="3.519">
        <ele>403.41</ele>
        <time>2013-06-03T11:55:03Z</time>
      </trkpt>
      <trkpt lat="43.73746" lon="3.51911">
        <ele>401.97</ele>
        <time>2013-06-03T11:55:12Z</time>
      </trkpt>
      <trkpt lat="43.73743" lon="3.51925">
        <ele>400.53</ele>
        <time>2013-06-03T11:55:22Z</time>
      </trkpt>
      <trkpt lat="43.73745" lon="3.51934">
        <ele>400.05</ele>
        <time>2013-06-03T11:55:29Z</time>
      </trkpt>
      <trkpt lat="43.73751" lon="3.5194">
        <ele>399.08</ele>
        <time>2013-06-03T11:55:43Z</time>
      </trkpt>
      <trkpt lat="43.73754" lon="3.51943">
        <ele>398.6</ele>
        <time>2013-06-03T11:56:00Z</time>
      </trkpt>
      <trkpt lat="43.73758" lon="3.51941">
        <ele>398.12</ele>
        <time>2013-06-03T11:56:06Z</time>
      </trkpt>
      <trkpt lat="43.73766" lon="3.51942">
        <ele>397.16</ele>
        <time>2013-06-03T11:56:13Z</time>
      </trkpt>
      <trkpt lat="43.73776" lon="3.51932">
        <ele>394.28</ele>
        <time>2013-06-03T11:56:26Z</time>
      </trkpt>
      <trkpt lat="43.73774" lon="3.51927">
        <ele>394.28</ele>
        <time>2013-06-03T11:56:46Z</time>
      </trkpt>
      <trkpt lat="43.73776" lon="3.51925">
        <ele>393.32</ele>
        <time>2013-06-03T11:56:49Z</time>
      </trkpt>
      <trkpt lat="43.73779" lon="3.51918">
        <ele>391.87</ele>
        <time>2013-06-03T11:57:03Z</time>
      </trkpt>
      <trkpt lat="43.7378" lon="3.51913">
        <ele>390.91</ele>
        <time>2013-06-03T11:57:19Z</time>
      </trkpt>
      <trkpt lat="43.73785" lon="3.5191">
        <ele>389.95</ele>
        <time>2013-06-03T11:57:27Z</time>
      </trkpt>
      <trkpt lat="43.73796" lon="3.51903">
        <ele>387.55</ele>
        <time>2013-06-03T11:57:39Z</time>
      </trkpt>
      <trkpt lat="43.73797" lon="3.51902">
        <ele>387.07</ele>
        <time>2013-06-03T11:57:40Z</time>
      </trkpt>
      <trkpt lat="43.73804" lon="3.51897">
        <ele>385.63</ele>
        <time>2013-06-03T11:57:48Z</time>
      </trkpt>
      <trkpt lat="43.73815" lon="3.51888">
        <ele>383.22</ele>
        <time>2013-06-03T11:58:01Z</time>
      </trkpt>
      <trkpt lat="43.73815" lon="3.51887">
        <ele>383.22</ele>
        <time>2013-06-03T11:58:02Z</time>
      </trkpt>
      <trkpt lat="43.73819" lon="3.51889">
        <ele>382.26</ele>
        <time>2013-06-03T11:58:06Z</time>
      </trkpt>
      <trkpt lat="43.73826" lon="3.5189">
        <ele>380.82</ele>
        <time>2013-06-03T11:58:16Z</time>
      </trkpt>
      <trkpt lat="43.73833" lon="3.51901">
        <ele>380.82</ele>
        <time>2013-06-03T11:58:28Z</time>
      </trkpt>
      <trkpt lat="43.73836" lon="3.51906">
        <ele>379.86</ele>
        <time>2013-06-03T11:58:32Z</time>
      </trkpt>
      <trkpt lat="43.73839" lon="3.51907">
        <ele>379.38</ele>
        <time>2013-06-03T11:58:35Z</time>
      </trkpt>
      <trkpt lat="43.73847" lon="3.51904">
        <ele>377.45</ele>
        <time>2013-06-03T11:58:45Z</time>
      </trkpt>
      <trkpt lat="43.73862" lon="3.51905">
        <ele>375.05</ele>
        <time>2013-06-03T11:58:58Z</time>
      </trkpt>
      <trkpt lat="43.73866" lon="3.51905">
        <ele>374.57</ele>
        <time>2013-06-03T11:59:10Z</time>
      </trkpt>
      <trkpt lat="43.73867" lon="3.51905">
        <ele>374.09</ele>
        <time>2013-06-03T11:59:23Z</time>
      </trkpt>
      <trkpt lat="43.73878" lon="3.51908">
        <ele>371.69</ele>
        <time>2013-06-03T11:59:36Z</time>
      </trkpt>
      <trkpt lat="43.73882" lon="3.51909">
        <ele>371.69</ele>
        <time>2013-06-03T11:59:39Z</time>
      </trkpt>
      <trkpt lat="43.73888" lon="3.51911">
        <ele>370.73</ele>
        <time>2013-06-03T11:59:46Z</time>
      </trkpt>
      <trkpt lat="43.73896" lon="3.51909">
        <ele>370.24</ele>
        <time>2013-06-03T11:59:58Z</time>
      </trkpt>
      <trkpt lat="43.739" lon="3.51915">
        <ele>368.32</ele>
        <time>2013-06-03T12:00:12Z</time>
      </trkpt>
      <trkpt lat="43.73903" lon="3.51917">
        <ele>367.84</ele>
        <time>2013-06-03T12:00:15Z</time>
      </trkpt>
      <trkpt lat="43.73921" lon="3.51925">
        <ele>364.96</ele>
        <time>2013-06-03T12:00:28Z</time>
      </trkpt>
      <trkpt lat="43.73933" lon="3.51935">
        <ele>361.59</ele>
        <time>2013-06-03T12:00:39Z</time>
      </trkpt>
      <trkpt lat="43.73935" lon="3.51938">
        <ele>361.59</ele>
        <time>2013-06-03T12:00:43Z</time>
      </trkpt>
      <trkpt lat="43.73938" lon="3.51941">
        <ele>360.63</ele>
        <time>2013-06-03T12:00:46Z</time>
      </trkpt>
      <trkpt lat="43.73943" lon="3.51947">
        <ele>359.67</ele>
        <time>2013-06-03T12:00:56Z</time>
      </trkpt>
      <trkpt lat="43.73946" lon="3.51948">
        <ele>359.67</ele>
        <time>2013-06-03T12:00:59Z</time>
      </trkpt>
      <trkpt lat="43.73953" lon="3.51955">
        <ele>357.27</ele>
        <time>2013-06-03T12:01:11Z</time>
      </trkpt>
      <trkpt lat="43.73957" lon="3.51964">
        <ele>355.34</ele>
        <time>2013-06-03T12:01:24Z</time>
      </trkpt>
      <trkpt lat="43.73959" lon="3.51972">
        <ele>354.38</ele>
        <time>2013-06-03T12:01:32Z</time>
      </trkpt>
      <trkpt lat="43.73958" lon="3.51976">
        <ele>354.38</ele>
        <time>2013-06-03T12:01:35Z</time>
      </trkpt>
      <trkpt lat="43.73958" lon="3.51983">
        <ele>353.9</ele>
        <time>2013-06-03T12:01:41Z</time>
      </trkpt>
      <trkpt lat="43.73955" lon="3.51988">
        <ele>352.46</ele>
        <time>2013-06-03T12:01:46Z</time>
      </trkpt>
      <trkpt lat="43.73952" lon="3.51994">
        <ele>351.98</ele>
        <time>2013-06-03T12:01:52Z</time>
      </trkpt>
      <trkpt lat="43.73949" lon="3.52003">
        <ele>350.06</ele>
        <time>2013-06-03T12:02:00Z</time>
      </trkpt>
      <trkpt lat="43.73947" lon="3.52019">
        <ele>349.1</ele>
        <time>2013-06-03T12:02:13Z</time>
      </trkpt>
      <trkpt lat="43.73942" lon="3.52035">
        <ele>347.17</ele>
        <time>2013-06-03T12:02:26Z</time>
      </trkpt>
      <trkpt lat="43.73941" lon="3.52041">
        <ele>347.17</ele>
        <time>2013-06-03T12:02:33Z</time>
      </trkpt>
      <trkpt lat="43.7394" lon="3.52045">
        <ele>346.69</ele>
        <time>2013-06-03T12:02:36Z</time>
      </trkpt>
      <trkpt lat="43.7394" lon="3.52062">
        <ele>345.73</ele>
        <time>2013-06-03T12:02:46Z</time>
      </trkpt>
      <trkpt lat="43.73941" lon="3.52067">
        <ele>345.25</ele>
        <time>2013-06-03T12:02:49Z</time>
      </trkpt>
      <trkpt lat="43.73941" lon="3.52074">
        <ele>344.29</ele>
        <time>2013-06-03T12:02:55Z</time>
      </trkpt>
      <trkpt lat="43.73938" lon="3.52079">
        <ele>344.29</ele>
        <time>2013-06-03T12:03:08Z</time>
      </trkpt>
      <trkpt lat="43.73935" lon="3.52088">
        <ele>343.33</ele>
        <time>2013-06-03T12:03:22Z</time>
      </trkpt>
      <trkpt lat="43.73934" lon="3.52094">
        <ele>342.37</ele>
        <time>2013-06-03T12:03:25Z</time>
      </trkpt>
      <trkpt lat="43.73935" lon="3.52098">
        <ele>342.37</ele>
        <time>2013-06-03T12:03:27Z</time>
      </trkpt>
      <trkpt lat="43.73935" lon="3.52113">
        <ele>340.92</ele>
        <time>2013-06-03T12:03:34Z</time>
      </trkpt>
      <trkpt lat="43.7394" lon="3.52136">
        <ele>338.52</ele>
        <time>2013-06-03T12:03:48Z</time>
      </trkpt>
      <trkpt lat="43.73944" lon="3.52153">
        <ele>337.56</ele>
        <time>2013-06-03T12:03:58Z</time>
      </trkpt>
      <trkpt lat="43.73948" lon="3.52165">
        <ele>336.6</ele>
        <time>2013-06-03T12:04:10Z</time>
      </trkpt>
      <trkpt lat="43.7395" lon="3.52169">
        <ele>334.68</ele>
        <time>2013-06-03T12:04:23Z</time>
      </trkpt>
      <trkpt lat="43.73952" lon="3.52179">
        <ele>332.75</ele>
        <time>2013-06-03T12:04:35Z</time>
      </trkpt>
      <trkpt lat="43.73951" lon="3.52187">
        <ele>331.31</ele>
        <time>2013-06-03T12:04:47Z</time>
      </trkpt>
      <trkpt lat="43.73947" lon="3.52195">
        <ele>329.87</ele>
        <time>2013-06-03T12:04:59Z</time>
      </trkpt>
      <trkpt lat="43.73944" lon="3.52206">
        <ele>328.91</ele>
        <time>2013-06-03T12:05:12Z</time>
      </trkpt>
      <trkpt lat="43.73939" lon="3.5222">
        <ele>327.47</ele>
        <time>2013-06-03T12:05:27Z</time>
      </trkpt>
      <trkpt lat="43.73936" lon="3.52228">
        <ele>325.54</ele>
        <time>2013-06-03T12:05:39Z</time>
      </trkpt>
      <trkpt lat="43.73934" lon="3.52235">
        <ele>325.06</ele>
        <time>2013-06-03T12:05:51Z</time>
      </trkpt>
      <trkpt lat="43.73934" lon="3.52243">
        <ele>324.58</ele>
        <time>2013-06-03T12:05:58Z</time>
      </trkpt>
      <trkpt lat="43.73934" lon="3.52253">
        <ele>324.1</ele>
        <time>2013-06-03T12:06:11Z</time>
      </trkpt>
      <trkpt lat="43.73933" lon="3.52263">
        <ele>322.18</ele>
        <time>2013-06-03T12:06:21Z</time>
      </trkpt>
      <trkpt lat="43.73931" lon="3.52268">
        <ele>321.22</ele>
        <time>2013-06-03T12:06:31Z</time>
      </trkpt>
      <trkpt lat="43.73929" lon="3.52278">
        <ele>319.3</ele>
        <time>2013-06-03T12:06:43Z</time>
      </trkpt>
      <trkpt lat="43.73927" lon="3.52285">
        <ele>318.33</ele>
        <time>2013-06-03T12:06:55Z</time>
      </trkpt>
      <trkpt lat="43.73926" lon="3.52294">
        <ele>317.37</ele>
        <time>2013-06-03T12:07:05Z</time>
      </trkpt>
      <trkpt lat="43.73925" lon="3.52305">
        <ele>315.93</ele>
        <time>2013-06-03T12:07:16Z</time>
      </trkpt>
      <trkpt lat="43.73924" lon="3.52315">
        <ele>314.97</ele>
        <time>2013-06-03T12:07:26Z</time>
      </trkpt>
      <trkpt lat="43.73921" lon="3.52328">
        <ele>312.57</ele>
        <time>2013-06-03T12:07:41Z</time>
      </trkpt>
      <trkpt lat="43.7392" lon="3.52338">
        <ele>312.09</ele>
        <time>2013-06-03T12:07:55Z</time>
      </trkpt>
      <trkpt lat="43.7392" lon="3.52337">
        <ele>312.09</ele>
        <time>2013-06-03T12:08:16Z</time>
      </trkpt>
      <trkpt lat="43.73921" lon="3.52337">
        <ele>312.57</ele>
        <time>2013-06-03T12:08:31Z</time>
      </trkpt>
      <trkpt lat="43.73921" lon="3.52339">
        <ele>312.57</ele>
        <time>2013-06-03T12:08:53Z</time>
      </trkpt>
      <trkpt lat="43.73921" lon="3.5234">
        <ele>313.53</ele>
        <time>2013-06-03T12:09:12Z</time>
      </trkpt>
      <trkpt lat="43.73922" lon="3.52339">
        <ele>313.53</ele>
        <time>2013-06-03T12:09:24Z</time>
      </trkpt>
      <trkpt lat="43.73921" lon="3.52341">
        <ele>313.53</ele>
        <time>2013-06-03T12:09:36Z</time>
      </trkpt>
      <trkpt lat="43.73921" lon="3.5234">
        <ele>313.53</ele>
        <time>2013-06-03T12:09:49Z</time>
      </trkpt>
      <trkpt lat="43.73921" lon="3.5234">
        <ele>313.53</ele>
        <time>2013-06-03T12:10:05Z</time>
      </trkpt>
      <trkpt lat="43.73921" lon="3.5234">
        <ele>313.53</ele>
        <time>2013-06-03T12:10:26Z</time>
      </trkpt>
      <trkpt lat="43.73922" lon="3.52342">
        <ele>313.05</ele>
        <time>2013-06-03T12:10:39Z</time>
      </trkpt>
      <trkpt lat="43.73921" lon="3.52347">
        <ele>311.6</ele>
        <time>2013-06-03T12:11:00Z</time>
      </trkpt>
      <trkpt lat="43.73922" lon="3.52358">
        <ele>311.6</ele>
        <time>2013-06-03T12:11:11Z</time>
      </trkpt>
      <trkpt lat="43.73924" lon="3.52374">
        <ele>312.57</ele>
        <time>2013-06-03T12:11:23Z</time>
      </trkpt>
      <trkpt lat="43.73924" lon="3.52382">
        <ele>313.05</ele>
        <time>2013-06-03T12:11:32Z</time>
      </trkpt>
      <trkpt lat="43.73924" lon="3.52386">
        <ele>312.57</ele>
        <time>2013-06-03T12:11:35Z</time>
      </trkpt>
      <trkpt lat="43.73925" lon="3.52402">
        <ele>314.01</ele>
        <time>2013-06-03T12:11:46Z</time>
      </trkpt>
      <trkpt lat="43.73926" lon="3.52404">
        <ele>314.49</ele>
        <time>2013-06-03T12:11:49Z</time>
      </trkpt>
      <trkpt lat="43.73926" lon="3.52407">
        <ele>314.01</ele>
        <time>2013-06-03T12:11:51Z</time>
      </trkpt>
      <trkpt lat="43.73931" lon="3.52422">
        <ele>314.97</ele>
        <time>2013-06-03T12:12:02Z</time>
      </trkpt>
      <trkpt lat="43.73931" lon="3.52426">
        <ele>314.97</ele>
        <time>2013-06-03T12:12:05Z</time>
      </trkpt>
      <trkpt lat="43.73932" lon="3.52433">
        <ele>314.97</ele>
        <time>2013-06-03T12:12:10Z</time>
      </trkpt>
      <trkpt lat="43.73934" lon="3.52449">
        <ele>315.45</ele>
        <time>2013-06-03T12:12:24Z</time>
      </trkpt>
      <trkpt lat="43.73935" lon="3.52462">
        <ele>316.89</ele>
        <time>2013-06-03T12:12:36Z</time>
      </trkpt>
      <trkpt lat="43.73935" lon="3.52468">
        <ele>316.89</ele>
        <time>2013-06-03T12:12:42Z</time>
      </trkpt>
      <trkpt lat="43.73932" lon="3.52479">
        <ele>316.89</ele>
        <time>2013-06-03T12:12:54Z</time>
      </trkpt>
      <trkpt lat="43.73932" lon="3.5249">
        <ele>316.89</ele>
        <time>2013-06-03T12:13:02Z</time>
      </trkpt>
      <trkpt lat="43.73933" lon="3.52495">
        <ele>316.89</ele>
        <time>2013-06-03T12:13:05Z</time>
      </trkpt>
      <trkpt lat="43.73935" lon="3.52505">
        <ele>317.37</ele>
        <time>2013-06-03T12:13:13Z</time>
      </trkpt>
      <trkpt lat="43.7394" lon="3.52518">
        <ele>317.37</ele>
        <time>2013-06-03T12:13:24Z</time>
      </trkpt>
      <trkpt lat="43.73941" lon="3.52526">
        <ele>318.81</ele>
        <time>2013-06-03T12:13:34Z</time>
      </trkpt>
      <trkpt lat="43.73942" lon="3.52529">
        <ele>318.33</ele>
        <time>2013-06-03T12:13:36Z</time>
      </trkpt>
      <trkpt lat="43.73942" lon="3.52536">
        <ele>318.81</ele>
        <time>2013-06-03T12:13:42Z</time>
      </trkpt>
      <trkpt lat="43.7394" lon="3.52544">
        <ele>319.78</ele>
        <time>2013-06-03T12:13:48Z</time>
      </trkpt>
      <trkpt lat="43.7393" lon="3.52553">
        <ele>320.26</ele>
        <time>2013-06-03T12:14:02Z</time>
      </trkpt>
      <trkpt lat="43.7392" lon="3.52558">
        <ele>320.74</ele>
        <time>2013-06-03T12:14:15Z</time>
      </trkpt>
      <trkpt lat="43.73919" lon="3.52566">
        <ele>321.22</ele>
        <time>2013-06-03T12:14:20Z</time>
      </trkpt>
      <trkpt lat="43.73921" lon="3.52576">
        <ele>321.22</ele>
        <time>2013-06-03T12:14:27Z</time>
      </trkpt>
      <trkpt lat="43.73927" lon="3.52588">
        <ele>322.18</ele>
        <time>2013-06-03T12:14:38Z</time>
      </trkpt>
      <trkpt lat="43.73937" lon="3.526">
        <ele>323.14</ele>
        <time>2013-06-03T12:14:49Z</time>
      </trkpt>
      <trkpt lat="43.73944" lon="3.52608">
        <ele>324.1</ele>
        <time>2013-06-03T12:15:00Z</time>
      </trkpt>
      <trkpt lat="43.73949" lon="3.52622">
        <ele>325.06</ele>
        <time>2013-06-03T12:15:10Z</time>
      </trkpt>
      <trkpt lat="43.73951" lon="3.52637">
        <ele>324.58</ele>
        <time>2013-06-03T12:15:21Z</time>
      </trkpt>
      <trkpt lat="43.73951" lon="3.52643">
        <ele>325.06</ele>
        <time>2013-06-03T12:15:25Z</time>
      </trkpt>
      <trkpt lat="43.73953" lon="3.52651">
        <ele>325.06</ele>
        <time>2013-06-03T12:15:29Z</time>
      </trkpt>
      <trkpt lat="43.73955" lon="3.52655">
        <ele>324.58</ele>
        <time>2013-06-03T12:15:32Z</time>
      </trkpt>
      <trkpt lat="43.73955" lon="3.52659">
        <ele>325.06</ele>
        <time>2013-06-03T12:15:35Z</time>
      </trkpt>
      <trkpt lat="43.73963" lon="3.52675">
        <ele>325.54</ele>
        <time>2013-06-03T12:15:46Z</time>
      </trkpt>
      <trkpt lat="43.73966" lon="3.52684">
        <ele>326.5</ele>
        <time>2013-06-03T12:15:57Z</time>
      </trkpt>
      <trkpt lat="43.73968" lon="3.52702">
        <ele>326.99</ele>
        <time>2013-06-03T12:16:10Z</time>
      </trkpt>
      <trkpt lat="43.73968" lon="3.52708">
        <ele>327.47</ele>
        <time>2013-06-03T12:16:15Z</time>
      </trkpt>
      <trkpt lat="43.7397" lon="3.52722">
        <ele>327.95</ele>
        <time>2013-06-03T12:16:26Z</time>
      </trkpt>
      <trkpt lat="43.73969" lon="3.52726">
        <ele>327.95</ele>
        <time>2013-06-03T12:16:32Z</time>
      </trkpt>
      <trkpt lat="43.73969" lon="3.5273">
        <ele>327.95</ele>
        <time>2013-06-03T12:16:35Z</time>
      </trkpt>
      <trkpt lat="43.73969" lon="3.52733">
        <ele>327.95</ele>
        <time>2013-06-03T12:16:37Z</time>
      </trkpt>
      <trkpt lat="43.7397" lon="3.5275">
        <ele>327.47</ele>
        <time>2013-06-03T12:16:50Z</time>
      </trkpt>
      <trkpt lat="43.73969" lon="3.52756">
        <ele>329.39</ele>
        <time>2013-06-03T12:17:02Z</time>
      </trkpt>
      <trkpt lat="43.73969" lon="3.52762">
        <ele>329.87</ele>
        <time>2013-06-03T12:17:08Z</time>
      </trkpt>
      <trkpt lat="43.7397" lon="3.52765">
        <ele>330.35</ele>
        <time>2013-06-03T12:17:11Z</time>
      </trkpt>
      <trkpt lat="43.73971" lon="3.52772">
        <ele>330.83</ele>
        <time>2013-06-03T12:17:17Z</time>
      </trkpt>
      <trkpt lat="43.73971" lon="3.52777">
        <ele>331.31</ele>
        <time>2013-06-03T12:17:21Z</time>
      </trkpt>
      <trkpt lat="43.73971" lon="3.52779">
        <ele>331.79</ele>
        <time>2013-06-03T12:17:33Z</time>
      </trkpt>
      <trkpt lat="43.73968" lon="3.5279">
        <ele>333.23</ele>
        <time>2013-06-03T12:17:43Z</time>
      </trkpt>
      <trkpt lat="43.73962" lon="3.52799">
        <ele>334.2</ele>
        <time>2013-06-03T12:17:55Z</time>
      </trkpt>
      <trkpt lat="43.73957" lon="3.52811">
        <ele>335.64</ele>
        <time>2013-06-03T12:18:07Z</time>
      </trkpt>
      <trkpt lat="43.73955" lon="3.5282">
        <ele>336.12</ele>
        <time>2013-06-03T12:18:18Z</time>
      </trkpt>
      <trkpt lat="43.73956" lon="3.52836">
        <ele>337.08</ele>
        <time>2013-06-03T12:18:30Z</time>
      </trkpt>
      <trkpt lat="43.73953" lon="3.52852">
        <ele>338.04</ele>
        <time>2013-06-03T12:18:42Z</time>
      </trkpt>
      <trkpt lat="43.73952" lon="3.52868">
        <ele>337.56</ele>
        <time>2013-06-03T12:18:56Z</time>
      </trkpt>
      <trkpt lat="43.73951" lon="3.52883">
        <ele>337.56</ele>
        <time>2013-06-03T12:19:07Z</time>
      </trkpt>
      <trkpt lat="43.73948" lon="3.529">
        <ele>337.08</ele>
        <time>2013-06-03T12:19:19Z</time>
      </trkpt>
      <trkpt lat="43.73947" lon="3.52908">
        <ele>337.56</ele>
        <time>2013-06-03T12:19:25Z</time>
      </trkpt>
      <trkpt lat="43.73947" lon="3.52924">
        <ele>338.04</ele>
        <time>2013-06-03T12:19:37Z</time>
      </trkpt>
      <trkpt lat="43.73946" lon="3.52942">
        <ele>339.48</ele>
        <time>2013-06-03T12:19:53Z</time>
      </trkpt>
      <trkpt lat="43.73947" lon="3.52963">
        <ele>340.92</ele>
        <time>2013-06-03T12:20:08Z</time>
      </trkpt>
      <trkpt lat="43.73946" lon="3.52984">
        <ele>342.37</ele>
        <time>2013-06-03T12:20:23Z</time>
      </trkpt>
      <trkpt lat="43.73945" lon="3.52996">
        <ele>343.33</ele>
        <time>2013-06-03T12:20:33Z</time>
      </trkpt>
      <trkpt lat="43.73944" lon="3.53006">
        <ele>343.81</ele>
        <time>2013-06-03T12:20:41Z</time>
      </trkpt>
      <trkpt lat="43.73937" lon="3.53023">
        <ele>344.77</ele>
        <time>2013-06-03T12:20:54Z</time>
      </trkpt>
      <trkpt lat="43.73936" lon="3.53025">
        <ele>345.25</ele>
        <time>2013-06-03T12:20:56Z</time>
      </trkpt>
      <trkpt lat="43.73926" lon="3.53029">
        <ele>345.73</ele>
        <time>2013-06-03T12:21:09Z</time>
      </trkpt>
      <trkpt lat="43.73921" lon="3.53034">
        <ele>346.69</ele>
        <time>2013-06-03T12:21:22Z</time>
      </trkpt>
      <trkpt lat="43.73921" lon="3.53034">
        <ele>346.69</ele>
        <time>2013-06-03T12:21:25Z</time>
      </trkpt>
      <trkpt lat="43.73915" lon="3.53036">
        <ele>347.17</ele>
        <time>2013-06-03T12:21:32Z</time>
      </trkpt>
      <trkpt lat="43.73911" lon="3.53039">
        <ele>349.58</ele>
        <time>2013-06-03T12:21:45Z</time>
      </trkpt>
      <trkpt lat="43.73907" lon="3.53041">
        <ele>350.54</ele>
        <time>2013-06-03T12:21:59Z</time>
      </trkpt>
      <trkpt lat="43.73893" lon="3.53044">
        <ele>351.5</ele>
        <time>2013-06-03T12:22:18Z</time>
      </trkpt>
      <trkpt lat="43.73891" lon="3.53045">
        <ele>351.02</ele>
        <time>2013-06-03T12:22:33Z</time>
      </trkpt>
      <trkpt lat="43.73886" lon="3.53038">
        <ele>352.94</ele>
        <time>2013-06-03T12:22:46Z</time>
      </trkpt>
      <trkpt lat="43.73879" lon="3.53036">
        <ele>353.9</ele>
        <time>2013-06-03T12:22:58Z</time>
      </trkpt>
      <trkpt lat="43.73871" lon="3.53038">
        <ele>355.34</ele>
        <time>2013-06-03T12:23:13Z</time>
      </trkpt>
      <trkpt lat="43.73867" lon="3.5304">
        <ele>355.34</ele>
        <time>2013-06-03T12:23:29Z</time>
      </trkpt>
      <trkpt lat="43.73862" lon="3.53038">
        <ele>356.31</ele>
        <time>2013-06-03T12:23:53Z</time>
      </trkpt>
      <trkpt lat="43.73853" lon="3.53036">
        <ele>358.71</ele>
        <time>2013-06-03T12:24:06Z</time>
      </trkpt>
      <trkpt lat="43.73849" lon="3.53041">
        <ele>358.71</ele>
        <time>2013-06-03T12:24:14Z</time>
      </trkpt>
      <trkpt lat="43.73848" lon="3.53038">
        <ele>360.15</ele>
        <time>2013-06-03T12:24:25Z</time>
      </trkpt>
      <trkpt lat="43.73846" lon="3.53035">
        <ele>361.59</ele>
        <time>2013-06-03T12:24:38Z</time>
      </trkpt>
      <trkpt lat="43.7384" lon="3.53029">
        <ele>361.11</ele>
        <time>2013-06-03T12:24:48Z</time>
      </trkpt>
      <trkpt lat="43.73838" lon="3.53025">
        <ele>360.15</ele>
        <time>2013-06-03T12:24:59Z</time>
      </trkpt>
      <trkpt lat="43.73837" lon="3.53019">
        <ele>362.07</ele>
        <time>2013-06-03T12:25:03Z</time>
      </trkpt>
      <trkpt lat="43.73838" lon="3.53018">
        <ele>361.59</ele>
        <time>2013-06-03T12:25:08Z</time>
      </trkpt>
      <trkpt lat="43.73836" lon="3.53014">
        <ele>360.63</ele>
        <time>2013-06-03T12:25:23Z</time>
      </trkpt>
      <trkpt lat="43.73835" lon="3.5301">
        <ele>360.15</ele>
        <time>2013-06-03T12:25:33Z</time>
      </trkpt>
      <trkpt lat="43.73833" lon="3.53">
        <ele>358.71</ele>
        <time>2013-06-03T12:25:42Z</time>
      </trkpt>
      <trkpt lat="43.73833" lon="3.52988">
        <ele>355.34</ele>
        <time>2013-06-03T12:25:51Z</time>
      </trkpt>
      <trkpt lat="43.7383" lon="3.5298">
        <ele>352.94</ele>
        <time>2013-06-03T12:26:09Z</time>
      </trkpt>
      <trkpt lat="43.7383" lon="3.5298">
        <ele>352.94</ele>
        <time>2013-06-03T12:26:10Z</time>
      </trkpt>
      <trkpt lat="43.73827" lon="3.52978">
        <ele>351.5</ele>
        <time>2013-06-03T12:26:13Z</time>
      </trkpt>
      <trkpt lat="43.73825" lon="3.52977">
        <ele>351.02</ele>
        <time>2013-06-03T12:26:15Z</time>
      </trkpt>
      <trkpt lat="43.73823" lon="3.52976">
        <ele>351.02</ele>
        <time>2013-06-03T12:26:17Z</time>
      </trkpt>
      <trkpt lat="43.73816" lon="3.52974">
        <ele>350.54</ele>
        <time>2013-06-03T12:26:22Z</time>
      </trkpt>
      <trkpt lat="43.73806" lon="3.52973">
        <ele>351.02</ele>
        <time>2013-06-03T12:26:34Z</time>
      </trkpt>
      <trkpt lat="43.73805" lon="3.52972">
        <ele>350.54</ele>
        <time>2013-06-03T12:26:35Z</time>
      </trkpt>
      <trkpt lat="43.73798" lon="3.5297">
        <ele>352.46</ele>
        <time>2013-06-03T12:26:47Z</time>
      </trkpt>
      <trkpt lat="43.73792" lon="3.52963">
        <ele>354.38</ele>
        <time>2013-06-03T12:26:59Z</time>
      </trkpt>
      <trkpt lat="43.73789" lon="3.52967">
        <ele>353.42</ele>
        <time>2013-06-03T12:27:02Z</time>
      </trkpt>
      <trkpt lat="43.73786" lon="3.52974">
        <ele>352.94</ele>
        <time>2013-06-03T12:27:13Z</time>
      </trkpt>
      <trkpt lat="43.73784" lon="3.52971">
        <ele>351.98</ele>
        <time>2013-06-03T12:27:23Z</time>
      </trkpt>
      <trkpt lat="43.73779" lon="3.52963">
        <ele>351.02</ele>
        <time>2013-06-03T12:27:34Z</time>
      </trkpt>
      <trkpt lat="43.7378" lon="3.52963">
        <ele>350.06</ele>
        <time>2013-06-03T12:27:50Z</time>
      </trkpt>
      <trkpt lat="43.7378" lon="3.52964">
        <ele>350.54</ele>
        <time>2013-06-03T12:28:10Z</time>
      </trkpt>
      <trkpt lat="43.7378" lon="3.52964">
        <ele>351.02</ele>
        <time>2013-06-03T12:28:28Z</time>
      </trkpt>
      <trkpt lat="43.73779" lon="3.52966">
        <ele>350.54</ele>
        <time>2013-06-03T12:28:48Z</time>
      </trkpt>
      <trkpt lat="43.7378" lon="3.52968">
        <ele>351.02</ele>
        <time>2013-06-03T12:29:02Z</time>
      </trkpt>
      <trkpt lat="43.73774" lon="3.52964">
        <ele>349.1</ele>
        <time>2013-06-03T12:29:13Z</time>
      </trkpt>
      <trkpt lat="43.73771" lon="3.52965">
        <ele>346.69</ele>
        <time>2013-06-03T12:29:21Z</time>
      </trkpt>
      <trkpt lat="43.73777" lon="3.52971">
        <ele>345.25</ele>
        <time>2013-06-03T12:29:27Z</time>
      </trkpt>
      <trkpt lat="43.73777" lon="3.52977">
        <ele>343.33</ele>
        <time>2013-06-03T12:29:30Z</time>
      </trkpt>
      <trkpt lat="43.73777" lon="3.52984">
        <ele>348.62</ele>
        <time>2013-06-03T12:29:33Z</time>
      </trkpt>
      <trkpt lat="43.73777" lon="3.52986">
        <ele>343.81</ele>
        <time>2013-06-03T12:29:34Z</time>
      </trkpt>
      <trkpt lat="43.73779" lon="3.5299">
        <ele>342.37</ele>
        <time>2013-06-03T12:29:39Z</time>
      </trkpt>
      <trkpt lat="43.73787" lon="3.52988">
        <ele>341.41</ele>
        <time>2013-06-03T12:29:46Z</time>
      </trkpt>
      <trkpt lat="43.73789" lon="3.52983">
        <ele>338.04</ele>
        <time>2013-06-03T12:29:56Z</time>
      </trkpt>
      <trkpt lat="43.73791" lon="3.52982">
        <ele>334.68</ele>
        <time>2013-06-03T12:30:00Z</time>
      </trkpt>
      <trkpt lat="43.73793" lon="3.52983">
        <ele>337.56</ele>
        <time>2013-06-03T12:30:02Z</time>
      </trkpt>
      <trkpt lat="43.73794" lon="3.52984">
        <ele>336.12</ele>
        <time>2013-06-03T12:30:03Z</time>
      </trkpt>
      <trkpt lat="43.73795" lon="3.52984">
        <ele>339.48</ele>
        <time>2013-06-03T12:30:04Z</time>
      </trkpt>
      <trkpt lat="43.73796" lon="3.52984">
        <ele>336.6</ele>
        <time>2013-06-03T12:30:05Z</time>
      </trkpt>
      <trkpt lat="43.738" lon="3.52988">
        <ele>336.6</ele>
        <time>2013-06-03T12:30:09Z</time>
      </trkpt>
      <trkpt lat="43.73807" lon="3.52992">
        <ele>336.12</ele>
        <time>2013-06-03T12:30:14Z</time>
      </trkpt>
      <trkpt lat="43.73808" lon="3.52993">
        <ele>335.64</ele>
        <time>2013-06-03T12:30:16Z</time>
      </trkpt>
      <trkpt lat="43.73809" lon="3.52995">
        <ele>333.23</ele>
        <time>2013-06-03T12:30:28Z</time>
      </trkpt>
      <trkpt lat="43.73806" lon="3.52995">
        <ele>332.75</ele>
        <time>2013-06-03T12:30:47Z</time>
      </trkpt>
      <trkpt lat="43.73804" lon="3.52994">
        <ele>331.79</ele>
        <time>2013-06-03T12:30:50Z</time>
      </trkpt>
      <trkpt lat="43.738" lon="3.52992">
        <ele>331.79</ele>
        <time>2013-06-03T12:30:57Z</time>
      </trkpt>
      <trkpt lat="43.73797" lon="3.5299">
        <ele>330.83</ele>
        <time>2013-06-03T12:31:08Z</time>
      </trkpt>
      <trkpt lat="43.73804" lon="3.52999">
        <ele>328.91</ele>
        <time>2013-06-03T12:31:18Z</time>
      </trkpt>
      <trkpt lat="43.7381" lon="3.53008">
        <ele>326.99</ele>
        <time>2013-06-03T12:31:27Z</time>
      </trkpt>
      <trkpt lat="43.73811" lon="3.53019">
        <ele>323.62</ele>
        <time>2013-06-03T12:31:37Z</time>
      </trkpt>
      <trkpt lat="43.73815" lon="3.53026">
        <ele>321.7</ele>
        <time>2013-06-03T12:31:46Z</time>
      </trkpt>
      <trkpt lat="43.73811" lon="3.53021">
        <ele>319.78</ele>
        <time>2013-06-03T12:31:56Z</time>
      </trkpt>
      <trkpt lat="43.73805" lon="3.5302">
        <ele>318.33</ele>
        <time>2013-06-03T12:32:01Z</time>
      </trkpt>
      <trkpt lat="43.73798" lon="3.53018">
        <ele>315.93</ele>
        <time>2013-06-03T12:32:11Z</time>
      </trkpt>
      <trkpt lat="43.73784" lon="3.53017">
        <ele>314.01</ele>
        <time>2013-06-03T12:32:23Z</time>
      </trkpt>
      <trkpt lat="43.73779" lon="3.53022">
        <ele>312.09</ele>
        <time>2013-06-03T12:32:29Z</time>
      </trkpt>
      <trkpt lat="43.73772" lon="3.53028">
        <ele>310.64</ele>
        <time>2013-06-03T12:32:36Z</time>
      </trkpt>
      <trkpt lat="43.73768" lon="3.53033">
        <ele>309.68</ele>
        <time>2013-06-03T12:32:51Z</time>
      </trkpt>
      <trkpt lat="43.73768" lon="3.53033">
        <ele>308.72</ele>
        <time>2013-06-03T12:32:53Z</time>
      </trkpt>
      <trkpt lat="43.73762" lon="3.5304">
        <ele>308.24</ele>
        <time>2013-06-03T12:32:58Z</time>
      </trkpt>
      <trkpt lat="43.73755" lon="3.53046">
        <ele>304.39</ele>
        <time>2013-06-03T12:33:11Z</time>
      </trkpt>
      <trkpt lat="43.73754" lon="3.53046">
        <ele>305.36</ele>
        <time>2013-06-03T12:33:12Z</time>
      </trkpt>
      <trkpt lat="43.73752" lon="3.53046">
        <ele>305.36</ele>
        <time>2013-06-03T12:33:14Z</time>
      </trkpt>
      <trkpt lat="43.73745" lon="3.53045">
        <ele>301.03</ele>
        <time>2013-06-03T12:33:21Z</time>
      </trkpt>
      <trkpt lat="43.73739" lon="3.53045">
        <ele>303.43</ele>
        <time>2013-06-03T12:33:28Z</time>
      </trkpt>
      <trkpt lat="43.73729" lon="3.53049">
        <ele>304.39</ele>
        <time>2013-06-03T12:33:40Z</time>
      </trkpt>
      <trkpt lat="43.73718" lon="3.53051">
        <ele>305.36</ele>
        <time>2013-06-03T12:33:52Z</time>
      </trkpt>
      <trkpt lat="43.73717" lon="3.53052">
        <ele>303.43</ele>
        <time>2013-06-03T12:33:54Z</time>
      </trkpt>
      <trkpt lat="43.73715" lon="3.53053">
        <ele>304.39</ele>
        <time>2013-06-03T12:33:57Z</time>
      </trkpt>
      <trkpt lat="43.73712" lon="3.53054">
        <ele>302.47</ele>
        <time>2013-06-03T12:34:02Z</time>
      </trkpt>
      <trkpt lat="43.73703" lon="3.53065">
        <ele>301.51</ele>
        <time>2013-06-03T12:34:12Z</time>
      </trkpt>
      <trkpt lat="43.73697" lon="3.53073">
        <ele>298.15</ele>
        <time>2013-06-03T12:34:22Z</time>
      </trkpt>
      <trkpt lat="43.73693" lon="3.53083">
        <ele>297.67</ele>
        <time>2013-06-03T12:34:35Z</time>
      </trkpt>
      <trkpt lat="43.73688" lon="3.53093">
        <ele>296.7</ele>
        <time>2013-06-03T12:34:50Z</time>
      </trkpt>
      <trkpt lat="43.73683" lon="3.53096">
        <ele>296.7</ele>
        <time>2013-06-03T12:34:54Z</time>
      </trkpt>
      <trkpt lat="43.7368" lon="3.53098">
        <ele>295.74</ele>
        <time>2013-06-03T12:34:56Z</time>
      </trkpt>
      <trkpt lat="43.73679" lon="3.53099">
        <ele>293.82</ele>
        <time>2013-06-03T12:34:57Z</time>
      </trkpt>
      <trkpt lat="43.73678" lon="3.53102">
        <ele>294.78</ele>
        <time>2013-06-03T12:35:00Z</time>
      </trkpt>
      <trkpt lat="43.73675" lon="3.53107">
        <ele>293.34</ele>
        <time>2013-06-03T12:35:04Z</time>
      </trkpt>
      <trkpt lat="43.73673" lon="3.53111">
        <ele>294.3</ele>
        <time>2013-06-03T12:35:08Z</time>
      </trkpt>
      <trkpt lat="43.73671" lon="3.53117">
        <ele>292.86</ele>
        <time>2013-06-03T12:35:12Z</time>
      </trkpt>
      <trkpt lat="43.73671" lon="3.53117">
        <ele>294.3</ele>
        <time>2013-06-03T12:35:13Z</time>
      </trkpt>
      <trkpt lat="43.73668" lon="3.53129">
        <ele>291.9</ele>
        <time>2013-06-03T12:35:21Z</time>
      </trkpt>
      <trkpt lat="43.73667" lon="3.53132">
        <ele>291.9</ele>
        <time>2013-06-03T12:35:23Z</time>
      </trkpt>
      <trkpt lat="43.73665" lon="3.53139">
        <ele>292.38</ele>
        <time>2013-06-03T12:35:28Z</time>
      </trkpt>
      <trkpt lat="43.73665" lon="3.53143">
        <ele>290.94</ele>
        <time>2013-06-03T12:35:29Z</time>
      </trkpt>
      <trkpt lat="43.73665" lon="3.53147">
        <ele>292.38</ele>
        <time>2013-06-03T12:35:32Z</time>
      </trkpt>
      <trkpt lat="43.73664" lon="3.53152">
        <ele>291.42</ele>
        <time>2013-06-03T12:35:34Z</time>
      </trkpt>
      <trkpt lat="43.73662" lon="3.53158">
        <ele>291.42</ele>
        <time>2013-06-03T12:35:38Z</time>
      </trkpt>
      <trkpt lat="43.73658" lon="3.53167">
        <ele>290.94</ele>
        <time>2013-06-03T12:35:41Z</time>
      </trkpt>
      <trkpt lat="43.73657" lon="3.53172">
        <ele>291.9</ele>
        <time>2013-06-03T12:35:44Z</time>
      </trkpt>
      <trkpt lat="43.73655" lon="3.53191">
        <ele>289.97</ele>
        <time>2013-06-03T12:35:56Z</time>
      </trkpt>
      <trkpt lat="43.73657" lon="3.53206">
        <ele>288.05</ele>
        <time>2013-06-03T12:36:08Z</time>
      </trkpt>
      <trkpt lat="43.73657" lon="3.53216">
        <ele>287.57</ele>
        <time>2013-06-03T12:36:13Z</time>
      </trkpt>
      <trkpt lat="43.73644" lon="3.53246">
        <ele>285.17</ele>
        <time>2013-06-03T12:36:27Z</time>
      </trkpt>
      <trkpt lat="43.73642" lon="3.53253">
        <ele>285.17</ele>
        <time>2013-06-03T12:36:30Z</time>
      </trkpt>
      <trkpt lat="43.73637" lon="3.53264">
        <ele>282.77</ele>
        <time>2013-06-03T12:36:36Z</time>
      </trkpt>
      <trkpt lat="43.73622" lon="3.53299">
        <ele>281.32</ele>
        <time>2013-06-03T12:36:48Z</time>
      </trkpt>
      <trkpt lat="43.73616" lon="3.53309">
        <ele>277.96</ele>
        <time>2013-06-03T12:36:55Z</time>
      </trkpt>
      <trkpt lat="43.73583" lon="3.53338">
        <ele>278.44</ele>
        <time>2013-06-03T12:37:13Z</time>
      </trkpt>
      <trkpt lat="43.73555" lon="3.53367">
        <ele>277</ele>
        <time>2013-06-03T12:37:30Z</time>
      </trkpt>
      <trkpt lat="43.73571" lon="3.535">
        <ele>272.67</ele>
        <time>2013-06-03T12:39:30Z</time>
      </trkpt>
      <trkpt lat="43.73589" lon="3.53501">
        <ele>272.67</ele>
        <time>2013-06-03T12:39:44Z</time>
      </trkpt>
      <trkpt lat="43.73592" lon="3.53506">
        <ele>272.19</ele>
        <time>2013-06-03T12:39:50Z</time>
      </trkpt>
      <trkpt lat="43.73621" lon="3.53516">
        <ele>270.75</ele>
        <time>2013-06-03T12:40:03Z</time>
      </trkpt>
      <trkpt lat="43.73625" lon="3.53518">
        <ele>270.27</ele>
        <time>2013-06-03T12:40:06Z</time>
      </trkpt>
      <trkpt lat="43.7365" lon="3.5353">
        <ele>268.83</ele>
        <time>2013-06-03T12:40:20Z</time>
      </trkpt>
      <trkpt lat="43.73659" lon="3.53538">
        <ele>267.86</ele>
        <time>2013-06-03T12:40:27Z</time>
      </trkpt>
      <trkpt lat="43.73674" lon="3.53547">
        <ele>266.9</ele>
        <time>2013-06-03T12:40:34Z</time>
      </trkpt>
      <trkpt lat="43.73688" lon="3.53568">
        <ele>267.86</ele>
        <time>2013-06-03T12:40:47Z</time>
      </trkpt>
      <trkpt lat="43.7369" lon="3.53571">
        <ele>267.38</ele>
        <time>2013-06-03T12:40:50Z</time>
      </trkpt>
      <trkpt lat="43.73693" lon="3.53577">
        <ele>265.94</ele>
        <time>2013-06-03T12:40:55Z</time>
      </trkpt>
      <trkpt lat="43.73706" lon="3.5359">
        <ele>265.94</ele>
        <time>2013-06-03T12:41:07Z</time>
      </trkpt>
      <trkpt lat="43.73712" lon="3.53616">
        <ele>263.54</ele>
        <time>2013-06-03T12:41:19Z</time>
      </trkpt>
      <trkpt lat="43.73669" lon="3.53637">
        <ele>261.62</ele>
        <time>2013-06-03T12:41:31Z</time>
      </trkpt>
      <trkpt lat="43.73642" lon="3.53665">
        <ele>261.62</ele>
        <time>2013-06-03T12:41:46Z</time>
      </trkpt>
      <trkpt lat="43.7364" lon="3.53667">
        <ele>261.62</ele>
        <time>2013-06-03T12:41:47Z</time>
      </trkpt>
      <trkpt lat="43.73629" lon="3.53681">
        <ele>260.65</ele>
        <time>2013-06-03T12:42:03Z</time>
      </trkpt>
      <trkpt lat="43.73626" lon="3.53693">
        <ele>259.21</ele>
        <time>2013-06-03T12:42:14Z</time>
      </trkpt>
      <trkpt lat="43.7362" lon="3.53713">
        <ele>257.77</ele>
        <time>2013-06-03T12:42:27Z</time>
      </trkpt>
      <trkpt lat="43.73619" lon="3.53717">
        <ele>256.33</ele>
        <time>2013-06-03T12:42:29Z</time>
      </trkpt>
      <trkpt lat="43.73618" lon="3.53723">
        <ele>256.33</ele>
        <time>2013-06-03T12:42:32Z</time>
      </trkpt>
      <trkpt lat="43.73616" lon="3.5373">
        <ele>255.85</ele>
        <time>2013-06-03T12:42:37Z</time>
      </trkpt>
      <trkpt lat="43.73616" lon="3.53745">
        <ele>253.93</ele>
        <time>2013-06-03T12:42:47Z</time>
      </trkpt>
      <trkpt lat="43.73617" lon="3.53757">
        <ele>252.96</ele>
        <time>2013-06-03T12:42:57Z</time>
      </trkpt>
      <trkpt lat="43.7362" lon="3.53767">
        <ele>252</ele>
        <time>2013-06-03T12:43:06Z</time>
      </trkpt>
      <trkpt lat="43.73626" lon="3.53786">
        <ele>250.08</ele>
        <time>2013-06-03T12:43:21Z</time>
      </trkpt>
      <trkpt lat="43.73624" lon="3.53792">
        <ele>249.6</ele>
        <time>2013-06-03T12:43:38Z</time>
      </trkpt>
      <trkpt lat="43.73627" lon="3.53796">
        <ele>249.12</ele>
        <time>2013-06-03T12:43:54Z</time>
      </trkpt>
      <trkpt lat="43.73626" lon="3.53798">
        <ele>249.12</ele>
        <time>2013-06-03T12:43:59Z</time>
      </trkpt>
      <trkpt lat="43.73626" lon="3.53802">
        <ele>248.64</ele>
        <time>2013-06-03T12:44:01Z</time>
      </trkpt>
      <trkpt lat="43.73634" lon="3.53818">
        <ele>247.2</ele>
        <time>2013-06-03T12:44:13Z</time>
      </trkpt>
      <trkpt lat="43.73641" lon="3.53835">
        <ele>246.72</ele>
        <time>2013-06-03T12:44:26Z</time>
      </trkpt>
      <trkpt lat="43.73642" lon="3.53848">
        <ele>246.23</ele>
        <time>2013-06-03T12:44:40Z</time>
      </trkpt>
      <trkpt lat="43.73641" lon="3.53852">
        <ele>249.12</ele>
        <time>2013-06-03T12:44:54Z</time>
      </trkpt>
      <trkpt lat="43.73628" lon="3.53864">
        <ele>249.6</ele>
        <time>2013-06-03T12:45:07Z</time>
      </trkpt>
      <trkpt lat="43.73625" lon="3.53869">
        <ele>248.64</ele>
        <time>2013-06-03T12:45:11Z</time>
      </trkpt>
      <trkpt lat="43.73623" lon="3.53875">
        <ele>248.16</ele>
        <time>2013-06-03T12:45:16Z</time>
      </trkpt>
      <trkpt lat="43.7362" lon="3.53881">
        <ele>248.64</ele>
        <time>2013-06-03T12:45:19Z</time>
      </trkpt>
      <trkpt lat="43.73613" lon="3.53893">
        <ele>244.79</ele>
        <time>2013-06-03T12:45:28Z</time>
      </trkpt>
      <trkpt lat="43.7361" lon="3.53899">
        <ele>245.75</ele>
        <time>2013-06-03T12:45:32Z</time>
      </trkpt>
      <trkpt lat="43.73606" lon="3.53909">
        <ele>245.27</ele>
        <time>2013-06-03T12:45:36Z</time>
      </trkpt>
      <trkpt lat="43.73602" lon="3.53918">
        <ele>245.75</ele>
        <time>2013-06-03T12:45:42Z</time>
      </trkpt>
      <trkpt lat="43.73593" lon="3.53934">
        <ele>244.31</ele>
        <time>2013-06-03T12:45:52Z</time>
      </trkpt>
      <trkpt lat="43.73585" lon="3.53948">
        <ele>242.87</ele>
        <time>2013-06-03T12:46:04Z</time>
      </trkpt>
      <trkpt lat="43.73583" lon="3.53951">
        <ele>242.39</ele>
        <time>2013-06-03T12:46:27Z</time>
      </trkpt>
      <trkpt lat="43.73581" lon="3.53954">
        <ele>242.39</ele>
        <time>2013-06-03T12:46:39Z</time>
      </trkpt>
      <trkpt lat="43.73579" lon="3.53957">
        <ele>241.43</ele>
        <time>2013-06-03T12:46:57Z</time>
      </trkpt>
      <trkpt lat="43.73578" lon="3.53957">
        <ele>241.43</ele>
        <time>2013-06-03T12:47:24Z</time>
      </trkpt>
      <trkpt lat="43.73578" lon="3.53958">
        <ele>241.91</ele>
        <time>2013-06-03T12:47:48Z</time>
      </trkpt>
      <trkpt lat="43.73578" lon="3.53958">
        <ele>241.43</ele>
        <time>2013-06-03T12:48:09Z</time>
      </trkpt>
      <trkpt lat="43.73578" lon="3.53958">
        <ele>240.95</ele>
        <time>2013-06-03T12:48:33Z</time>
      </trkpt>
      <trkpt lat="43.73577" lon="3.53961">
        <ele>241.43</ele>
        <time>2013-06-03T12:49:00Z</time>
      </trkpt>
      <trkpt lat="43.73577" lon="3.53962">
        <ele>240.95</ele>
        <time>2013-06-03T12:49:26Z</time>
      </trkpt>
      <trkpt lat="43.73577" lon="3.53963">
        <ele>240.95</ele>
        <time>2013-06-03T12:49:41Z</time>
      </trkpt>
      <trkpt lat="43.73577" lon="3.53966">
        <ele>240.47</ele>
        <time>2013-06-03T12:49:57Z</time>
      </trkpt>
      <trkpt lat="43.73577" lon="3.53967">
        <ele>240.95</ele>
        <time>2013-06-03T12:50:19Z</time>
      </trkpt>
      <trkpt lat="43.73576" lon="3.5397">
        <ele>240.95</ele>
        <time>2013-06-03T12:50:34Z</time>
      </trkpt>
      <trkpt lat="43.73574" lon="3.53971">
        <ele>240.47</ele>
        <time>2013-06-03T12:50:52Z</time>
      </trkpt>
      <trkpt lat="43.73567" lon="3.53977">
        <ele>238.54</ele>
        <time>2013-06-03T12:51:03Z</time>
      </trkpt>
      <trkpt lat="43.73566" lon="3.53978">
        <ele>240.47</ele>
        <time>2013-06-03T12:51:04Z</time>
      </trkpt>
      <trkpt lat="43.7356" lon="3.5398">
        <ele>238.54</ele>
        <time>2013-06-03T12:51:13Z</time>
      </trkpt>
      <trkpt lat="43.73556" lon="3.5398">
        <ele>238.54</ele>
        <time>2013-06-03T12:51:18Z</time>
      </trkpt>
      <trkpt lat="43.7355" lon="3.53981">
        <ele>239.02</ele>
        <time>2013-06-03T12:51:24Z</time>
      </trkpt>
      <trkpt lat="43.73537" lon="3.53983">
        <ele>237.58</ele>
        <time>2013-06-03T12:51:35Z</time>
      </trkpt>
      <trkpt lat="43.73531" lon="3.53986">
        <ele>237.1</ele>
        <time>2013-06-03T12:51:41Z</time>
      </trkpt>
      <trkpt lat="43.73528" lon="3.53987">
        <ele>238.06</ele>
        <time>2013-06-03T12:51:43Z</time>
      </trkpt>
      <trkpt lat="43.73523" lon="3.53989">
        <ele>237.1</ele>
        <time>2013-06-03T12:51:47Z</time>
      </trkpt>
      <trkpt lat="43.73518" lon="3.53991">
        <ele>236.62</ele>
        <time>2013-06-03T12:51:51Z</time>
      </trkpt>
      <trkpt lat="43.73514" lon="3.5399">
        <ele>237.1</ele>
        <time>2013-06-03T12:51:55Z</time>
      </trkpt>
      <trkpt lat="43.7351" lon="3.53992">
        <ele>235.66</ele>
        <time>2013-06-03T12:51:58Z</time>
      </trkpt>
      <trkpt lat="43.73503" lon="3.54007">
        <ele>233.26</ele>
        <time>2013-06-03T12:52:12Z</time>
      </trkpt>
      <trkpt lat="43.73504" lon="3.54018">
        <ele>231.81</ele>
        <time>2013-06-03T12:52:22Z</time>
      </trkpt>
      <trkpt lat="43.73508" lon="3.54021">
        <ele>230.37</ele>
        <time>2013-06-03T12:52:29Z</time>
      </trkpt>
      <trkpt lat="43.73517" lon="3.5403">
        <ele>228.93</ele>
        <time>2013-06-03T12:52:39Z</time>
      </trkpt>
      <trkpt lat="43.73519" lon="3.5404">
        <ele>229.41</ele>
        <time>2013-06-03T12:52:47Z</time>
      </trkpt>
      <trkpt lat="43.7352" lon="3.54058">
        <ele>227.49</ele>
        <time>2013-06-03T12:53:00Z</time>
      </trkpt>
      <trkpt lat="43.73519" lon="3.54079">
        <ele>225.09</ele>
        <time>2013-06-03T12:53:13Z</time>
      </trkpt>
      <trkpt lat="43.7352" lon="3.54084">
        <ele>225.57</ele>
        <time>2013-06-03T12:53:15Z</time>
      </trkpt>
      <trkpt lat="43.73533" lon="3.54097">
        <ele>225.09</ele>
        <time>2013-06-03T12:53:26Z</time>
      </trkpt>
      <trkpt lat="43.73533" lon="3.54107">
        <ele>224.12</ele>
        <time>2013-06-03T12:53:33Z</time>
      </trkpt>
      <trkpt lat="43.73536" lon="3.54121">
        <ele>222.2</ele>
        <time>2013-06-03T12:53:41Z</time>
      </trkpt>
      <trkpt lat="43.73544" lon="3.54131">
        <ele>219.8</ele>
        <time>2013-06-03T12:53:54Z</time>
      </trkpt>
      <trkpt lat="43.73545" lon="3.54133">
        <ele>219.32</ele>
        <time>2013-06-03T12:53:56Z</time>
      </trkpt>
      <trkpt lat="43.73546" lon="3.54135">
        <ele>219.32</ele>
        <time>2013-06-03T12:53:58Z</time>
      </trkpt>
      <trkpt lat="43.73553" lon="3.54139">
        <ele>217.4</ele>
        <time>2013-06-03T12:54:04Z</time>
      </trkpt>
      <trkpt lat="43.73563" lon="3.5415">
        <ele>215.95</ele>
        <time>2013-06-03T12:54:16Z</time>
      </trkpt>
      <trkpt lat="43.73569" lon="3.54164">
        <ele>214.51</ele>
        <time>2013-06-03T12:54:28Z</time>
      </trkpt>
      <trkpt lat="43.73572" lon="3.54176">
        <ele>212.11</ele>
        <time>2013-06-03T12:54:40Z</time>
      </trkpt>
      <trkpt lat="43.73577" lon="3.54188">
        <ele>210.67</ele>
        <time>2013-06-03T12:54:49Z</time>
      </trkpt>
      <trkpt lat="43.73584" lon="3.54206">
        <ele>208.26</ele>
        <time>2013-06-03T12:55:03Z</time>
      </trkpt>
      <trkpt lat="43.73587" lon="3.54218">
        <ele>206.82</ele>
        <time>2013-06-03T12:55:15Z</time>
      </trkpt>
      <trkpt lat="43.73593" lon="3.54231">
        <ele>205.38</ele>
        <time>2013-06-03T12:55:29Z</time>
      </trkpt>
      <trkpt lat="43.73594" lon="3.54237">
        <ele>202.98</ele>
        <time>2013-06-03T12:55:42Z</time>
      </trkpt>
      <trkpt lat="43.73596" lon="3.54242">
        <ele>202.01</ele>
        <time>2013-06-03T12:55:54Z</time>
      </trkpt>
      <trkpt lat="43.73588" lon="3.54252">
        <ele>200.57</ele>
        <time>2013-06-03T12:56:04Z</time>
      </trkpt>
      <trkpt lat="43.73591" lon="3.54244">
        <ele>200.09</ele>
        <time>2013-06-03T12:56:15Z</time>
      </trkpt>
      <trkpt lat="43.73592" lon="3.54243">
        <ele>196.73</ele>
        <time>2013-06-03T12:56:17Z</time>
      </trkpt>
      <trkpt lat="43.73592" lon="3.54243">
        <ele>200.57</ele>
        <time>2013-06-03T12:56:18Z</time>
      </trkpt>
      <trkpt lat="43.73597" lon="3.5424">
        <ele>199.13</ele>
        <time>2013-06-03T12:56:22Z</time>
      </trkpt>
      <trkpt lat="43.73603" lon="3.54223">
        <ele>194.8</ele>
        <time>2013-06-03T12:56:33Z</time>
      </trkpt>
      <trkpt lat="43.73603" lon="3.5422">
        <ele>197.69</ele>
        <time>2013-06-03T12:56:35Z</time>
      </trkpt>
      <trkpt lat="43.73605" lon="3.54216">
        <ele>197.69</ele>
        <time>2013-06-03T12:56:37Z</time>
      </trkpt>
      <trkpt lat="43.73606" lon="3.54206">
        <ele>196.25</ele>
        <time>2013-06-03T12:56:43Z</time>
      </trkpt>
      <trkpt lat="43.73607" lon="3.542">
        <ele>195.77</ele>
        <time>2013-06-03T12:56:47Z</time>
      </trkpt>
      <trkpt lat="43.73608" lon="3.54191">
        <ele>195.28</ele>
        <time>2013-06-03T12:56:57Z</time>
      </trkpt>
      <trkpt lat="43.7361" lon="3.54177">
        <ele>194.32</ele>
        <time>2013-06-03T12:57:05Z</time>
      </trkpt>
      <trkpt lat="43.73615" lon="3.5416">
        <ele>192.88</ele>
        <time>2013-06-03T12:57:16Z</time>
      </trkpt>
      <trkpt lat="43.73618" lon="3.54153">
        <ele>191.92</ele>
        <time>2013-06-03T12:57:22Z</time>
      </trkpt>
      <trkpt lat="43.73619" lon="3.5415">
        <ele>191.44</ele>
        <time>2013-06-03T12:57:25Z</time>
      </trkpt>
      <trkpt lat="43.7362" lon="3.54142">
        <ele>190.48</ele>
        <time>2013-06-03T12:57:38Z</time>
      </trkpt>
      <trkpt lat="43.7362" lon="3.54144">
        <ele>189.52</ele>
        <time>2013-06-03T12:57:40Z</time>
      </trkpt>
      <trkpt lat="43.73622" lon="3.54146">
        <ele>190</ele>
        <time>2013-06-03T12:57:43Z</time>
      </trkpt>
      <trkpt lat="43.73624" lon="3.54151">
        <ele>188.56</ele>
        <time>2013-06-03T12:57:48Z</time>
      </trkpt>
      <trkpt lat="43.73626" lon="3.54165">
        <ele>187.11</ele>
        <time>2013-06-03T12:58:02Z</time>
      </trkpt>
      <trkpt lat="43.73628" lon="3.5417">
        <ele>186.15</ele>
        <time>2013-06-03T12:58:07Z</time>
      </trkpt>
      <trkpt lat="43.7363" lon="3.54178">
        <ele>185.67</ele>
        <time>2013-06-03T12:58:14Z</time>
      </trkpt>
      <trkpt lat="43.73633" lon="3.54184">
        <ele>184.71</ele>
        <time>2013-06-03T12:58:20Z</time>
      </trkpt>
      <trkpt lat="43.73635" lon="3.54187">
        <ele>184.23</ele>
        <time>2013-06-03T12:58:22Z</time>
      </trkpt>
      <trkpt lat="43.73639" lon="3.54201">
        <ele>182.31</ele>
        <time>2013-06-03T12:58:38Z</time>
      </trkpt>
      <trkpt lat="43.73641" lon="3.54209">
        <ele>181.83</ele>
        <time>2013-06-03T12:58:46Z</time>
      </trkpt>
      <trkpt lat="43.73643" lon="3.54227">
        <ele>179.9</ele>
        <time>2013-06-03T12:58:59Z</time>
      </trkpt>
      <trkpt lat="43.73643" lon="3.54236">
        <ele>179.42</ele>
        <time>2013-06-03T12:59:05Z</time>
      </trkpt>
      <trkpt lat="43.73643" lon="3.54252">
        <ele>178.94</ele>
        <time>2013-06-03T12:59:15Z</time>
      </trkpt>
      <trkpt lat="43.73643" lon="3.54256">
        <ele>179.42</ele>
        <time>2013-06-03T12:59:18Z</time>
      </trkpt>
      <trkpt lat="43.73641" lon="3.54273">
        <ele>177.5</ele>
        <time>2013-06-03T12:59:30Z</time>
      </trkpt>
      <trkpt lat="43.73634" lon="3.54292">
        <ele>176.54</ele>
        <time>2013-06-03T12:59:43Z</time>
      </trkpt>
      <trkpt lat="43.73626" lon="3.54304">
        <ele>174.62</ele>
        <time>2013-06-03T12:59:57Z</time>
      </trkpt>
      <trkpt lat="43.73621" lon="3.54319">
        <ele>172.69</ele>
        <time>2013-06-03T13:00:12Z</time>
      </trkpt>
      <trkpt lat="43.73622" lon="3.54321">
        <ele>171.73</ele>
        <time>2013-06-03T13:00:26Z</time>
      </trkpt>
      <trkpt lat="43.73621" lon="3.5433">
        <ele>169.81</ele>
        <time>2013-06-03T13:00:40Z</time>
      </trkpt>
      <trkpt lat="43.7362" lon="3.54344">
        <ele>167.89</ele>
        <time>2013-06-03T13:00:57Z</time>
      </trkpt>
      <trkpt lat="43.73621" lon="3.54348">
        <ele>167.41</ele>
        <time>2013-06-03T13:01:06Z</time>
      </trkpt>
      <trkpt lat="43.73621" lon="3.54363">
        <ele>166.45</ele>
        <time>2013-06-03T13:01:11Z</time>
      </trkpt>
      <trkpt lat="43.73621" lon="3.54394">
        <ele>165</ele>
        <time>2013-06-03T13:01:26Z</time>
      </trkpt>
      <trkpt lat="43.73623" lon="3.54405">
        <ele>164.04</ele>
        <time>2013-06-03T13:01:33Z</time>
      </trkpt>
      <trkpt lat="43.73622" lon="3.54424">
        <ele>162.6</ele>
        <time>2013-06-03T13:01:45Z</time>
      </trkpt>
      <trkpt lat="43.73618" lon="3.54438">
        <ele>161.64</ele>
        <time>2013-06-03T13:01:59Z</time>
      </trkpt>
      <trkpt lat="43.73614" lon="3.54453">
        <ele>160.2</ele>
        <time>2013-06-03T13:02:13Z</time>
      </trkpt>
      <trkpt lat="43.73611" lon="3.54462">
        <ele>159.24</ele>
        <time>2013-06-03T13:02:21Z</time>
      </trkpt>
      <trkpt lat="43.73608" lon="3.54474">
        <ele>156.83</ele>
        <time>2013-06-03T13:02:38Z</time>
      </trkpt>
      <trkpt lat="43.73612" lon="3.54464">
        <ele>154.91</ele>
        <time>2013-06-03T13:02:53Z</time>
      </trkpt>
      <trkpt lat="43.73619" lon="3.54453">
        <ele>153.47</ele>
        <time>2013-06-03T13:03:05Z</time>
      </trkpt>
      <trkpt lat="43.73634" lon="3.5443">
        <ele>151.54</ele>
        <time>2013-06-03T13:03:20Z</time>
      </trkpt>
      <trkpt lat="43.73636" lon="3.54429">
        <ele>151.06</ele>
        <time>2013-06-03T13:03:21Z</time>
      </trkpt>
      <trkpt lat="43.73645" lon="3.54412">
        <ele>149.14</ele>
        <time>2013-06-03T13:03:35Z</time>
      </trkpt>
      <trkpt lat="43.73653" lon="3.54407">
        <ele>147.7</ele>
        <time>2013-06-03T13:03:47Z</time>
      </trkpt>
      <trkpt lat="43.73652" lon="3.54421">
        <ele>146.26</ele>
        <time>2013-06-03T13:04:00Z</time>
      </trkpt>
      <trkpt lat="43.7365" lon="3.5443">
        <ele>145.3</ele>
        <time>2013-06-03T13:04:07Z</time>
      </trkpt>
      <trkpt lat="43.73648" lon="3.54444">
        <ele>143.85</ele>
        <time>2013-06-03T13:04:18Z</time>
      </trkpt>
      <trkpt lat="43.73644" lon="3.54455">
        <ele>142.41</ele>
        <time>2013-06-03T13:04:28Z</time>
      </trkpt>
      <trkpt lat="43.73645" lon="3.54471">
        <ele>140.49</ele>
        <time>2013-06-03T13:04:42Z</time>
      </trkpt>
      <trkpt lat="43.73645" lon="3.54474">
        <ele>140.01</ele>
        <time>2013-06-03T13:04:44Z</time>
      </trkpt>
      <trkpt lat="43.73645" lon="3.54477">
        <ele>140.01</ele>
        <time>2013-06-03T13:04:46Z</time>
      </trkpt>
      <trkpt lat="43.73644" lon="3.54486">
        <ele>139.53</ele>
        <time>2013-06-03T13:04:52Z</time>
      </trkpt>
      <trkpt lat="43.73641" lon="3.54512">
        <ele>138.09</ele>
        <time>2013-06-03T13:05:08Z</time>
      </trkpt>
      <trkpt lat="43.73647" lon="3.54524">
        <ele>135.2</ele>
        <time>2013-06-03T13:05:24Z</time>
      </trkpt>
      <trkpt lat="43.73647" lon="3.54539">
        <ele>133.28</ele>
        <time>2013-06-03T13:05:37Z</time>
      </trkpt>
      <trkpt lat="43.73648" lon="3.54553">
        <ele>130.88</ele>
        <time>2013-06-03T13:05:52Z</time>
      </trkpt>
      <trkpt lat="43.73647" lon="3.54566">
        <ele>128.95</ele>
        <time>2013-06-03T13:06:05Z</time>
      </trkpt>
      <trkpt lat="43.73641" lon="3.54577">
        <ele>127.99</ele>
        <time>2013-06-03T13:06:19Z</time>
      </trkpt>
      <trkpt lat="43.73637" lon="3.54581">
        <ele>130.88</ele>
        <time>2013-06-03T13:06:31Z</time>
      </trkpt>
      <trkpt lat="43.73639" lon="3.54583">
        <ele>125.11</ele>
        <time>2013-06-03T13:06:33Z</time>
      </trkpt>
      <trkpt lat="43.7364" lon="3.54584">
        <ele>127.51</ele>
        <time>2013-06-03T13:06:35Z</time>
      </trkpt>
      <trkpt lat="43.73633" lon="3.54599">
        <ele>125.59</ele>
        <time>2013-06-03T13:06:45Z</time>
      </trkpt>
      <trkpt lat="43.73632" lon="3.54612">
        <ele>124.15</ele>
        <time>2013-06-03T13:06:58Z</time>
      </trkpt>
      <trkpt lat="43.73632" lon="3.54619">
        <ele>122.71</ele>
        <time>2013-06-03T13:07:04Z</time>
      </trkpt>
      <trkpt lat="43.73634" lon="3.54623">
        <ele>122.22</ele>
        <time>2013-06-03T13:07:08Z</time>
      </trkpt>
      <trkpt lat="43.73637" lon="3.54631">
        <ele>121.26</ele>
        <time>2013-06-03T13:07:21Z</time>
      </trkpt>
      <trkpt lat="43.73642" lon="3.5464">
        <ele>119.82</ele>
        <time>2013-06-03T13:07:36Z</time>
      </trkpt>
      <trkpt lat="43.73646" lon="3.5464">
        <ele>119.82</ele>
        <time>2013-06-03T13:07:50Z</time>
      </trkpt>
      <trkpt lat="43.73647" lon="3.54642">
        <ele>119.34</ele>
        <time>2013-06-03T13:08:05Z</time>
      </trkpt>
      <trkpt lat="43.73648" lon="3.54644">
        <ele>118.86</ele>
        <time>2013-06-03T13:08:23Z</time>
      </trkpt>
      <trkpt lat="43.73646" lon="3.54644">
        <ele>119.34</ele>
        <time>2013-06-03T13:08:36Z</time>
      </trkpt>
      <trkpt lat="43.73646" lon="3.54644">
        <ele>119.34</ele>
        <time>2013-06-03T13:08:58Z</time>
      </trkpt>
      <trkpt lat="43.73649" lon="3.54652">
        <ele>118.38</ele>
        <time>2013-06-03T13:09:16Z</time>
      </trkpt>
      <trkpt lat="43.73655" lon="3.54656">
        <ele>117.9</ele>
        <time>2013-06-03T13:09:25Z</time>
      </trkpt>
      <trkpt lat="43.73669" lon="3.54657">
        <ele>117.9</ele>
        <time>2013-06-03T13:09:31Z</time>
      </trkpt>
      <trkpt lat="43.73676" lon="3.54655">
        <ele>117.9</ele>
        <time>2013-06-03T13:09:35Z</time>
      </trkpt>
      <trkpt lat="43.73681" lon="3.5466">
        <ele>118.86</ele>
        <time>2013-06-03T13:09:50Z</time>
      </trkpt>
      <trkpt lat="43.73679" lon="3.54665">
        <ele>118.38</ele>
        <time>2013-06-03T13:09:53Z</time>
      </trkpt>
      <trkpt lat="43.73673" lon="3.54679">
        <ele>118.86</ele>
        <time>2013-06-03T13:10:06Z</time>
      </trkpt>
      <trkpt lat="43.73673" lon="3.54681">
        <ele>118.38</ele>
        <time>2013-06-03T13:10:08Z</time>
      </trkpt>
      <trkpt lat="43.73671" lon="3.54693">
        <ele>117.9</ele>
        <time>2013-06-03T13:10:16Z</time>
      </trkpt>
      <trkpt lat="43.73671" lon="3.54696">
        <ele>116.94</ele>
        <time>2013-06-03T13:10:18Z</time>
      </trkpt>
      <trkpt lat="43.73673" lon="3.54717">
        <ele>116.94</ele>
        <time>2013-06-03T13:10:30Z</time>
      </trkpt>
      <trkpt lat="43.73674" lon="3.54733">
        <ele>116.94</ele>
        <time>2013-06-03T13:10:40Z</time>
      </trkpt>
      <trkpt lat="43.73675" lon="3.5474">
        <ele>116.46</ele>
        <time>2013-06-03T13:10:44Z</time>
      </trkpt>
      <trkpt lat="43.73672" lon="3.54747">
        <ele>115.98</ele>
        <time>2013-06-03T13:10:50Z</time>
      </trkpt>
      <trkpt lat="43.73671" lon="3.54771">
        <ele>115.98</ele>
        <time>2013-06-03T13:11:02Z</time>
      </trkpt>
      <trkpt lat="43.73669" lon="3.54773">
        <ele>115.5</ele>
        <time>2013-06-03T13:11:04Z</time>
      </trkpt>
      <trkpt lat="43.73662" lon="3.5478">
        <ele>115.01</ele>
        <time>2013-06-03T13:11:13Z</time>
      </trkpt>
      <trkpt lat="43.73657" lon="3.5478">
        <ele>115.01</ele>
        <time>2013-06-03T13:11:24Z</time>
      </trkpt>
      <trkpt lat="43.73655" lon="3.54776">
        <ele>115.01</ele>
        <time>2013-06-03T13:11:38Z</time>
      </trkpt>
      <trkpt lat="43.73654" lon="3.54776">
        <ele>115.01</ele>
        <time>2013-06-03T13:11:54Z</time>
      </trkpt>
      <trkpt lat="43.73653" lon="3.54776">
        <ele>115.5</ele>
        <time>2013-06-03T13:11:56Z</time>
      </trkpt>
      <trkpt lat="43.73652" lon="3.54779">
        <ele>115.01</ele>
        <time>2013-06-03T13:11:58Z</time>
      </trkpt>
      <trkpt lat="43.73649" lon="3.54782">
        <ele>114.53</ele>
        <time>2013-06-03T13:12:01Z</time>
      </trkpt>
      <trkpt lat="43.7364" lon="3.54785">
        <ele>115.5</ele>
        <time>2013-06-03T13:12:08Z</time>
      </trkpt>
      <trkpt lat="43.73623" lon="3.54787">
        <ele>113.57</ele>
        <time>2013-06-03T13:12:21Z</time>
      </trkpt>
      <trkpt lat="43.73619" lon="3.54789">
        <ele>114.53</ele>
        <time>2013-06-03T13:12:26Z</time>
      </trkpt>
      <trkpt lat="43.73608" lon="3.54787">
        <ele>114.05</ele>
        <time>2013-06-03T13:12:37Z</time>
      </trkpt>
      <trkpt lat="43.73607" lon="3.54787">
        <ele>114.05</ele>
        <time>2013-06-03T13:12:38Z</time>
      </trkpt>
      <trkpt lat="43.73592" lon="3.54786">
        <ele>113.57</ele>
        <time>2013-06-03T13:12:50Z</time>
      </trkpt>
      <trkpt lat="43.73587" lon="3.54787">
        <ele>113.09</ele>
        <time>2013-06-03T13:12:54Z</time>
      </trkpt>
      <trkpt lat="43.73583" lon="3.54787">
        <ele>112.61</ele>
        <time>2013-06-03T13:12:57Z</time>
      </trkpt>
      <trkpt lat="43.73574" lon="3.54787">
        <ele>112.61</ele>
        <time>2013-06-03T13:13:03Z</time>
      </trkpt>
      <trkpt lat="43.73565" lon="3.54789">
        <ele>112.61</ele>
        <time>2013-06-03T13:13:10Z</time>
      </trkpt>
      <trkpt lat="43.73559" lon="3.5479">
        <ele>112.13</ele>
        <time>2013-06-03T13:13:15Z</time>
      </trkpt>
      <trkpt lat="43.73556" lon="3.54791">
        <ele>112.61</ele>
        <time>2013-06-03T13:13:17Z</time>
      </trkpt>
      <trkpt lat="43.73551" lon="3.54793">
        <ele>111.65</ele>
        <time>2013-06-03T13:13:21Z</time>
      </trkpt>
      <trkpt lat="43.7355" lon="3.54795">
        <ele>112.13</ele>
        <time>2013-06-03T13:13:23Z</time>
      </trkpt>
      <trkpt lat="43.73546" lon="3.54797">
        <ele>112.13</ele>
        <time>2013-06-03T13:13:28Z</time>
      </trkpt>
      <trkpt lat="43.73542" lon="3.548">
        <ele>111.65</ele>
        <time>2013-06-03T13:13:35Z</time>
      </trkpt>
      <trkpt lat="43.73537" lon="3.54803">
        <ele>111.65</ele>
        <time>2013-06-03T13:13:41Z</time>
      </trkpt>
      <trkpt lat="43.73529" lon="3.54805">
        <ele>111.65</ele>
        <time>2013-06-03T13:13:48Z</time>
      </trkpt>
      <trkpt lat="43.73522" lon="3.54806">
        <ele>111.17</ele>
        <time>2013-06-03T13:13:54Z</time>
      </trkpt>
      <trkpt lat="43.73521" lon="3.54804">
        <ele>111.17</ele>
        <time>2013-06-03T13:13:56Z</time>
      </trkpt>
      <trkpt lat="43.7352" lon="3.54797">
        <ele>110.21</ele>
        <time>2013-06-03T13:14:03Z</time>
      </trkpt>
      <trkpt lat="43.73518" lon="3.54786">
        <ele>110.69</ele>
        <time>2013-06-03T13:14:13Z</time>
      </trkpt>
      <trkpt lat="43.73519" lon="3.54775">
        <ele>110.69</ele>
        <time>2013-06-03T13:14:24Z</time>
      </trkpt>
      <trkpt lat="43.73518" lon="3.54769">
        <ele>110.69</ele>
        <time>2013-06-03T13:14:27Z</time>
      </trkpt>
      <trkpt lat="43.73509" lon="3.54767">
        <ele>110.21</ele>
        <time>2013-06-03T13:14:34Z</time>
      </trkpt>
      <trkpt lat="43.73506" lon="3.54766">
        <ele>110.21</ele>
        <time>2013-06-03T13:14:42Z</time>
      </trkpt>
      <trkpt lat="43.73505" lon="3.54767">
        <ele>110.21</ele>
        <time>2013-06-03T13:14:44Z</time>
      </trkpt>
      <trkpt lat="43.73498" lon="3.54771">
        <ele>110.21</ele>
        <time>2013-06-03T13:14:51Z</time>
      </trkpt>
      <trkpt lat="43.73493" lon="3.54767">
        <ele>109.25</ele>
        <time>2013-06-03T13:15:04Z</time>
      </trkpt>
      <trkpt lat="43.73485" lon="3.54768">
        <ele>109.25</ele>
        <time>2013-06-03T13:15:17Z</time>
      </trkpt>
      <trkpt lat="43.73478" lon="3.5477">
        <ele>109.25</ele>
        <time>2013-06-03T13:15:26Z</time>
      </trkpt>
      <trkpt lat="43.73477" lon="3.5477">
        <ele>108.77</ele>
        <time>2013-06-03T13:15:27Z</time>
      </trkpt>
      <trkpt lat="43.73473" lon="3.54769">
        <ele>108.77</ele>
        <time>2013-06-03T13:15:30Z</time>
      </trkpt>
      <trkpt lat="43.7347" lon="3.54771">
        <ele>114.53</ele>
        <time>2013-06-03T13:15:38Z</time>
      </trkpt>
      <trkpt lat="43.73469" lon="3.54771">
        <ele>109.73</ele>
        <time>2013-06-03T13:15:39Z</time>
      </trkpt>
      <trkpt lat="43.73463" lon="3.54771">
        <ele>109.25</ele>
        <time>2013-06-03T13:15:54Z</time>
      </trkpt>
      <trkpt lat="43.73458" lon="3.54768">
        <ele>103</ele>
        <time>2013-06-03T13:16:01Z</time>
      </trkpt>
      <trkpt lat="43.73457" lon="3.54769">
        <ele>111.65</ele>
        <time>2013-06-03T13:16:02Z</time>
      </trkpt>
      <trkpt lat="43.73456" lon="3.5477">
        <ele>107.81</ele>
        <time>2013-06-03T13:16:05Z</time>
      </trkpt>
      <trkpt lat="43.7345" lon="3.54774">
        <ele>111.17</ele>
        <time>2013-06-03T13:16:13Z</time>
      </trkpt>
    </trkseg>
  </trk>
</gpx>